GFSGBSN_sfc_dewp_000.txt.gz
Dewpoint
53 52 52 52 52 52 52 52 52 52 52 53 53 53 54 54 54 55 55 56 55 55 55 56 56 56 52 37 26 42 65 66 52 52 31 29 20 22 16 21 24 28 29 30 34 41 43
53 53 52 53 52 51 52 51 52 52 52 53 53 54 54 54 54 55 55 55 55 54 55 55 56 56 48 26 27 40 48 53 44 40 30 24 19 17 17 21 25 26 27 29 31 40 44
53 53 52 52 52 52 52 52 52 51 52 52 53 53 54 54 54 54 54 54 53 53 54 56 57 53 45 27 29 32 36 37 42 38 28 25 21 16 19 22 26 27 31 40 39 42 46
53 52 51 52 52 52 52 52 51 51 52 53 53 52 52 52 53 54 54 53 52 54 56 58 57 53 36 36 39 38 38 36 38 42 33 29 24 22 18 26 26 27 31 32 41 45 47
52 52 51 52 52 53 53 52 51 51 52 53 52 52 53 53 53 53 52 52 53 56 56 57 55 51 32 47 39 37 39 31 31 34 32 26 24 24 21 25 26 29 28 30 42 45 49
51 52 52 53 52 52 52 52 52 52 52 53 53 53 53 53 52 52 51 52 54 58 56 55 54 48 40 28 37 33 40 28 28 32 30 26 24 20 21 20 23 28 28 30 33 45 47
52 52 52 52 52 52 52 51 51 51 51 52 53 53 52 52 51 51 49 39 42 43 50 34 26 32 25 28 32 29 34 25 23 28 19 19 15 14 19 24 25 27 30 31 32 42 45
52 52 52 52 52 52 52 51 51 51 51 52 52 52 52 51 50 50 46 19 27 26 18 15 16 19 20 23 23 22 29 29 23 21 19 15 12 14 16 21 24 27 28 30 33 42 43
52 52 52 52 52 52 53 52 52 51 52 52 52 52 51 51 50 46 30 26 30 25 17 13 15 16 20 21 23 23 24 27 24 19 15 16 9 11 14 16 23 27 28 30 33 42 43
52 53 53 52 52 52 53 52 52 51 52 52 52 51 51 50 40 33 29 31 33 29 16 15 21 25 30 28 26 27 23 25 23 19 18 12 9 10 13 17 22 25 26 29 32 37 36
53 53 54 53 53 53 53 52 52 51 52 52 52 51 50 49 38 30 29 30 30 30 13 20 23 29 31 29 27 27 24 22 21 20 20 17 10 12 12 13 18 25 25 28 30 34 36
53 53 52 52 52 52 53 52 52 52 52 52 51 50 49 40 41 35 33 34 34 23 14 15 23 25 26 26 25 28 25 24 21 20 22 18 15 10 11 10 16 23 26 29 30 29 31
53 52 52 52 52 52 52 52 52 52 52 51 50 48 48 41 26 34 35 22 16 12 18 13 17 21 19 16 20 24 24 23 20 24 23 19 15 10 7 13 14 21 26 27 27 26 27
53 53 53 52 52 52 52 52 52 52 52 50 48 47 45 40 40 38 31 9 14 11 12 17 19 19 19 17 17 20 22 18 20 21 18 19 14 15 12 10 17 20 23 24 28 22 24
54 53 53 52 52 52 52 52 51 51 51 50 48 34 32 37 42 40 24 3 8 11 12 8 10 15 16 16 15 18 20 19 18 20 22 18 18 14 11 12 12 21 22 23 23 24 20
54 53 53 53 52 52 52 51 51 51 50 49 41 34 28 37 46 38 19 11 5 1 8 15 15 14 13 11 15 16 17 19 18 20 24 24 22 18 15 13 13 15 22 22 23 29 26
52 52 52 51 52 51 51 51 51 51 50 49 38 25 34 47 45 35 17 9 6 0 5 11 11 12 14 14 17 15 16 18 19 20 26 24 24 19 19 15 12 15 17 24 23 24 23
51 52 52 51 51 51 51 51 51 50 49 45 34 19 36 43 31 23 19 15 21 7 1 0 8 7 10 15 17 17 17 18 20 22 24 27 24 23 13 12 10 13 20 24 22 31 25
51 51 51 51 51 51 50 50 50 50 49 40 32 25 26 33 16 12 20 17 17 16 9 5 2 7 10 14 18 16 15 14 15 21 25 26 25 24 22 10 12 11 14 20 23 25 33
50 50 50 50 50 50 50 50 50 49 49 42 33 19 19 33 25 27 25 27 23 18 16 13 13 12 9 13 17 18 18 15 21 19 54 40 23 26 19 23 15 16 11 13 16 21 25
48 49 49 49 49 49 49 50 50 49 49 42 32 23 32 19 27 34 34 31 25 20 21 22 21 20 16 17 18 19 21 22 26 41 37 40 37 30 24 20 18 16 11 11 14 18 23
49 49 49 49 49 49 49 50 50 48 48 41 34 32 35 31 30 27 26 25 25 22 25 25 25 18 18 21 22 19 19 23 21 27 28 32 37 36 31 25 23 19 18 13 11 13 16
49 48 48 49 48 48 48 49 49 49 48 41 37 36 33 28 22 23 21 22 23 28 28 25 27 29 28 27 29 29 30 32 32 31 33 36 36 39 33 29 27 25 24 19 16 13 16
48 49 48 48 48 48 48 48 49 49 49 47 41 36 35 25 20 22 22 26 25 27 30 29 29 27 29 30 29 28 28 30 32 33 34 40 44 39 33 36 30 25 26 23 19 15 17
48 48 48 49 48 48 48 48 48 49 48 48 47 42 38 31 25 24 24 25 27 29 30 31 29 27 29 27 27 29 27 32 31 31 34 38 40 36 32 31 32 31 33 25 23 21 18
48 47 47 47 48 49 48 48 48 48 49 49 48 47 42 34 24 27 25 31 29 29 27 27 32 33 30 24 27 31 24 26 26 29 35 37 42 37 36 32 31 41 45 47 46 34 26
47 48 47 47 48 48 48 48 47 47 48 49 48 49 44 38 31 30 26 26 29 29 28 29 34 31 36 37 29 28 24 26 23 31 37 39 40 33 34 35 36 47 46 47 40 34 29
47 48 48 48 48 48 48 47 47 46 46 48 47 48 44 39 37 36 32 29 33 34 31 33 32 35 36 43 37 28 27 28 27 35 41 40 38 33 37 38 35 48 45 46 51 52 50
47 46 48 48 48 47 47 47 46 46 45 47 44 49 51 43 37 38 36 35 34 31 30 32 33 33 31 39 41 43 43 39 35 29 42 36 37 35 39 36 50 49 51 52 52 52 51

GFSGBSN_sfc_dewp_003.txt.gz
Dewpoint
54 53 53 53 53 52 53 52 52 52 52 53 53 53 53 53 54 54 54 55 55 54 54 55 56 57 53 36 27 46 69 66 54 43 41 29 29 26 29 25 27 29 32 33 33 37 38
53 52 52 52 52 52 52 52 52 52 52 52 52 53 54 54 53 54 54 55 54 54 54 55 56 57 48 29 24 35 35 43 38 38 31 26 25 22 23 25 26 29 30 29 31 34 39
52 52 52 53 53 53 53 52 52 52 52 52 52 53 53 53 52 52 53 54 53 53 54 56 56 53 40 30 24 28 37 33 33 33 28 24 22 17 19 22 24 27 27 31 33 33 37
52 52 52 53 53 52 52 52 52 51 51 51 52 53 53 52 52 52 53 53 52 54 56 58 58 51 35 29 33 27 28 28 29 31 28 23 20 19 19 23 24 24 27 27 33 33 35
52 52 53 52 52 53 53 52 51 52 52 52 52 52 52 53 53 53 52 51 53 56 56 57 54 49 31 46 34 31 32 31 27 27 32 26 25 19 20 19 22 26 24 27 33 34 38
53 52 52 52 52 53 53 53 52 52 52 52 53 53 53 53 52 52 51 51 52 57 56 53 50 45 36 30 29 31 32 28 23 28 26 23 21 18 17 20 22 27 26 28 35 33 39
53 52 52 52 52 52 53 53 52 52 52 52 53 53 52 52 51 51 48 38 42 48 48 34 32 28 26 25 33 28 30 25 22 27 21 19 13 13 18 23 25 26 27 26 29 31 36
53 52 52 52 53 53 53 53 53 52 52 52 52 52 52 51 51 50 47 24 23 22 18 17 19 20 19 18 18 24 27 23 19 21 21 15 13 14 19 22 23 24 26 28 29 31 34
53 53 53 54 54 54 54 53 53 53 52 52 52 52 52 51 49 47 23 24 24 22 17 13 13 13 13 13 14 16 16 23 18 17 18 12 9 11 16 21 23 24 25 27 27 37 38
54 53 54 54 54 53 53 53 53 53 52 52 52 52 51 50 40 26 24 28 26 22 16 11 13 14 18 19 15 17 21 15 22 17 14 15 9 9 12 18 20 22 24 26 27 34 35
54 54 54 54 54 53 53 52 53 52 52 52 52 52 50 49 38 28 23 22 21 23 13 15 17 22 25 24 25 22 23 17 19 18 16 13 11 11 13 14 19 21 23 27 28 31 41
54 54 54 54 53 53 53 52 52 52 52 52 52 51 50 38 38 35 29 26 26 18 15 15 20 23 25 23 19 24 21 19 20 18 17 15 12 8 10 11 17 20 23 26 26 27 28
54 54 54 54 54 53 52 52 52 52 52 52 51 49 47 41 25 26 26 23 15 13 16 14 14 17 17 17 18 22 21 18 18 18 20 17 14 11 7 11 15 19 21 22 24 23 23
54 54 54 54 54 53 53 52 52 51 52 51 49 47 44 37 35 33 27 15 15 14 13 10 11 16 15 14 15 18 21 17 19 17 14 16 14 15 11 11 13 18 19 20 27 23 23
54 54 54 54 54 53 53 52 52 52 52 50 48 35 30 28 33 33 22 9 12 15 12 10 12 13 16 14 14 14 19 19 17 17 18 16 18 14 13 10 10 15 18 20 21 24 22
53 53 53 53 53 53 53 52 52 52 51 50 42 38 30 28 38 36 22 16 12 9 6 8 12 13 15 16 15 16 16 17 17 16 18 20 20 16 11 11 9 9 15 18 22 28 25
51 52 52 52 53 53 52 52 52 51 51 49 41 26 31 34 40 34 20 16 14 11 9 7 11 14 12 12 13 14 15 14 13 16 20 16 21 20 18 14 13 9 10 19 20 22 22
51 52 52 52 52 52 52 52 52 51 50 46 34 27 31 36 32 27 25 22 24 14 11 6 6 10 15 14 15 15 15 16 14 17 18 21 20 22 19 16 13 11 13 14 21 31 23
50 50 50 51 51 51 51 51 51 50 50 40 33 30 29 24 17 16 20 18 18 18 16 13 8 6 9 12 17 17 16 15 17 19 22 22 21 22 23 18 16 15 13 12 14 23 33
49 49 49 49 50 49 50 51 51 50 49 43 35 25 22 22 21 17 17 17 16 16 16 18 17 14 9 10 13 16 15 15 15 16 51 38 24 26 20 24 17 16 13 11 11 16 23
49 49 49 49 49 49 50 51 50 49 49 43 37 28 26 24 21 29 31 33 25 28 24 22 21 17 15 15 12 13 15 17 15 33 27 28 30 27 23 22 20 14 8 8 11 16 19
49 49 49 49 49 49 49 50 50 49 48 41 39 35 32 28 29 27 27 25 19 22 24 25 21 19 18 20 20 14 14 21 23 22 27 28 33 32 25 21 19 18 16 10 10 10 14
48 49 49 49 49 49 49 49 50 49 48 44 43 45 37 30 25 21 18 22 22 16 18 27 28 31 29 24 28 29 29 23 22 28 30 34 34 37 33 29 28 24 21 20 19 16 13
48 48 48 49 48 49 49 49 49 49 49 48 46 43 37 26 24 25 26 18 22 22 28 25 27 33 34 29 29 28 26 28 29 29 24 33 36 33 30 34 29 28 32 26 23 22 20
47 47 48 48 48 48 48 49 49 49 49 50 48 42 39 31 25 25 25 24 23 24 23 21 24 31 33 29 27 28 25 27 26 26 31 35 36 33 32 31 38 34 39 38 40 35 27
48 48 48 48 48 48 48 49 48 49 50 50 51 48 42 36 30 32 33 31 27 24 22 21 25 33 34 30 26 27 21 23 23 21 24 30 38 36 36 32 30 31 42 43 40 34 31
48 48 48 48 49 48 48 48 48 48 48 51 48 49 43 37 37 34 31 33 32 34 33 35 34 33 32 29 23 20 17 20 19 22 26 25 31 30 32 33 31 44 43 43 36 38 51
48 48 48 47 48 48 48 48 48 48 47 47 48 50 45 40 38 37 34 32 28 28 30 40 30 34 34 36 33 25 22 22 23 27 29 26 30 29 32 32 30 45 42 40 51 51 51
49 48 48 46 48 48 47 47 47 46 46 46 45 50 49 43 37 38 37 35 33 31 28 28 32 34 33 41 43 41 42 39 32 27 29 28 31 30 31 34 51 50 50 51 51 51 51

GFSGBSN_sfc_dewp_006.txt.gz
Dewpoint
53 53 53 53 53 54 53 52 53 53 52 52 53 54 54 54 53 53 54 54 54 54 54 55 55 56 51 34 34 41 70 67 50 41 33 33 28 32 30 32 31 27 36 37 33 35 37
53 53 53 53 53 53 53 53 52 52 52 52 52 53 54 55 54 54 54 54 54 53 53 54 55 57 47 25 28 42 37 43 35 31 32 34 27 30 29 29 28 26 28 30 29 31 34
53 52 53 53 53 53 53 53 52 52 52 52 52 52 53 54 53 53 54 53 53 52 53 55 57 53 36 22 29 26 29 33 32 33 25 30 28 26 27 25 26 25 26 28 28 29 34
55 53 53 53 53 53 53 52 53 53 53 53 53 53 53 54 53 53 53 52 53 53 55 57 58 52 32 19 26 29 26 29 28 30 28 26 25 22 24 23 22 21 24 25 28 30 32
55 55 54 53 53 54 54 53 53 53 53 53 53 53 53 54 53 52 51 51 52 54 57 57 55 49 31 44 31 30 27 23 23 24 28 25 22 18 19 19 19 21 22 24 26 31 32
54 55 54 53 53 54 54 54 53 53 53 53 53 53 53 53 52 51 51 51 52 55 57 53 49 44 41 29 30 26 26 23 24 24 21 26 22 20 16 19 18 21 23 24 26 33 30
54 54 53 52 53 54 54 54 54 53 53 53 53 53 53 52 51 51 47 40 41 45 49 40 36 28 22 31 25 28 28 27 24 20 23 25 20 19 21 21 22 21 25 24 27 35 31
54 53 53 54 54 54 54 54 53 53 53 53 53 53 53 52 51 49 46 35 22 22 17 17 24 33 33 26 25 28 24 25 21 19 22 17 16 15 19 22 22 23 24 26 27 34 34
55 55 55 54 55 54 54 53 53 53 53 53 52 52 52 51 49 46 33 19 23 21 17 14 12 12 22 28 23 18 24 26 17 17 21 17 13 12 15 20 21 22 23 25 25 30 32
55 55 55 55 55 54 54 53 53 52 52 52 52 52 52 51 41 32 26 26 19 18 15 13 10 10 11 13 12 13 15 21 22 16 14 17 16 9 10 16 21 21 22 23 23 31 31
55 55 55 55 55 54 54 53 53 52 52 52 52 52 51 50 40 35 26 23 20 20 13 13 10 12 9 10 12 11 12 14 14 15 18 13 15 11 9 12 18 22 23 23 23 26 35
55 55 55 55 55 54 54 53 53 53 53 52 52 51 50 40 37 36 33 25 22 16 14 14 17 17 13 10 15 18 12 14 17 13 18 17 12 12 8 7 13 19 21 22 22 24 26
55 55 55 55 55 55 54 53 53 53 52 52 51 50 48 42 32 26 28 21 14 13 17 14 15 19 19 18 15 19 19 19 17 15 18 17 15 10 10 9 10 13 17 21 21 22 23
54 54 54 54 54 54 54 53 53 52 52 51 49 48 46 40 38 38 30 18 17 16 15 14 12 15 17 20 19 16 19 18 17 15 15 16 13 13 11 9 11 12 14 20 24 22 22
53 54 53 53 53 53 53 53 52 52 52 51 49 40 37 32 33 34 27 12 16 18 17 14 13 12 15 14 14 15 18 18 14 15 19 13 15 15 12 11 8 12 13 15 19 21 21
52 52 52 52 52 53 53 53 52 52 52 50 42 39 38 36 30 29 24 21 15 14 14 14 14 14 14 15 14 15 16 19 18 15 16 18 18 14 14 12 12 8 13 11 16 24 25
51 51 52 52 52 52 53 53 52 52 51 49 42 33 29 27 29 32 23 20 20 19 17 15 14 12 13 14 15 16 15 15 14 17 18 15 19 17 18 17 14 10 10 12 14 19 22
51 51 51 51 51 51 52 52 52 51 50 45 35 28 27 32 29 30 27 26 27 22 21 18 16 14 12 12 15 15 16 16 15 14 16 19 17 20 16 16 14 13 14 13 14 27 21
51 51 51 51 51 51 51 51 51 50 50 42 33 30 30 26 23 21 23 22 24 23 24 23 19 16 14 11 17 16 16 14 14 15 18 19 20 22 18 17 18 14 12 12 11 17 28
51 51 51 51 51 51 51 50 50 50 50 44 37 26 24 24 23 20 20 19 17 17 19 21 24 23 19 16 14 17 14 14 14 15 51 34 20 27 18 23 20 21 15 15 13 12 19
48 48 49 50 50 50 51 50 50 50 49 44 36 30 27 27 26 29 35 31 28 27 25 29 30 27 24 21 17 13 11 12 14 30 27 23 29 26 20 19 19 19 15 14 17 20 20
49 48 48 48 49 49 50 51 50 49 48 44 40 35 37 31 28 24 25 27 25 28 25 24 29 30 30 31 33 32 28 25 20 19 21 20 30 29 26 21 20 20 19 14 13 16 18
48 48 48 48 48 48 49 49 50 50 47 45 41 42 42 35 27 22 18 18 26 24 27 27 23 27 32 32 35 34 31 28 27 28 29 29 25 33 29 24 23 22 23 20 18 13 15
49 48 48 48 48 48 49 49 49 50 48 50 47 45 37 34 27 26 22 20 22 29 23 28 30 36 34 32 35 34 28 27 27 27 23 33 34 32 30 32 26 24 23 20 20 21 17
49 48 48 48 48 48 48 49 48 50 50 51 50 44 39 34 30 30 25 24 29 36 30 24 23 27 27 30 35 30 26 28 26 26 27 30 36 32 32 31 31 28 28 29 27 28 29
49 49 49 48 48 49 49 49 49 49 49 49 51 49 42 37 29 29 32 30 27 27 29 28 29 27 30 28 36 33 31 30 25 26 28 29 45 34 34 30 31 36 39 40 38 35 44
49 49 49 48 48 48 48 48 48 48 49 48 50 50 44 35 37 34 30 32 36 34 34 34 38 32 32 22 29 33 32 32 28 26 28 30 35 32 33 31 29 42 41 40 37 39 49
50 49 48 48 47 48 49 48 48 48 48 47 47 51 44 39 37 37 35 33 31 35 36 38 37 37 30 22 22 26 29 28 26 30 31 30 27 29 36 37 36 42 45 41 49 49 48
49 49 48 48 48 48 48 47 47 47 47 46 46 51 50 44 37 37 37 36 34 33 30 33 37 38 42 36 40 40 35 38 35 29 29 26 28 28 32 33 45 49 52 51 49 50 52

GFSGBSN_sfc_dewp_009.txt.gz
Dewpoint
53 54 54 54 54 54 53 53 53 53 53 52 52 53 53 53 53 54 54 54 54 54 53 54 55 56 53 42 37 33 70 70 62 50 39 32 25 26 29 32 32 34 35 37 39 42 39
54 53 53 53 53 53 53 53 53 53 53 53 53 53 54 54 54 54 54 54 54 53 53 54 55 56 52 31 23 26 50 54 45 39 34 31 29 29 31 31 30 31 31 37 36 34 41
55 54 53 53 54 54 53 53 53 53 53 53 53 53 54 54 53 54 54 54 54 52 52 54 56 54 46 29 22 43 36 42 40 34 28 31 33 32 28 30 30 27 26 26 29 29 34
56 55 54 53 54 54 54 53 53 53 53 53 53 54 54 54 54 54 53 52 52 52 53 55 57 53 45 30 29 26 24 27 35 32 32 25 29 29 25 27 26 24 22 21 26 29 31
55 55 55 55 54 54 55 55 54 54 54 53 53 53 53 53 53 53 52 52 53 54 54 57 56 54 43 45 34 29 25 27 28 28 31 28 25 24 22 21 21 20 18 20 24 29 34
55 55 55 54 54 55 54 54 54 53 53 53 53 53 53 52 52 51 51 51 51 53 57 55 51 47 46 34 29 29 28 29 24 24 23 25 25 22 20 17 17 18 20 20 23 29 34
56 55 54 55 55 55 55 54 54 53 53 53 53 52 52 52 51 51 48 43 40 42 49 44 42 36 25 28 30 29 27 24 23 21 22 22 22 20 19 16 18 20 20 20 23 32 34
56 56 55 55 55 55 55 54 54 54 53 53 53 52 52 52 51 49 48 41 32 19 19 19 19 31 37 38 33 25 26 24 23 23 22 19 20 22 22 21 17 19 20 21 23 32 33
56 56 55 55 55 55 55 54 54 53 53 53 53 52 52 51 49 47 32 29 27 20 18 15 15 15 15 27 33 30 26 26 24 22 19 18 22 23 20 20 21 19 20 21 23 29 34
55 55 55 55 55 55 55 55 54 54 53 53 53 52 51 51 42 37 33 32 27 21 17 14 12 12 13 14 21 30 27 26 25 20 18 19 21 18 17 14 17 20 22 22 22 23 28
55 55 55 55 55 55 55 54 54 54 53 53 53 52 51 50 43 40 34 35 31 24 15 17 14 13 12 10 17 25 29 24 21 23 17 14 20 19 16 10 12 20 23 22 22 22 33
55 54 54 54 55 54 54 54 54 53 53 53 52 51 50 44 40 39 37 33 29 20 16 15 11 10 9 9 11 13 23 18 18 20 20 19 19 13 16 16 10 13 20 22 22 22 21
54 54 54 54 54 53 53 53 53 53 53 52 51 50 48 45 39 31 39 32 19 15 19 16 14 14 9 9 9 9 11 11 11 10 11 12 14 18 13 13 12 9 12 16 18 20 20
53 53 53 53 53 53 53 53 53 53 52 52 50 49 46 42 42 42 40 26 18 19 16 18 16 16 14 13 10 9 13 10 11 11 14 13 11 15 17 12 11 9 9 12 17 19 20
52 52 52 52 52 52 52 52 52 52 52 51 49 41 38 37 37 39 34 25 18 19 19 17 16 16 17 18 19 13 15 11 11 11 14 11 13 19 16 15 11 11 8 9 12 20 22
51 52 52 52 52 52 52 52 52 52 52 50 45 40 39 39 39 35 31 26 21 18 19 20 18 17 16 16 16 19 15 18 19 18 18 17 20 18 17 15 13 8 13 9 8 10 16
51 51 52 52 52 52 52 52 51 51 51 49 43 35 32 30 30 33 27 26 24 24 23 21 20 19 18 16 15 14 16 18 17 19 17 14 15 15 19 15 11 12 7 8 10 11 13
51 52 51 51 51 51 52 51 51 51 50 45 37 31 31 32 27 27 25 27 31 27 28 27 25 24 22 21 18 15 13 14 18 18 18 16 14 14 14 17 15 12 13 9 14 12 18
50 50 51 51 51 51 51 51 51 50 50 43 35 33 33 31 23 24 25 24 25 22 21 22 23 25 25 24 23 21 19 16 14 16 18 20 15 16 18 16 15 13 12 13 7 15 16
50 50 50 50 51 51 51 51 51 50 50 45 39 29 28 30 28 24 27 30 31 31 29 27 26 29 28 27 27 26 24 20 14 12 49 38 18 16 16 19 19 21 15 13 10 8 9
49 49 49 50 49 50 50 50 51 50 49 46 43 33 29 29 31 30 32 33 28 26 28 26 30 31 28 30 29 29 33 33 32 36 27 22 18 18 19 20 18 14 18 14 13 10 11
49 49 49 50 50 49 49 50 50 50 49 46 39 36 36 32 31 27 28 23 21 20 27 26 26 32 30 35 34 33 33 33 32 31 29 28 26 29 27 22 18 16 18 20 12 12 14
49 49 49 49 49 49 49 50 50 50 48 45 43 41 40 34 29 27 27 25 28 26 28 28 30 27 31 29 32 36 33 31 32 32 29 28 30 31 22 26 25 20 17 19 22 16 15
49 49 49 49 49 49 48 49 50 50 49 48 47 45 38 30 29 27 25 25 25 26 28 28 31 31 28 35 34 33 31 31 31 31 28 27 27 31 23 29 26 27 27 25 24 27 21
49 49 49 49 49 49 48 49 49 50 50 49 49 45 39 33 31 29 25 26 27 29 27 28 32 33 35 32 31 30 27 27 26 26 26 27 27 30 26 26 27 29 28 28 25 25 35
49 50 50 49 49 49 48 48 49 50 50 49 49 49 43 35 32 31 32 31 29 29 31 30 35 39 38 30 36 30 30 31 28 32 25 25 34 34 27 25 24 29 36 40 38 37 49
49 49 49 49 49 49 48 49 48 49 49 50 48 49 44 35 36 34 32 32 34 35 33 31 36 36 41 27 29 32 29 32 29 31 33 31 33 31 34 25 32 43 45 42 36 43 49
50 50 50 49 49 49 48 48 48 48 48 47 44 50 45 39 37 37 35 34 34 34 34 37 37 38 38 36 23 29 28 29 32 33 32 35 37 31 36 34 32 48 45 42 51 52 55
50 50 50 50 49 48 48 48 47 47 47 48 44 50 50 43 39 40 40 39 37 35 34 40 38 37 38 39 39 39 28 40 38 35 38 35 41 39 33 39 50 51 49 54 55 57 58

GFSGBSN_sfc_dewp_015.txt.gz
Dewpoint
54 54 54 54 54 54 54 53 53 54 53 53 53 53 53 53 53 53 53 53 53 53 53 54 54 54 52 41 29 20 67 68 63 51 43 36 31 30 23 26 30 43 41 36 37 39 52
54 54 54 54 54 54 54 54 53 53 53 54 54 54 54 54 54 53 54 54 54 53 53 54 54 54 47 9 15 27 29 56 53 50 45 37 32 29 26 25 27 31 32 32 32 29 51
55 55 54 54 54 54 54 54 54 54 53 54 54 54 54 54 54 54 54 53 53 52 53 54 54 52 50 14 18 28 36 43 51 46 40 40 33 26 26 25 30 30 29 27 27 27 46
56 55 55 55 55 55 55 55 55 55 55 54 54 54 54 54 54 54 53 52 52 53 54 54 55 52 35 35 36 26 21 20 39 43 33 35 35 30 30 31 28 23 23 22 25 28 32
57 56 55 55 55 56 55 55 55 55 55 54 54 54 54 54 53 53 52 51 52 54 55 56 52 50 34 47 44 37 27 20 21 32 38 36 31 29 29 27 22 21 22 21 22 24 40
54 55 55 54 54 55 55 55 55 55 54 54 54 54 54 53 53 52 51 52 51 54 56 55 54 43 38 26 43 35 32 24 26 28 33 31 25 23 23 21 21 20 19 19 20 23 38
54 54 54 53 54 55 55 55 54 54 54 54 54 53 53 53 52 50 49 44 33 32 46 39 41 37 31 31 36 34 27 23 26 27 27 27 27 24 22 22 21 21 20 19 21 25 37
54 54 53 53 54 54 54 54 54 54 54 54 53 53 53 52 51 50 44 30 34 33 29 29 28 29 32 33 27 27 25 20 24 22 23 22 22 26 25 24 21 20 18 18 18 22 27
53 53 53 53 54 54 53 53 53 53 53 53 53 52 52 52 50 43 39 34 35 34 24 19 21 20 20 27 27 25 27 24 24 24 21 20 20 23 24 23 20 19 18 18 17 22 27
53 54 53 53 53 53 53 53 53 53 53 53 53 52 51 51 38 43 37 38 37 37 15 16 14 15 20 27 26 26 34 24 24 22 22 20 20 21 21 21 22 19 20 18 17 20 18
53 53 52 52 52 52 52 52 52 52 52 52 52 51 50 50 43 42 33 39 40 24 17 24 15 17 18 17 17 23 32 29 24 21 22 21 21 19 19 19 22 21 22 21 24 20 21
51 51 51 52 52 52 52 52 52 52 52 52 51 50 50 45 43 43 42 41 29 13 13 17 15 13 14 13 12 23 24 30 26 24 23 21 23 21 20 21 20 24 22 17 22 21 19
51 51 51 51 52 52 52 52 52 52 52 51 50 49 48 45 39 40 42 31 14 12 18 18 18 19 18 11 10 18 23 25 23 22 22 22 22 19 20 20 22 20 15 15 11 16 15
50 51 52 52 52 52 52 52 52 52 52 51 49 48 46 42 43 45 39 21 13 15 15 21 22 20 15 20 13 13 22 22 26 20 22 21 19 22 19 19 18 18 16 15 10 15 15
50 51 51 51 51 51 51 51 51 51 51 51 48 42 42 41 40 41 32 20 15 18 22 23 21 20 22 23 22 22 18 22 25 17 16 19 20 19 22 18 18 15 15 15 10 22 14
49 50 51 51 51 51 51 51 51 51 51 50 44 41 40 41 39 37 32 27 23 25 24 26 21 25 24 24 22 24 22 19 18 25 18 15 13 14 16 19 18 16 15 15 10 10 11
49 49 50 51 51 51 51 51 51 51 50 49 39 35 36 35 34 34 29 29 28 27 26 25 25 25 25 25 24 24 24 25 30 30 27 18 12 13 14 13 14 14 14 12 12 10 9
49 50 51 51 51 51 51 51 51 50 49 44 36 30 33 36 26 28 29 31 33 28 29 28 27 26 26 27 27 24 24 26 33 33 33 32 15 12 12 16 13 13 12 12 11 10 10
50 51 51 51 51 51 51 51 50 50 49 41 35 33 38 33 27 25 27 28 30 29 29 27 27 28 30 28 25 31 31 34 33 33 35 35 26 12 10 18 16 13 15 13 12 11 12
50 50 50 51 51 51 51 50 50 50 49 41 36 31 32 32 31 29 29 26 29 32 29 27 27 30 30 27 31 29 30 34 32 32 41 33 27 22 16 14 18 15 15 15 12 12 12
49 50 50 50 50 51 51 51 50 49 49 41 34 30 32 29 30 31 29 27 30 30 34 30 26 28 30 28 31 30 31 33 33 36 32 31 27 26 27 26 25 22 16 14 13 13 12
49 50 49 50 51 50 50 51 51 50 48 42 36 34 35 33 31 30 29 28 28 29 32 32 28 27 29 29 30 29 31 33 32 31 30 31 28 27 25 25 25 23 18 17 14 14 13
49 49 49 49 50 51 50 50 50 49 46 38 41 39 39 36 32 29 27 28 28 29 32 34 28 26 26 28 33 33 33 32 31 31 29 29 28 27 24 25 25 21 19 18 15 16 14
49 49 49 49 50 49 49 50 50 50 47 43 42 42 38 32 31 30 29 29 28 30 30 30 28 29 30 36 33 31 33 33 33 33 32 29 29 28 25 27 22 21 25 19 18 19 19
49 49 49 49 49 49 49 49 49 50 49 44 44 43 39 32 31 30 30 29 31 32 30 29 28 31 34 34 29 28 26 29 29 29 31 32 29 27 24 26 27 25 30 28 18 19 28
49 49 49 49 49 49 49 49 49 50 50 44 42 42 41 36 33 34 33 32 31 30 31 32 33 34 36 34 31 25 23 29 27 29 29 30 30 27 26 25 24 29 40 45 42 19 47
49 49 49 49 49 49 49 49 49 49 49 44 42 43 43 37 36 35 31 31 33 31 30 31 33 34 36 33 27 26 27 31 25 29 27 29 35 31 27 26 30 41 52 48 32 24 47
50 49 49 49 49 49 49 49 49 48 48 44 42 44 41 38 35 36 35 34 34 34 31 31 32 34 31 31 31 29 29 30 28 30 32 33 34 36 30 32 32 51 51 49 52 56 56
50 50 50 51 49 49 49 49 49 49 49 48 44 44 46 42 37 38 38 38 36 35 34 35 33 33 35 32 33 33 31 33 30 29 36 33 38 39 35 38 44 49 51 57 56 56 58

GFSGBSN_sfc_dewp_021.txt.gz
Dewpoint
56 55 55 55 55 55 55 54 55 55 54 53 53 54 54 54 54 53 54 54 54 54 54 54 54 54 51 38 16 58 68 67 71 65 61 60 60 57 52 55 55 57 51 49 48 46 42
55 55 54 54 54 53 54 54 53 54 53 53 54 54 54 54 54 54 54 54 54 53 53 54 53 52 45 7 9 41 55 66 66 62 58 59 59 55 48 36 49 46 43 33 37 39 35
54 54 54 52 52 53 53 53 52 52 52 52 53 53 54 54 54 54 54 53 52 53 53 54 54 50 45 12 18 32 57 61 63 56 57 54 52 52 37 30 33 32 27 27 27 30 31
54 53 53 51 51 52 52 52 51 51 52 52 52 52 53 53 53 53 52 52 52 57 55 54 54 49 28 27 28 23 47 48 60 52 47 48 43 47 31 28 27 26 27 22 25 27 34
53 53 53 51 51 51 51 51 51 52 52 53 53 53 53 53 53 52 51 52 53 56 57 56 51 49 21 45 29 22 27 40 50 49 40 39 36 34 30 26 22 23 22 24 25 27 40
53 53 51 51 51 51 52 52 52 52 53 53 53 53 53 52 52 50 51 51 53 55 53 53 49 40 31 25 36 30 21 42 40 40 37 34 33 31 28 24 17 20 20 23 25 26 31
51 51 51 51 51 51 52 52 51 52 52 53 53 53 52 52 51 50 47 39 33 35 34 43 43 36 35 29 39 33 19 22 32 35 29 33 27 27 26 25 22 19 20 22 24 25 33
51 51 51 51 51 51 50 51 51 52 52 52 52 52 52 51 50 50 40 31 32 32 31 31 30 33 38 35 27 31 21 16 22 24 29 30 26 25 26 27 23 20 19 22 24 23 23
51 51 51 51 51 51 51 51 52 52 52 52 52 52 51 51 50 42 39 35 38 38 32 27 29 27 26 28 28 27 20 18 19 20 23 24 24 27 27 26 23 20 17 19 22 22 22
50 51 51 51 51 51 52 52 52 52 52 52 52 51 50 50 39 41 32 38 40 39 24 22 20 22 25 26 25 26 26 22 19 19 22 21 25 27 27 25 22 16 18 18 22 22 22
49 51 51 51 51 51 52 52 52 52 52 51 51 51 49 49 43 39 34 40 40 36 9 22 15 21 25 23 21 24 25 25 19 18 23 22 25 26 26 25 25 18 20 20 22 22 23
49 49 49 50 50 51 52 52 52 52 52 51 51 50 49 44 44 42 42 41 37 20 14 20 14 15 20 20 17 24 25 28 25 21 21 20 25 25 25 26 27 26 24 24 25 22 21
49 48 49 50 51 52 52 52 52 51 51 51 50 49 48 44 34 38 41 35 19 16 21 21 21 22 21 18 15 22 24 25 23 20 22 22 22 23 24 22 25 24 20 19 17 17 18
48 49 51 52 52 52 52 52 52 51 51 50 48 48 43 42 42 40 38 21 16 15 19 24 24 23 19 24 21 22 22 22 26 19 17 19 19 22 22 23 21 23 19 13 17 13 14
48 50 51 52 52 52 52 52 52 51 51 49 48 41 38 38 37 39 31 13 16 25 28 26 24 23 23 25 24 23 22 20 25 24 20 18 18 23 22 21 22 22 21 18 14 18 15
50 50 51 52 52 52 52 52 52 51 51 49 43 39 35 36 37 37 27 22 27 31 30 26 24 25 24 25 24 24 25 31 28 31 32 26 23 22 23 22 21 21 22 17 16 16 14
49 50 51 52 52 52 52 52 52 51 50 47 41 33 30 37 34 30 24 25 27 31 32 28 26 25 25 25 25 24 29 29 31 33 34 29 22 20 24 22 21 19 20 20 17 16 10
50 51 52 52 52 52 52 52 51 50 49 45 38 27 34 35 25 27 23 26 30 28 34 30 27 28 27 27 25 27 29 31 29 34 33 33 22 22 21 22 22 21 21 21 16 24 17
51 51 51 51 51 52 52 51 51 50 49 45 36 34 36 32 25 27 28 27 25 29 32 34 29 29 30 29 25 29 30 33 30 34 34 31 27 24 22 19 20 22 22 21 19 21 25
49 50 49 51 51 51 52 51 51 50 49 43 37 28 31 32 32 27 26 25 26 29 32 37 35 29 29 29 30 28 29 30 30 34 40 33 28 28 21 24 26 25 20 22 19 19 20
50 49 49 50 50 51 51 51 51 50 48 44 40 32 33 28 27 29 30 28 27 26 28 32 36 36 30 27 27 28 30 29 29 35 31 31 26 28 26 26 25 24 23 22 22 23 22
50 50 50 49 50 51 51 51 51 50 46 44 38 35 37 33 32 31 28 26 27 26 28 25 34 32 33 32 27 28 30 30 29 30 29 30 25 30 25 23 22 23 24 24 23 23 22
49 50 50 50 50 49 50 51 50 49 46 43 43 42 39 36 31 33 27 26 26 29 29 30 34 31 27 28 29 29 29 29 29 28 29 29 28 27 21 24 24 22 23 23 23 24 23
50 50 50 50 50 50 49 51 50 50 48 47 46 44 38 29 33 28 27 27 27 28 31 30 29 29 29 31 29 26 29 28 28 27 29 29 30 26 19 24 19 21 26 30 29 26 24
49 49 50 50 50 50 50 50 50 50 49 48 47 44 39 32 28 27 27 27 28 28 29 29 30 31 32 33 26 23 24 28 26 25 27 31 29 20 15 18 21 22 24 38 40 30 40
49 49 49 49 49 49 49 49 49 51 50 49 47 47 43 36 29 30 30 30 28 27 28 29 31 34 34 36 30 24 15 19 17 26 28 28 32 25 21 13 15 24 29 43 47 33 51
49 49 50 49 49 49 50 49 50 51 51 50 47 47 43 37 37 34 31 31 31 31 31 28 29 29 37 31 23 25 22 24 15 15 28 29 28 25 23 21 20 25 38 51 40 35 53
51 51 51 51 50 50 50 50 50 50 52 50 46 47 45 39 38 37 36 33 33 33 31 29 31 34 36 31 29 25 28 28 27 21 20 27 29 29 24 21 19 27 33 34 50 54 55
51 51 51 51 51 51 50 50 51 52 51 52 45 46 47 42 39 39 38 38 37 34 33 37 33 33 36 34 34 33 30 31 30 24 30 25 26 33 25 21 31 36 42 50 55 55 56

GFSGBSN_sfc_dewp_024.txt.gz
Dewpoint
54 54 54 52 52 54 53 52 52 52 52 52 52 53 53 53 53 53 53 54 54 53 53 54 54 53 49 32 15 36 65 63 62 50 48 49 51 48 43 46 49 52 47 45 45 44 42
53 53 52 51 52 52 52 52 52 52 52 52 52 53 53 54 53 53 54 54 53 53 53 54 53 53 40 20 11 14 43 50 54 50 48 47 49 46 42 43 46 45 48 44 34 34 37
54 53 51 51 51 52 52 52 52 52 52 52 53 53 54 54 54 54 53 53 52 53 56 57 54 49 39 21 13 19 44 51 54 52 47 46 46 47 40 41 35 42 38 31 29 31 32
53 52 51 51 51 51 51 52 51 52 53 53 53 53 54 54 54 53 52 52 52 56 57 55 55 47 33 26 25 31 41 49 55 52 45 47 47 47 39 31 27 29 29 27 31 32 30
51 51 52 51 51 51 52 51 51 52 53 53 53 53 53 53 53 52 51 52 54 57 55 55 50 44 29 41 20 19 43 43 51 49 47 45 45 40 39 34 26 24 25 29 31 31 33
51 50 51 51 51 51 52 52 52 52 53 53 53 53 53 52 52 51 51 51 56 56 53 52 46 39 31 23 25 15 39 34 48 46 40 38 37 27 30 30 25 25 24 26 29 31 31
51 51 51 51 51 51 51 52 51 52 52 52 52 52 52 51 51 50 45 37 39 44 37 39 39 32 31 26 33 17 23 34 42 43 30 29 23 21 20 24 23 24 24 26 27 31 30
50 51 51 51 51 51 51 51 52 52 52 52 52 52 51 51 50 50 40 30 32 32 28 26 26 30 38 36 31 21 22 30 30 33 27 26 23 21 20 18 21 22 22 23 27 28 27
49 50 50 51 51 51 51 52 52 52 52 52 52 51 51 50 50 42 35 35 36 35 28 24 26 24 26 30 29 26 17 24 27 26 23 22 21 21 19 22 21 21 21 22 24 27 26
50 50 49 51 52 52 52 52 52 52 52 52 52 51 50 50 41 36 32 34 37 37 25 15 21 25 25 27 26 28 15 21 21 24 22 21 22 22 21 21 20 19 19 19 20 23 25
50 49 50 51 52 52 52 52 52 52 52 52 52 50 49 49 40 33 35 36 38 37 8 21 18 23 24 25 24 24 27 13 14 18 21 22 21 21 21 22 21 18 13 16 18 19 23
50 49 50 51 51 52 52 52 52 52 52 52 51 50 49 41 37 34 35 37 38 23 8 18 16 17 20 24 22 24 27 19 17 17 20 20 19 20 22 22 22 20 16 15 18 16 18
48 49 50 51 52 52 52 52 52 52 52 51 50 48 46 39 33 35 35 34 18 9 15 21 19 20 18 17 22 21 24 25 24 20 20 21 19 21 21 22 23 21 19 16 13 13 15
49 50 51 52 52 52 52 52 52 52 51 50 48 47 43 36 34 35 34 24 13 11 22 25 24 22 21 19 18 18 23 22 24 21 18 18 17 19 22 22 22 22 18 11 17 9 11
49 51 52 52 52 52 52 52 52 51 51 49 48 33 32 31 34 37 29 11 7 27 27 26 23 22 20 22 22 20 20 22 22 23 22 19 19 17 20 21 22 23 20 14 10 15 12
50 50 51 52 52 52 52 52 51 51 51 49 39 32 29 31 33 34 24 18 22 26 27 26 24 24 25 24 24 22 19 27 23 23 27 24 22 19 18 20 20 20 21 14 12 18 17
50 50 51 52 52 52 52 52 51 51 50 49 34 27 29 31 29 22 15 18 20 21 27 25 25 25 26 26 26 23 24 28 29 27 33 27 24 22 21 20 19 18 19 18 14 13 12
49 51 51 51 51 52 52 52 51 50 49 44 32 20 31 31 20 21 19 23 27 21 24 26 26 23 26 27 27 26 28 30 29 32 31 29 25 24 20 20 19 19 20 20 15 23 16
50 51 51 51 51 51 52 52 51 50 49 40 32 29 31 29 20 21 23 22 22 23 27 29 30 28 28 27 27 28 30 30 29 32 33 32 25 23 23 21 23 20 20 20 18 19 26
50 49 49 51 51 51 51 51 51 50 49 42 32 23 24 27 28 25 24 22 22 23 25 25 37 34 30 23 27 28 27 27 27 29 39 34 28 27 20 25 24 23 21 21 19 18 19
50 49 49 50 50 51 51 51 51 50 49 42 33 27 31 24 26 28 28 23 22 23 24 24 34 36 35 28 24 24 28 27 26 32 29 30 30 30 28 26 25 22 20 21 22 23 22
50 50 50 50 50 50 51 51 51 50 48 39 32 32 34 32 30 27 27 25 22 24 24 24 26 30 30 34 30 29 29 28 27 29 28 27 30 30 28 26 24 23 24 23 22 22 23
49 50 50 50 50 50 50 51 51 50 47 41 40 39 40 32 29 27 25 25 26 26 26 26 26 25 24 29 32 31 29 28 29 29 28 28 26 29 26 25 24 24 25 24 25 25 25
49 49 49 50 50 50 50 51 51 51 50 49 44 43 39 30 27 27 25 25 26 27 28 28 26 26 27 30 30 27 24 23 24 25 25 29 29 26 23 27 24 25 26 26 25 26 26
49 49 49 50 50 50 50 50 50 50 51 49 49 46 41 33 27 27 27 26 27 28 26 26 27 30 31 31 26 21 18 21 21 21 22 26 28 22 21 22 24 23 24 25 27 27 27
49 50 50 49 49 50 49 50 50 51 51 50 49 50 45 37 30 28 29 29 27 27 26 26 27 30 30 30 26 23 13 15 14 17 18 23 30 24 21 20 20 24 23 35 33 31 33
49 50 51 50 50 50 50 50 50 51 51 51 48 49 45 39 37 35 32 31 32 30 28 27 27 27 30 31 24 18 15 17 14 16 22 18 25 23 20 19 20 23 33 43 33 43 49
50 51 51 51 51 51 51 50 51 51 52 51 48 49 45 40 38 37 35 34 33 33 32 29 30 31 33 32 25 20 20 24 20 18 18 20 19 18 20 20 18 21 24 31 45 50 49
51 51 51 51 51 51 50 51 51 52 52 52 48 48 49 43 39 40 40 39 37 36 34 37 29 31 31 34 38 35 28 28 27 20 23 20 20 20 22 20 29 28 31 36 38 42 49

GFSGBSN_sfc_dewp_027.txt.gz
Dewpoint
54 52 52 51 52 52 52 52 52 52 52 52 52 53 53 53 53 53 54 54 54 53 53 54 54 54 50 35 22 45 70 64 44 44 34 43 45 48 45 41 43 43 44 45 46 44 41
53 52 52 52 52 52 52 52 52 52 52 52 53 54 54 54 54 54 54 54 53 53 53 54 55 54 44 30 22 21 40 46 43 45 33 40 42 45 44 40 41 42 44 44 43 41 39
52 52 52 52 52 52 52 52 52 52 52 52 53 53 54 54 54 54 53 53 53 54 57 57 57 50 39 34 20 11 29 39 45 44 33 38 39 43 43 39 39 41 40 43 44 36 35
51 51 52 52 51 51 52 51 51 52 52 52 52 53 53 53 53 53 52 52 53 57 56 56 57 48 38 34 36 19 30 37 43 45 39 38 38 40 41 38 37 37 39 38 37 35 34
51 52 51 51 51 51 52 52 52 53 53 53 53 53 53 53 52 52 51 52 53 56 54 55 51 44 36 41 28 29 23 37 43 46 45 40 39 39 39 36 31 29 29 32 34 34 33
51 51 51 51 51 52 52 53 52 53 53 53 53 53 52 52 52 51 51 52 54 55 53 50 47 41 37 29 27 24 23 34 43 44 43 40 39 37 36 35 29 27 25 27 29 32 33
51 51 51 51 51 51 52 52 51 52 53 53 53 52 52 52 51 50 47 34 37 44 47 40 38 35 31 30 26 21 21 35 41 43 38 39 36 36 30 36 33 28 25 25 28 31 30
50 50 50 51 51 51 51 52 52 53 53 53 53 52 52 51 50 50 41 28 31 31 28 25 21 20 32 31 29 19 28 31 34 39 35 31 32 30 29 23 27 28 27 25 26 27 30
50 50 50 52 52 52 53 53 53 53 53 53 52 52 51 50 50 39 32 29 30 31 26 18 17 17 16 31 31 28 19 26 31 37 33 24 22 23 18 16 17 21 22 24 24 26 27
50 51 52 52 52 53 53 53 53 53 53 52 52 52 50 50 41 30 28 29 30 32 23 12 17 17 16 23 30 31 14 22 28 33 35 25 21 19 17 15 15 14 16 19 21 23 24
50 51 52 52 53 53 53 53 53 53 53 52 52 51 50 48 40 32 29 26 30 31 11 14 18 24 20 20 21 28 20 20 23 24 28 26 20 19 19 17 16 16 15 17 19 21 25
50 51 51 52 52 52 53 53 53 52 52 52 51 50 49 36 31 26 26 25 30 23 12 15 16 19 21 19 20 24 26 17 24 22 23 22 19 17 19 19 17 18 16 16 16 15 19
50 51 51 52 52 53 53 53 52 52 51 51 49 48 47 36 26 24 26 24 16 9 10 21 21 19 18 21 22 23 25 16 18 20 19 21 20 19 19 19 19 19 16 13 11 10 14
50 51 52 53 53 52 53 53 52 51 51 50 48 47 43 30 25 25 27 19 13 8 21 25 24 24 22 21 21 22 24 25 17 16 15 18 17 19 19 20 20 20 16 12 17 9 8
51 51 52 53 52 52 53 53 52 51 50 49 48 30 28 24 25 26 23 12 8 16 23 21 22 22 20 21 20 23 23 23 21 16 18 19 20 19 19 18 21 21 18 13 10 10 7
50 50 52 52 52 52 52 52 52 51 50 48 41 29 27 24 27 25 20 17 20 20 17 17 20 24 26 24 21 22 22 22 23 21 24 25 23 20 19 19 20 21 19 13 13 19 17
51 51 51 52 52 52 52 52 52 51 50 48 38 21 26 25 25 19 11 15 16 14 15 16 17 21 25 27 30 25 22 25 25 25 26 25 24 24 22 20 20 19 19 18 13 13 14
51 51 52 52 52 52 52 52 52 51 50 42 29 21 27 26 17 14 15 14 23 13 19 19 23 20 22 26 30 29 26 29 27 30 28 25 25 25 21 19 20 20 20 22 16 25 14
51 51 51 51 52 52 52 52 51 50 50 41 31 25 25 22 15 16 19 15 18 21 18 22 21 28 31 27 29 34 33 31 27 30 33 30 27 26 25 19 21 19 18 19 19 18 25
51 51 51 51 52 52 52 52 51 51 50 44 32 23 22 21 19 20 21 20 18 17 18 18 28 28 28 26 25 30 33 31 27 27 41 38 30 29 23 26 22 22 18 18 18 18 19
50 50 51 51 52 52 52 52 52 51 50 44 32 26 28 23 22 24 23 20 23 19 19 20 33 30 27 28 28 34 35 32 28 35 32 31 33 31 27 25 22 21 18 18 20 22 20
50 50 50 51 51 52 52 52 52 51 50 41 34 31 30 29 27 25 26 24 18 21 22 19 22 24 23 30 30 29 34 32 32 32 30 30 31 33 30 25 26 24 22 20 19 20 21
50 50 50 51 51 52 52 52 51 51 48 44 43 40 39 33 26 25 24 22 19 23 26 25 23 21 20 25 27 26 28 28 27 28 30 31 29 32 30 29 28 26 25 24 22 22 22
50 50 50 50 51 51 51 52 51 51 50 49 47 45 40 32 26 24 24 25 25 24 24 23 23 25 26 25 25 25 23 22 23 24 25 29 33 32 28 31 27 28 27 25 25 25 24
50 50 50 50 51 51 51 51 51 51 50 50 49 45 41 36 30 28 26 25 27 28 26 24 22 25 27 25 23 25 19 21 19 19 21 25 28 28 26 26 26 25 27 27 27 27 27
50 51 51 50 50 51 50 51 51 51 51 51 49 49 43 38 32 32 31 29 27 27 29 27 27 26 26 25 21 24 17 18 16 18 19 21 26 25 26 25 26 27 26 26 29 27 30
50 51 51 51 51 51 51 50 51 52 52 51 50 50 45 38 38 35 34 33 33 32 29 28 28 26 26 29 25 19 13 21 15 18 20 19 23 22 23 24 25 29 33 32 30 45 48
51 51 51 52 51 51 51 51 52 52 52 52 50 50 45 40 39 39 38 36 35 32 32 30 30 29 25 30 27 23 13 25 22 19 20 21 20 21 23 23 23 25 25 34 43 45 47
51 51 51 51 52 51 50 51 52 52 53 52 49 50 50 44 40 41 41 40 39 36 35 37 32 32 31 33 38 35 22 22 24 18 20 21 25 19 22 23 31 32 32 31 34 39 42

GFSGBSN_sfc_dewp_030.txt.gz
Dewpoint
53 53 52 52 52 52 52 52 52 52 52 52 52 53 54 54 53 53 54 54 54 53 53 54 54 54 51 40 29 30 69 66 46 30 34 34 41 47 47 46 44 42 52 51 55 54 39
52 52 52 52 52 52 52 52 52 52 53 53 53 54 54 54 54 54 54 54 54 53 55 57 55 54 44 36 35 33 44 46 33 29 33 32 37 44 47 45 41 42 42 47 50 51 40
52 52 52 52 52 52 52 52 52 52 52 53 54 54 54 54 54 54 53 53 52 53 57 58 57 52 39 35 34 20 31 43 36 33 30 30 33 39 45 44 43 39 39 41 42 42 37
52 52 52 52 52 52 52 52 52 53 53 54 54 54 54 54 53 53 52 52 52 53 58 57 58 51 38 38 39 36 13 32 34 38 34 30 33 36 39 43 41 37 36 37 41 41 37
52 52 51 52 52 53 53 53 53 53 53 53 53 54 54 53 52 52 51 52 52 55 56 55 53 46 38 46 37 35 23 21 34 40 39 32 32 33 35 38 38 36 33 35 38 39 36
51 51 51 52 52 53 53 53 53 53 53 53 53 53 53 52 52 51 51 51 53 55 55 51 49 44 40 33 33 33 30 22 31 37 39 37 35 31 32 33 35 34 32 32 35 37 34
51 51 51 52 52 53 53 53 54 54 53 53 53 53 53 52 51 50 47 31 25 40 29 36 39 35 31 34 29 28 30 21 31 38 37 39 35 32 30 33 34 34 30 27 29 32 33
51 51 52 52 53 54 54 53 53 53 53 53 53 53 52 52 51 50 43 27 24 24 23 22 23 23 30 36 29 26 27 22 32 36 39 37 35 34 32 32 32 32 30 26 26 26 29
50 51 53 53 53 53 53 53 53 53 53 53 52 52 51 51 50 39 26 26 23 24 22 19 17 17 17 21 27 27 24 23 27 34 38 35 34 34 32 32 27 31 30 28 25 25 27
51 53 53 53 53 53 53 53 53 53 52 52 52 51 50 50 39 34 25 21 20 23 18 11 11 11 13 11 19 31 21 22 29 30 37 35 33 31 31 29 28 25 29 26 25 24 22
52 53 53 53 53 53 53 53 53 52 52 51 51 50 50 49 39 31 21 18 19 24 12 12 11 21 12 9 14 23 28 22 29 26 32 35 30 26 25 26 23 19 17 21 21 23 23
52 52 52 53 53 53 53 53 53 52 52 51 51 50 49 38 34 26 19 18 21 17 9 16 19 23 17 10 9 19 29 22 29 24 27 33 33 25 19 19 16 15 13 14 15 16 21
51 52 52 53 53 53 53 53 52 52 51 51 50 48 47 40 29 19 19 19 10 10 9 15 21 21 22 21 11 12 26 26 20 23 27 28 30 29 21 18 18 15 13 14 14 14 15
51 51 53 53 53 53 53 53 52 52 51 50 48 47 45 35 23 20 20 15 11 8 19 20 17 17 20 22 21 15 20 24 18 19 21 22 21 25 19 18 19 16 13 14 19 14 11
51 52 52 53 53 52 53 52 52 51 51 49 47 38 32 28 19 24 20 12 19 21 19 14 14 16 23 26 27 24 19 23 21 18 24 21 21 22 21 17 18 19 17 14 12 12 9
51 51 52 53 52 52 53 52 52 51 50 48 42 38 35 26 19 23 18 16 17 17 13 11 14 14 18 19 24 28 27 21 23 19 20 24 22 19 20 19 18 19 19 15 15 20 18
51 51 52 52 52 53 53 53 52 52 50 49 40 27 25 23 22 20 12 11 14 12 14 16 13 13 20 30 29 29 30 29 28 24 22 19 22 20 21 21 19 18 19 18 15 15 15
52 52 52 52 52 53 53 53 52 51 50 44 37 28 25 22 17 13 11 14 23 22 19 15 13 14 25 28 30 32 34 38 36 30 28 22 17 22 23 21 20 18 20 22 19 26 18
51 52 52 52 53 53 53 52 52 51 50 43 35 31 26 21 15 14 16 13 11 23 21 15 15 19 21 24 29 34 36 39 35 32 33 33 26 24 25 22 21 20 19 21 20 19 28
51 51 52 52 52 53 53 52 52 51 51 45 37 28 28 27 22 20 18 15 18 22 28 18 15 22 21 23 25 33 34 37 35 33 47 38 32 30 24 27 24 24 19 20 19 20 22
50 50 51 51 52 52 52 52 52 51 51 44 38 30 31 26 25 24 22 23 28 22 25 17 21 25 21 20 25 26 30 30 34 39 33 32 33 31 26 25 23 19 19 19 22 24 23
50 51 51 52 52 52 52 52 52 52 50 40 42 41 38 34 31 25 25 26 23 19 16 16 21 21 18 19 24 26 29 29 35 32 29 31 32 34 31 28 27 25 20 19 18 18 20
50 50 50 51 52 52 52 52 52 51 50 42 45 40 42 35 30 27 26 23 20 23 23 19 26 18 16 18 24 22 21 22 26 28 27 30 32 33 32 32 29 27 25 21 20 19 19
51 50 50 50 50 51 52 52 52 51 51 51 47 44 38 34 30 29 29 29 26 25 23 22 23 25 24 23 21 19 18 20 22 24 24 27 32 33 30 33 29 29 29 27 22 21 21
51 51 50 51 50 51 51 51 51 52 51 52 50 44 39 36 33 32 30 31 32 29 25 25 26 32 24 23 21 22 18 20 19 20 21 25 28 28 29 29 31 29 30 28 27 26 25
51 51 52 51 51 51 51 50 51 52 51 53 50 48 43 37 35 34 36 33 34 32 26 25 33 30 25 20 21 24 20 25 14 15 20 21 28 26 30 28 27 31 29 28 28 27 44
51 51 52 51 51 51 51 51 52 52 52 53 50 50 44 38 39 37 35 37 37 36 35 27 30 27 31 33 25 20 19 23 18 16 19 20 24 23 25 27 29 37 32 30 29 44 49
51 51 52 52 51 50 51 51 52 52 52 53 51 51 45 41 39 40 39 37 38 35 34 32 31 35 37 35 34 34 30 25 22 25 25 21 23 23 25 26 28 32 34 37 46 45 44
51 51 51 51 51 51 51 52 52 52 52 53 49 51 50 44 41 42 42 41 41 39 38 36 33 32 30 33 37 32 26 24 28 21 27 24 26 23 25 26 43 35 35 35 36 39 39

GFSGBSN_sfc_dewp_033.txt.gz
Dewpoint
53 53 53 53 53 53 52 52 53 53 53 53 53 54 55 55 54 54 54 55 54 53 54 55 56 54 52 44 37 35 69 69 54 47 33 26 31 40 41 48 49 47 53 50 48 50 50
53 53 52 52 52 52 53 52 52 53 53 54 54 55 55 54 54 54 54 54 54 53 53 56 57 53 49 38 39 36 48 55 47 38 30 27 32 38 43 45 47 46 50 49 51 49 50
52 52 52 52 52 53 53 53 53 54 54 54 55 54 54 54 54 54 54 53 53 52 53 57 57 53 46 34 35 36 42 46 39 33 26 27 33 32 42 45 48 46 43 50 50 48 48
52 52 52 52 52 54 54 54 54 54 54 54 54 54 54 54 54 53 53 52 52 52 53 57 57 53 47 41 41 38 37 42 34 32 27 28 33 31 32 41 44 44 42 40 48 49 48
51 51 52 52 53 54 54 54 54 54 54 54 54 53 53 53 53 52 51 51 53 55 54 55 54 52 42 46 40 39 38 37 37 34 32 29 30 28 28 35 37 39 39 36 36 40 41
51 51 52 52 53 54 54 54 54 54 54 53 53 53 53 52 52 51 51 51 52 54 56 53 51 48 44 29 35 37 36 29 33 32 35 31 31 27 29 31 32 37 37 35 34 36 40
51 52 52 52 53 54 54 54 54 54 54 53 53 52 52 51 51 50 48 40 22 32 29 19 20 30 22 36 34 36 34 32 21 31 35 36 32 28 28 30 32 37 37 34 34 35 37
51 52 53 53 54 54 53 54 54 54 53 53 52 52 51 51 51 49 46 21 18 19 15 17 19 20 21 22 26 30 35 30 19 28 33 35 33 33 32 30 30 32 34 35 33 30 34
51 52 53 54 54 53 53 53 53 53 53 52 52 51 51 50 49 44 33 19 18 17 16 16 16 16 18 17 19 25 30 30 18 25 31 34 35 36 35 30 28 29 31 32 32 30 27
53 53 53 53 53 53 53 53 53 53 52 52 52 51 50 49 40 35 28 20 17 17 18 13 11 14 15 17 15 23 28 28 25 22 31 35 36 36 35 32 30 28 31 32 31 30 26
53 53 53 53 53 53 53 53 53 52 52 51 51 51 49 49 42 36 32 17 17 19 8 8 19 22 18 13 10 12 24 26 25 22 30 33 36 36 34 33 32 30 29 29 30 29 25
53 53 53 53 53 53 53 53 53 52 51 51 51 50 49 42 40 37 26 19 19 17 9 8 19 16 14 15 19 10 19 26 25 23 26 31 38 36 35 33 32 32 30 24 28 26 21
52 53 53 53 53 53 53 53 52 52 51 51 49 48 48 42 36 31 31 21 14 10 16 17 16 13 13 20 24 24 12 22 22 19 20 28 29 36 32 30 29 28 23 17 15 18 17
53 53 53 53 53 53 53 53 53 52 51 50 48 48 47 40 39 35 24 22 15 13 16 18 15 12 15 20 23 26 27 17 27 19 25 26 23 28 33 27 21 22 19 14 13 13 13
53 53 53 53 53 53 53 53 52 52 51 49 48 42 39 37 39 28 22 18 13 17 14 11 10 10 14 17 23 27 29 29 23 22 21 24 23 27 29 28 23 19 15 14 13 19 15
53 53 53 53 53 53 53 53 52 52 51 49 45 41 39 37 27 25 23 22 15 13 14 15 13 14 13 21 25 26 29 33 38 35 27 19 20 26 28 30 23 19 17 13 12 14 13
52 53 53 53 53 53 53 53 53 52 51 50 41 37 29 24 24 23 18 15 12 10 18 16 15 14 11 26 27 25 28 34 38 36 34 32 19 16 24 26 26 16 18 14 15 17 16
53 53 53 53 53 53 53 53 52 51 50 44 39 34 35 28 21 22 15 14 22 13 24 22 23 11 16 18 23 23 31 36 38 35 30 33 30 17 18 23 24 20 17 16 14 16 17
52 52 52 52 52 53 53 53 52 51 50 46 39 37 36 31 21 21 21 18 15 26 26 22 22 20 15 27 29 32 32 33 37 34 30 37 30 21 17 18 20 19 17 17 19 23 20
52 52 52 52 52 52 53 52 52 51 51 47 40 33 34 33 30 27 24 21 22 24 25 23 20 18 23 25 27 31 30 30 34 32 43 38 31 29 22 19 22 19 19 17 19 17 17
51 51 51 52 52 52 52 52 52 51 51 46 37 34 37 32 32 32 30 26 24 24 26 21 21 23 22 23 19 28 27 27 27 35 34 31 28 32 32 28 26 24 19 19 17 20 19
51 51 51 52 52 52 52 52 52 51 51 44 38 39 39 37 36 30 31 29 25 25 23 21 20 21 21 21 25 24 24 24 28 30 28 27 28 32 34 30 27 26 20 20 18 19 22
51 51 51 51 52 52 52 52 52 51 50 41 45 41 41 38 33 30 30 30 29 28 27 24 21 19 22 23 27 23 20 19 22 24 26 26 26 30 31 33 32 30 29 20 20 20 20
51 51 50 51 51 52 52 52 51 51 51 50 48 45 38 34 34 31 30 30 33 32 31 29 25 30 29 32 30 24 20 20 18 20 28 26 24 30 32 33 29 32 34 32 21 24 20
51 51 51 51 51 51 51 50 51 52 52 50 51 44 38 34 36 34 31 33 35 34 34 30 28 35 33 30 25 18 21 23 21 20 26 26 24 27 31 31 32 32 33 32 28 41 46
51 51 52 51 51 50 50 51 52 52 52 52 51 48 42 35 35 37 36 35 34 37 33 34 33 32 32 29 29 22 23 24 26 19 26 23 25 29 29 32 31 32 35 38 36 42 45
51 51 52 51 50 50 51 51 52 52 52 52 51 49 44 37 39 40 39 38 40 38 37 35 35 34 40 34 28 25 25 26 24 27 24 23 25 24 26 29 37 34 36 43 36 42 43
51 51 51 51 51 51 52 52 52 52 52 52 50 50 45 40 40 40 41 41 41 40 37 38 35 36 38 33 34 34 33 29 28 30 30 26 28 26 27 30 34 35 33 39 43 39 40
51 51 51 52 51 51 52 52 52 52 52 52 49 51 50 44 42 45 44 44 44 43 41 40 39 37 35 34 35 32 26 31 26 31 32 31 34 34 31 36 35 41 37 35 36 37 37

GFSGBSN_sfc_dewp_036.txt.gz
Dewpoint
53 53 53 52 52 53 53 53 53 54 53 53 53 55 55 55 55 54 54 54 54 53 53 54 55 55 52 46 39 39 64 67 56 47 39 34 28 34 41 46 51 53 54 55 54 53 50
52 52 52 53 53 53 53 53 53 53 53 54 54 54 54 54 54 55 55 54 54 53 53 53 56 54 49 36 36 39 49 57 47 44 37 32 28 29 39 41 48 50 51 51 51 50 49
52 52 52 53 53 53 53 53 53 53 53 54 54 54 54 53 54 54 54 53 53 53 54 53 57 52 49 35 32 35 46 52 47 40 36 32 28 32 34 41 41 43 47 47 50 49 49
52 52 53 53 53 53 53 53 54 54 54 54 54 54 53 53 53 53 53 52 53 56 55 53 58 52 46 47 46 43 40 37 46 41 30 32 28 30 32 32 31 43 44 44 48 48 48
52 52 53 53 53 54 54 54 54 54 54 54 54 53 53 53 52 52 51 51 53 55 55 57 53 51 46 51 46 43 39 37 38 37 31 27 28 30 31 28 27 36 37 41 43 49 48
52 52 53 53 53 54 54 54 54 54 54 53 53 53 53 52 52 51 50 52 52 55 55 54 53 48 42 30 30 27 39 38 35 32 30 27 26 28 28 27 25 32 38 38 39 39 47
52 52 52 53 53 54 54 54 54 54 54 53 53 53 52 52 51 50 49 35 16 17 18 15 16 35 26 22 18 28 32 36 37 33 31 31 26 26 25 27 29 34 36 37 37 38 35
52 52 53 53 53 54 54 54 53 53 53 53 52 52 52 51 50 50 45 19 17 17 14 15 15 16 17 18 17 17 29 31 30 30 31 35 29 28 31 28 28 30 31 36 38 39 35
52 53 53 54 54 54 54 53 53 53 53 52 52 52 51 50 50 40 36 28 23 18 14 16 16 16 16 18 18 16 22 31 29 25 29 32 34 34 32 30 28 29 29 31 35 36 33
52 53 54 54 54 54 53 53 53 53 52 52 52 51 50 50 37 40 36 31 24 18 16 17 18 18 16 16 16 23 16 26 30 21 23 29 35 33 34 31 29 27 29 30 31 32 31
52 53 54 54 54 54 53 53 53 53 52 51 51 50 49 49 42 39 32 35 30 21 2 18 18 20 14 19 22 24 29 23 26 27 21 25 29 34 31 33 33 29 30 29 30 31 30
53 53 53 53 54 53 53 53 53 52 52 51 50 49 49 43 42 41 38 33 20 13 11 14 16 13 10 17 19 26 26 30 26 26 26 21 33 34 34 34 35 34 31 30 30 29 27
52 53 53 53 54 53 53 53 53 52 51 50 49 48 48 45 30 34 36 25 12 8 16 14 12 13 10 16 18 24 26 29 28 23 23 25 24 29 36 35 35 34 30 28 25 24 24
52 54 54 53 53 53 53 53 53 52 51 50 48 48 47 44 43 40 30 21 15 13 15 14 16 13 13 15 20 23 24 25 36 35 22 22 21 25 30 35 34 33 29 28 25 21 21
53 53 53 53 53 53 53 53 53 52 51 49 48 43 41 39 40 37 22 17 14 11 13 14 15 14 14 21 22 24 24 26 32 35 32 22 20 25 27 32 35 29 30 23 15 26 14
52 53 53 53 53 53 53 53 53 52 51 50 43 42 39 39 34 23 20 22 17 11 17 16 14 16 14 22 22 24 25 26 29 34 35 31 25 21 23 29 32 30 23 19 15 14 16
52 52 53 53 53 53 53 53 53 52 51 50 41 37 37 33 24 21 16 17 14 23 23 21 21 21 15 19 23 25 24 27 34 34 35 32 31 23 22 25 26 27 21 18 18 16 13
51 52 53 53 53 53 53 53 52 51 50 46 40 35 37 34 21 21 19 19 27 26 27 23 23 21 17 27 23 23 23 32 32 34 35 34 35 32 23 20 24 28 21 17 14 13 17
52 52 53 52 52 53 53 52 52 51 51 45 39 38 38 32 26 27 26 27 23 26 27 26 22 20 21 28 26 28 30 31 32 34 37 39 35 30 23 18 19 18 27 17 16 16 15
52 51 52 52 52 52 52 52 52 51 51 44 38 33 35 35 33 31 31 30 27 26 25 24 22 21 22 23 28 28 29 30 30 29 39 41 31 31 27 24 27 19 20 21 15 15 14
51 51 51 51 52 51 52 52 52 51 51 44 37 33 37 32 33 34 33 31 29 28 27 24 23 24 21 20 20 27 24 24 27 36 37 36 27 26 27 28 30 30 24 23 17 16 15
51 50 50 51 51 52 52 52 52 51 50 42 36 34 37 36 36 34 32 30 31 33 32 26 29 25 19 21 24 25 24 25 28 31 33 32 25 25 25 33 33 27 27 27 17 18 19
51 50 50 51 52 52 52 52 52 51 50 42 41 40 40 38 35 34 31 31 31 32 36 34 33 29 25 25 27 28 29 28 27 30 31 28 25 25 27 32 31 30 31 28 19 19 19
52 51 51 51 51 50 50 51 52 52 51 48 46 44 38 34 36 36 37 35 34 35 34 33 34 32 32 30 31 29 26 24 21 24 28 27 26 25 27 31 28 32 33 36 41 41 41
52 51 51 51 51 50 50 51 52 52 52 49 48 45 39 34 37 37 37 38 37 36 35 36 34 37 37 32 26 23 24 24 24 25 25 28 25 24 27 30 31 34 35 33 36 39 39
52 52 52 51 50 51 51 52 52 53 52 51 50 48 41 36 35 38 38 38 36 37 36 34 37 37 38 32 28 22 27 32 33 31 23 33 26 24 25 30 31 35 36 40 41 37 39
52 52 51 50 51 51 52 52 52 52 52 51 49 48 43 37 39 40 37 37 39 38 37 38 38 35 38 35 32 32 31 36 32 34 30 32 27 24 28 34 35 37 37 37 36 38 39
52 52 51 51 51 51 52 52 52 52 53 52 50 50 45 40 40 43 42 41 41 40 36 39 37 35 34 32 32 33 33 33 33 36 35 35 34 31 34 34 35 42 39 34 35 36 36
51 51 51 51 51 51 52 52 52 53 53 52 48 51 50 44 43 46 45 46 45 44 41 40 36 34 37 32 34 34 33 34 30 31 36 33 36 35 36 38 42 47 45 40 39 37 40

GFSGBSN_sfc_dewp_039.txt.gz
Dewpoint
53 53 53 53 53 53 53 53 53 53 53 53 53 54 54 54 53 53 53 54 54 54 54 53 53 54 51 40 32 35 66 59 58 47 39 35 35 40 41 45 50 55 57 57 59 58 55
53 53 53 53 53 53 53 53 53 53 53 53 54 55 55 54 54 55 54 54 54 53 54 53 53 54 48 28 27 38 51 54 51 42 34 32 32 37 39 41 49 51 53 54 53 53 53
52 53 53 53 53 52 53 53 53 53 53 54 54 54 54 54 54 54 54 53 53 54 57 53 55 51 48 33 41 44 46 50 50 40 32 33 30 34 32 40 41 43 46 44 48 51 49
52 53 53 53 53 53 53 53 53 53 54 54 54 54 54 54 54 53 53 52 53 56 55 55 57 51 46 46 48 48 42 38 48 43 32 34 30 33 33 35 30 39 40 40 44 49 49
52 52 52 53 52 53 53 53 53 54 54 54 54 53 53 53 53 52 51 52 53 56 57 57 52 49 44 50 37 37 39 35 45 43 38 31 28 26 31 30 28 29 35 41 42 47 49
52 52 52 52 52 53 54 54 54 54 54 53 53 53 53 52 52 51 51 52 51 57 55 54 52 42 34 17 19 19 31 39 37 40 34 29 26 24 28 28 30 29 35 37 38 42 48
52 52 52 52 52 53 54 54 54 54 54 53 53 52 52 51 51 51 49 21 19 15 16 14 13 28 19 20 19 19 18 32 34 33 28 28 23 21 19 26 29 32 36 37 39 41 42
52 52 53 53 53 53 53 53 54 53 53 53 52 52 51 50 50 51 42 22 22 20 14 15 15 15 16 17 17 18 19 31 36 30 31 29 23 22 23 27 28 27 28 33 36 37 37
52 53 53 53 53 54 54 53 53 53 53 52 52 51 50 50 50 42 37 31 26 18 16 15 16 16 13 17 18 23 28 23 25 33 30 29 30 27 28 25 26 26 25 29 33 36 37
53 53 54 53 54 54 54 53 53 53 52 52 51 51 50 50 36 40 32 32 35 22 15 13 17 16 12 21 19 23 28 24 23 28 30 30 31 30 26 29 27 25 28 29 30 32 31
53 53 53 54 54 54 53 53 53 53 52 51 51 50 49 50 39 33 29 36 35 19 1 18 15 18 12 18 19 22 27 29 26 23 23 26 29 30 29 28 30 28 29 30 30 30 31
53 52 53 53 53 53 53 53 53 52 52 51 51 49 49 44 42 40 38 33 18 10 5 16 15 14 13 16 20 24 25 30 32 32 25 23 24 29 29 32 32 33 30 30 30 29 26
52 53 53 53 53 53 53 53 53 52 52 51 49 48 48 46 27 39 34 23 10 7 15 13 14 15 14 19 20 23 23 34 33 32 28 27 23 27 31 30 33 33 29 27 26 26 26
52 52 53 53 53 53 53 53 53 52 51 50 48 48 46 45 43 39 25 17 12 12 14 14 15 15 14 24 23 24 24 26 34 34 33 29 23 26 23 32 31 32 32 29 25 26 27
52 52 53 53 53 53 53 53 53 52 51 50 48 42 40 39 40 34 20 16 14 12 13 15 14 15 15 24 21 24 24 26 33 37 32 31 29 31 25 25 33 33 32 32 24 21 20
52 52 52 52 53 53 53 53 53 52 51 50 43 40 39 37 34 24 18 21 18 22 20 18 17 18 17 19 21 24 24 25 28 36 36 33 29 31 29 24 29 34 32 29 23 21 19
51 51 52 52 53 53 53 53 53 52 51 49 39 36 37 39 24 20 16 17 17 24 23 21 21 20 17 20 24 25 24 24 29 31 35 36 32 31 33 23 22 26 29 32 30 21 21
52 52 52 53 53 53 53 53 52 51 50 44 37 24 35 31 26 24 20 22 26 25 27 24 23 22 18 24 24 22 26 30 32 37 33 35 36 33 33 32 32 25 28 21 28 25 17
52 52 52 52 52 53 52 52 52 51 51 45 38 35 40 34 29 28 30 31 26 26 25 26 23 22 20 25 24 28 29 30 37 33 35 37 36 27 25 25 23 19 27 24 23 21 18
51 51 50 51 52 52 52 52 52 51 51 42 38 32 35 34 34 30 32 32 29 30 27 27 23 23 21 23 26 25 27 30 34 32 39 41 35 29 26 27 28 27 28 26 19 16 18
51 50 50 50 51 51 52 52 52 51 51 42 35 31 35 29 31 32 34 33 29 31 33 31 24 25 24 19 20 22 26 25 32 37 37 38 31 28 29 28 27 26 26 27 20 18 15
51 51 50 51 51 51 51 52 51 51 49 41 35 34 34 35 36 34 33 30 30 30 33 34 33 33 31 22 21 21 24 25 29 33 33 37 30 26 25 25 25 25 29 32 31 19 17
51 51 51 51 51 50 50 51 52 51 49 43 40 41 40 37 36 35 35 36 36 38 37 36 35 33 29 28 28 27 27 27 29 33 33 33 31 25 24 28 30 30 32 35 32 39 33
51 51 51 51 50 50 50 51 52 52 51 48 46 44 39 34 37 37 37 38 37 38 36 37 36 34 33 34 33 31 30 29 29 30 30 30 32 26 24 28 29 32 37 36 39 38 40
51 51 51 50 50 51 51 52 52 53 52 50 49 46 40 34 37 37 38 38 38 39 38 37 37 37 39 36 28 24 28 29 24 26 26 26 33 24 25 27 32 35 37 38 35 37 39
51 52 51 50 51 51 51 52 52 53 52 51 49 49 42 37 36 39 38 38 36 36 37 35 37 39 38 36 30 26 26 33 28 32 27 35 35 33 24 33 31 36 41 39 38 35 35
51 51 50 51 51 51 51 52 52 52 53 51 49 49 43 37 39 40 38 37 39 37 34 38 37 36 37 34 31 30 30 34 32 31 32 34 34 29 28 37 36 39 42 36 32 33 37
51 51 51 51 51 51 52 52 52 53 53 51 49 50 45 40 40 42 42 41 41 40 36 36 33 35 34 32 32 32 31 33 34 34 34 33 33 34 37 36 34 41 41 36 37 39 39
51 50 51 51 51 51 52 52 53 53 53 51 47 51 50 44 43 46 45 46 45 46 42 41 39 37 36 33 34 34 33 35 32 28 36 33 35 35 37 37 42 46 46 41 38 37 38

GFSGBSN_sfc_dewp_042.txt.gz
Dewpoint
53 53 53 53 53 52 52 53 53 53 53 53 53 54 54 54 54 54 55 54 54 54 54 54 53 55 50 36 27 38 60 59 56 56 52 45 49 42 50 55 52 58 59 58 59 59 57
52 52 53 53 53 52 52 53 53 53 53 53 54 54 54 54 55 55 55 55 54 54 55 54 54 54 46 21 27 45 55 54 54 49 43 37 47 41 42 46 52 51 53 55 55 55 54
52 52 53 53 52 52 53 53 53 53 53 53 53 54 54 54 54 54 54 54 53 55 57 55 55 51 46 35 44 47 49 53 51 44 37 35 34 39 36 39 42 48 45 44 44 51 52
52 52 52 52 52 53 53 53 53 53 53 54 53 53 53 53 53 53 53 53 54 56 55 56 55 50 42 46 48 49 42 39 49 48 34 33 30 35 34 35 31 38 40 40 44 45 48
52 52 52 52 53 53 53 53 53 53 54 54 53 53 53 53 52 52 52 52 53 57 56 57 52 46 28 45 29 20 29 35 47 46 43 32 29 28 31 31 31 29 38 39 43 46 49
52 52 53 53 53 53 54 54 54 54 54 53 53 53 52 52 52 51 51 52 58 57 56 54 52 35 23 16 18 19 24 41 44 42 40 33 27 24 27 30 31 31 32 38 41 42 48
53 53 53 53 53 53 53 54 54 54 53 53 53 52 52 51 51 51 49 27 24 23 21 14 14 19 17 16 20 25 22 30 37 35 33 28 24 21 21 30 33 33 36 37 39 40 47
53 53 53 53 53 53 53 53 54 53 53 53 52 52 51 51 51 51 42 25 27 27 21 16 16 15 16 17 17 23 29 29 35 32 29 26 23 23 20 21 28 29 27 31 35 39 42
53 53 53 53 53 54 54 54 53 53 53 52 52 51 51 50 51 40 35 25 26 18 15 15 16 15 15 17 20 22 27 27 21 31 30 26 25 24 22 24 21 24 27 27 33 35 38
53 53 53 53 53 54 54 53 53 53 52 52 52 51 50 50 33 38 25 32 36 26 11 11 16 15 16 20 14 25 26 28 22 26 32 30 29 27 22 22 25 22 26 29 27 31 30
53 53 53 54 53 53 53 53 53 53 52 52 51 51 49 49 38 30 28 38 32 16 3 18 15 17 16 15 16 19 26 29 27 27 24 29 30 29 28 21 24 20 26 27 28 30 30
52 52 52 52 52 53 53 53 53 52 52 52 51 50 49 43 41 40 39 35 18 8 6 16 16 15 16 18 22 24 26 36 36 34 31 25 24 26 30 29 25 30 30 29 30 29 26
52 52 52 52 52 53 53 53 53 52 52 51 50 49 48 45 33 37 38 19 9 5 14 13 14 15 16 22 24 24 29 34 32 25 31 32 29 22 23 28 28 31 27 26 25 26 26
52 52 53 53 53 53 53 53 53 52 52 51 49 47 44 45 43 43 23 16 12 11 14 15 15 15 16 22 23 25 22 31 35 33 32 30 23 26 25 25 29 29 29 27 24 24 25
52 52 52 53 53 53 53 53 52 52 51 50 48 41 39 38 36 31 20 14 13 11 15 16 14 16 16 22 20 23 24 29 36 35 31 29 30 32 31 29 27 30 29 30 27 24 25
52 52 52 52 53 53 53 53 52 52 51 50 42 37 38 39 33 25 20 21 17 22 21 18 14 17 17 17 21 23 22 25 34 36 35 33 29 31 32 33 29 31 32 29 28 27 20
52 52 52 52 53 53 53 53 52 52 51 49 38 29 34 39 25 20 19 17 17 24 24 19 18 18 19 18 23 25 22 27 30 34 35 35 34 29 32 31 25 27 32 32 29 27 26
52 52 52 52 52 52 53 53 52 51 50 45 35 13 27 34 28 27 24 27 30 24 26 24 22 21 20 23 23 23 25 27 36 36 33 35 36 31 30 33 35 34 29 32 30 27 23
52 52 52 52 52 52 52 52 52 51 51 46 37 37 39 34 28 28 31 32 31 26 25 25 23 22 20 22 22 26 28 32 37 36 34 36 33 28 28 27 27 29 28 28 25 31 28
51 51 51 51 52 52 52 52 51 51 51 42 38 30 33 34 33 29 32 31 30 31 31 32 25 23 21 22 27 22 26 33 36 34 37 39 35 31 25 25 28 27 27 26 26 25 30
51 51 51 51 51 50 51 51 51 51 50 42 35 30 36 29 30 35 35 32 31 31 34 34 29 31 31 23 20 24 25 26 34 36 36 35 32 32 30 32 31 29 27 26 26 25 27
51 50 51 51 51 50 50 52 52 51 49 39 35 34 34 35 35 34 35 34 33 34 36 34 35 33 34 34 29 24 23 24 26 34 35 37 31 34 29 28 27 26 26 26 26 28 22
51 50 50 50 50 50 51 51 52 51 49 43 40 41 40 36 35 34 35 36 35 38 37 38 38 37 36 34 32 28 25 27 30 33 34 35 33 30 23 26 26 25 28 35 39 40 38
51 50 50 50 50 51 52 52 52 52 51 48 46 45 39 34 35 36 37 38 37 38 37 38 39 37 38 38 37 36 33 31 29 30 34 33 33 32 25 25 27 36 39 39 37 36 40
51 51 50 50 51 51 51 51 52 52 52 49 49 46 41 34 37 37 38 37 38 38 38 38 38 39 39 36 33 24 25 27 27 29 30 34 34 29 24 24 34 35 38 39 38 36 37
51 51 50 51 51 51 51 52 52 53 52 51 49 49 43 38 36 39 38 39 36 36 37 36 36 39 38 36 33 27 23 30 28 29 32 35 36 32 30 28 34 37 39 42 40 35 38
51 50 51 51 51 51 52 52 52 52 52 51 49 49 43 38 40 40 38 38 39 38 34 37 36 36 37 34 30 29 28 32 29 30 31 32 33 28 31 31 38 40 42 39 34 35 39
51 50 50 51 52 52 52 52 52 53 53 50 47 49 46 41 41 42 42 42 41 40 34 37 34 36 36 33 32 31 31 33 33 33 33 33 32 34 35 36 35 43 39 36 38 38 37
49 49 51 51 52 52 52 52 53 53 53 50 47 51 50 44 43 45 45 46 45 45 43 40 37 38 39 35 35 34 33 34 33 29 37 32 35 33 34 36 40 45 42 41 40 39 40

GFSGBSN_sfc_dewp_045.txt.gz
Dewpoint
53 53 53 53 53 53 54 53 53 53 53 53 53 53 54 54 54 54 54 54 55 55 55 55 54 54 51 32 21 40 61 59 55 56 55 46 52 49 43 51 55 58 58 58 58 57 57
53 53 53 53 53 53 53 53 53 53 53 53 53 54 54 54 54 54 54 54 54 54 56 56 53 54 46 17 33 44 53 54 52 55 49 47 44 48 46 53 49 50 56 56 55 55 55
53 53 53 53 53 53 53 53 53 53 53 53 54 54 54 54 53 53 53 53 53 55 56 55 55 51 40 31 41 45 47 51 52 52 46 44 45 42 41 37 46 49 49 47 48 48 51
52 53 53 53 53 53 53 53 52 53 53 53 53 53 54 53 53 53 53 52 53 55 55 56 56 51 33 42 45 36 41 46 49 50 37 39 39 43 35 35 32 34 38 36 44 48 48
53 53 53 53 53 53 53 53 53 53 54 54 53 53 53 53 53 53 52 53 53 56 57 56 52 48 15 37 19 21 24 36 47 49 38 33 33 33 34 33 31 35 22 31 36 46 48
53 53 53 53 53 53 54 54 54 54 54 53 53 53 53 52 52 52 52 52 59 58 56 54 49 30 17 14 17 21 27 45 44 39 32 31 33 28 28 27 19 27 26 37 35 45 47
53 53 53 53 53 53 54 53 53 53 53 53 53 53 52 51 51 51 47 34 25 24 25 16 15 17 14 16 19 20 28 41 39 31 22 30 23 24 23 27 24 33 34 29 40 43 45
53 53 53 53 53 53 53 53 53 53 53 53 53 52 52 51 51 51 40 28 30 30 22 18 16 16 16 17 19 17 28 33 39 34 28 25 21 22 21 22 27 25 31 33 37 39 44
53 53 53 53 53 54 54 53 53 53 53 53 52 52 51 51 51 40 32 29 33 23 18 14 15 14 15 18 20 18 26 28 30 34 33 27 24 24 23 20 20 24 23 30 31 32 37
53 53 54 53 53 53 53 53 53 53 53 52 52 51 51 50 37 37 28 33 38 29 13 14 15 14 15 18 15 20 27 28 24 28 33 32 32 25 22 20 19 16 19 25 30 31 33
53 53 53 53 53 53 53 53 53 53 53 52 52 51 50 49 39 29 31 39 29 19 3 16 14 17 17 14 18 18 29 30 26 27 29 30 31 31 30 25 22 19 20 19 20 29 32
52 52 52 52 52 52 53 53 53 53 52 52 51 51 50 44 40 35 39 32 22 13 4 14 14 13 16 20 23 22 32 35 35 31 33 28 30 28 31 30 24 23 22 23 21 17 20
52 52 52 52 52 53 53 53 53 52 52 52 50 49 48 45 35 38 39 22 12 6 15 13 12 14 18 19 20 21 32 32 28 10 22 24 20 25 25 27 28 28 26 23 21 20 13
53 53 53 53 53 53 53 53 53 52 52 51 49 48 44 44 41 40 26 20 13 11 13 15 13 15 14 17 21 20 25 28 32 31 28 22 -1 28 32 26 26 28 26 21 21 18 11
53 53 53 53 53 53 53 53 52 52 51 50 48 39 39 38 38 33 25 16 13 13 14 15 14 13 14 19 15 17 24 31 33 33 22 25 24 30 28 31 31 26 28 25 21 27 22
52 52 52 53 53 53 53 53 52 52 51 50 42 38 37 38 35 29 26 24 18 20 20 17 13 14 13 15 15 17 19 28 32 34 33 31 10 25 30 30 29 30 27 27 26 22 20
52 52 52 51 52 52 53 53 52 51 51 49 38 27 33 38 28 25 22 22 19 23 24 19 16 15 16 15 18 19 16 26 32 34 33 30 24 11 21 25 26 27 27 28 28 28 21
51 52 52 52 52 52 53 52 51 50 50 46 39 13 35 36 30 30 27 30 32 24 26 23 22 19 18 19 20 20 18 18 31 33 29 33 33 25 15 16 24 26 32 28 28 31 29
51 51 51 52 52 52 52 52 51 50 50 44 37 37 38 35 29 30 32 31 31 28 28 26 23 23 22 20 19 22 24 28 34 31 32 35 31 17 2 10 23 25 27 31 28 29 33
50 50 51 51 50 51 51 52 51 50 49 45 39 29 33 34 35 33 30 31 30 30 31 33 29 25 22 20 26 21 24 33 34 31 38 36 32 22 11 12 26 28 28 29 28 27 31
50 50 50 50 51 51 51 52 51 51 49 44 38 35 36 32 32 33 33 31 31 30 34 34 33 31 31 27 23 23 24 25 34 35 37 35 28 26 26 25 24 25 26 27 28 28 30
51 50 50 50 51 51 51 52 52 51 47 40 39 39 37 35 36 34 34 33 32 33 35 34 33 33 37 35 29 26 26 26 25 31 34 36 27 28 24 20 24 27 27 28 28 28 28
51 51 49 50 51 51 52 52 52 52 49 44 41 41 41 37 35 34 34 36 36 38 38 36 38 34 35 37 38 36 33 33 29 29 31 34 32 27 19 19 25 25 26 27 28 30 29
51 51 49 51 51 51 51 51 52 52 51 49 47 45 40 34 35 36 37 37 38 38 37 37 39 37 37 38 38 36 35 34 32 31 31 32 33 31 22 23 25 27 36 28 37 39 40
51 50 50 51 51 51 52 52 52 53 52 50 49 46 42 36 37 37 37 37 37 39 35 35 36 38 39 38 36 31 29 33 30 32 30 32 35 29 26 28 32 38 38 35 38 38 41
50 50 51 51 51 52 52 52 52 53 52 52 50 50 44 39 38 40 38 37 36 36 35 33 35 38 38 38 35 28 26 29 24 27 31 34 36 32 29 27 29 39 40 42 41 38 39
50 50 50 51 51 52 52 52 52 52 52 52 51 50 45 40 40 40 39 39 39 38 35 36 36 36 38 36 32 30 30 32 30 28 29 32 33 28 28 27 31 40 41 40 38 38 39
50 50 51 51 51 52 52 52 52 53 53 52 50 51 47 42 41 42 42 42 40 40 35 38 35 38 37 34 34 33 32 34 33 33 33 31 30 29 30 28 27 41 41 37 39 40 41
49 50 51 51 52 52 52 53 53 53 53 51 49 52 51 45 43 45 44 45 46 45 43 41 38 38 39 35 36 35 33 35 35 30 37 33 33 33 33 33 38 42 41 42 42 41 42

GFSGBSN_sfc_dewp_048.txt.gz
Dewpoint
53 54 54 54 54 54 54 54 53 54 53 54 54 54 54 54 54 54 54 55 55 55 55 56 55 55 50 32 18 36 62 62 52 53 52 48 46 43 38 40 44 49 52 56 56 55 54
53 54 54 54 54 54 54 53 53 53 53 54 55 55 55 54 54 54 54 54 54 54 57 57 54 55 43 19 34 36 49 50 46 52 50 44 43 39 36 36 38 39 44 55 55 54 54
53 53 54 54 54 54 53 53 53 53 53 54 54 54 54 54 53 53 53 53 53 55 56 55 55 50 26 23 30 32 40 47 47 46 45 40 38 38 32 34 39 39 44 44 49 52 52
53 53 54 54 54 53 53 53 53 54 54 54 54 54 54 54 53 53 53 53 54 55 55 55 56 49 25 26 31 23 33 46 48 48 43 42 40 36 32 31 26 30 30 35 42 46 49
53 53 53 53 53 54 54 54 53 54 54 54 54 54 53 53 53 53 53 53 55 56 57 57 49 41 17 34 19 23 26 41 43 44 40 41 38 36 35 26 20 21 19 27 36 46 48
53 53 53 53 53 53 54 54 53 54 54 54 53 53 53 53 52 52 52 52 58 57 53 50 43 28 16 16 17 25 36 43 41 44 32 30 32 28 27 22 16 17 18 24 29 43 48
53 53 53 53 53 53 53 53 53 53 53 53 53 53 53 52 52 52 47 38 37 24 19 17 16 15 13 18 18 27 35 40 40 42 31 25 25 23 20 23 19 24 23 23 32 39 46
53 53 53 53 53 53 53 52 52 52 53 53 53 53 52 52 52 52 41 27 30 30 19 16 16 15 15 18 16 19 33 37 32 31 29 24 21 21 23 20 22 19 27 30 31 36 43
53 53 53 53 53 53 53 53 53 53 53 53 53 52 52 51 51 42 28 30 35 32 19 14 16 14 14 17 16 15 25 29 34 27 24 23 21 19 19 21 21 21 18 21 29 35 36
53 53 54 53 53 53 53 53 53 53 53 53 53 52 52 50 41 32 28 33 36 34 14 15 15 14 14 17 15 16 23 26 27 31 30 23 22 23 20 20 19 17 16 17 19 28 31
53 54 53 53 53 53 53 53 53 53 53 53 53 52 51 50 39 28 34 36 30 24 1 15 14 15 15 12 15 15 25 21 21 24 31 28 28 27 26 24 21 20 17 16 17 17 29
53 53 53 53 52 53 53 53 53 53 53 53 52 51 50 45 40 34 36 33 25 14 4 13 13 12 13 16 16 15 22 26 29 19 27 27 30 28 28 28 26 25 23 21 20 14 11
53 53 53 53 53 53 53 53 53 53 52 52 50 50 47 42 34 36 37 24 12 4 13 13 11 12 14 14 15 15 21 19 16 10 16 20 23 27 28 28 29 27 23 20 18 14 9
53 53 54 54 53 53 53 53 53 53 52 51 49 48 44 39 37 36 33 19 13 10 11 14 12 12 12 14 16 14 18 16 23 20 11 8 7 18 28 27 27 28 24 23 23 13 10
52 53 53 53 53 53 53 53 53 51 51 50 49 38 36 34 36 37 26 14 10 14 13 13 13 13 13 15 14 14 17 18 22 22 14 13 9 26 25 29 30 28 25 24 23 22 17
52 52 52 52 53 53 53 53 51 50 50 50 40 36 30 35 34 31 23 21 18 18 17 16 16 16 15 14 16 16 14 23 22 24 21 22 9 11 19 22 26 30 26 24 23 25 23
52 52 52 52 53 53 52 52 51 50 50 49 36 29 31 35 30 27 21 24 23 21 22 20 19 18 17 16 16 17 15 21 24 25 25 20 15 12 12 5 11 23 26 27 25 24 23
52 52 52 52 51 52 53 52 51 51 49 46 35 19 33 36 30 31 27 30 32 24 23 23 22 21 19 19 19 20 18 17 25 25 19 24 20 19 10 5 10 14 27 26 23 28 26
50 50 50 51 52 52 52 52 51 50 50 43 35 31 35 35 30 30 31 29 30 28 27 27 24 23 23 22 21 19 19 17 25 23 22 26 21 16 4 3 10 12 14 24 28 29 30
50 50 51 51 51 52 52 52 51 51 50 44 36 31 34 35 35 33 31 30 28 29 29 31 30 29 26 24 22 22 20 23 26 23 34 26 18 19 7 8 12 20 21 22 26 26 27
50 50 50 50 51 52 52 53 52 51 50 44 37 34 35 31 31 32 32 31 29 30 30 30 30 30 31 30 26 23 23 24 26 30 32 29 29 22 18 17 16 14 10 18 26 30 29
51 50 50 50 51 52 52 53 52 52 50 41 37 38 36 34 35 33 33 32 31 34 34 31 32 31 35 37 31 28 29 27 26 30 30 29 28 23 19 17 17 14 10 9 17 24 28
51 51 50 51 52 52 52 52 52 51 50 41 41 41 41 36 34 35 34 37 36 36 36 36 36 37 35 37 38 39 35 37 37 32 32 33 31 27 18 15 12 10 12 15 14 21 26
51 50 51 51 51 52 52 52 52 52 50 46 46 46 41 34 36 35 37 34 34 36 35 34 35 36 35 37 37 35 35 35 34 31 27 32 34 33 20 16 17 15 15 16 17 18 26
51 51 51 51 52 52 52 52 52 52 52 50 50 47 43 38 37 35 38 36 35 36 35 33 33 35 36 35 35 35 28 29 28 28 29 31 35 30 27 23 20 21 23 28 19 20 28
51 51 51 51 52 52 52 52 52 52 52 52 51 51 46 41 37 39 38 38 36 36 37 33 35 37 38 39 37 30 30 30 26 26 26 31 35 34 30 24 22 27 34 35 38 31 42
50 50 51 52 51 52 52 52 52 52 52 51 51 52 46 43 39 40 39 39 39 38 37 37 36 36 39 37 34 33 32 35 30 31 30 33 36 31 28 27 27 28 34 37 36 39 43
50 50 51 51 52 52 52 52 52 52 53 51 50 52 49 44 41 40 41 41 41 41 38 39 36 39 38 35 35 35 34 35 33 35 32 31 31 30 31 28 25 38 37 37 44 43 43
50 51 51 51 51 52 52 53 52 52 53 51 48 53 52 47 42 44 43 43 44 45 44 42 38 39 40 36 37 36 34 37 35 32 36 32 35 34 33 34 40 39 39 46 44 46 44

GFSGBSN_sfc_dewp_051.txt.gz
Dewpoint
54 54 55 55 55 54 54 54 54 55 54 54 55 55 55 55 54 54 55 55 55 55 55 57 57 55 52 38 22 33 62 61 57 47 53 48 44 44 38 36 43 46 46 52 54 53 53
54 54 54 54 54 54 54 54 54 54 54 54 55 55 55 55 55 54 54 54 54 54 56 58 57 56 50 25 28 30 45 52 47 40 48 46 42 42 36 34 36 38 43 51 54 54 54
54 54 54 54 54 54 54 54 53 53 54 54 55 55 55 55 54 54 54 54 54 55 57 57 56 52 35 23 26 29 41 41 38 40 45 44 40 39 34 32 31 35 37 40 52 52 56
54 54 54 54 54 54 54 53 53 53 54 54 54 54 55 54 54 53 53 53 56 56 55 56 57 52 25 23 25 23 33 42 43 45 46 41 38 36 35 30 26 30 34 38 45 50 51
54 54 54 54 54 54 54 54 54 54 54 54 54 54 54 54 54 53 53 53 57 57 57 57 54 47 20 33 19 22 26 40 44 44 43 40 38 34 33 27 25 18 24 30 33 46 48
54 54 54 54 54 54 54 54 53 54 54 54 54 54 54 54 53 52 52 52 57 57 56 48 41 30 16 16 17 25 29 36 40 42 38 38 35 31 29 27 17 13 18 22 29 41 44
54 54 54 54 54 54 54 54 53 53 54 54 54 54 54 53 52 52 47 41 42 39 28 17 16 15 14 17 18 27 38 38 40 39 29 32 30 25 27 29 23 16 13 19 25 34 43
54 54 53 53 53 54 53 53 53 53 54 54 54 53 53 53 52 52 45 25 27 28 22 15 15 14 15 18 14 24 34 34 33 35 33 24 22 24 23 22 20 18 18 21 23 33 44
54 54 54 53 53 54 54 53 54 54 54 54 54 53 52 52 51 43 27 27 30 30 22 14 13 13 12 15 14 13 24 31 30 31 31 27 22 21 21 22 20 20 18 20 28 31 37
54 55 55 54 54 54 54 54 54 54 54 53 53 53 52 51 43 27 27 30 30 29 19 14 12 12 12 14 13 14 18 25 26 28 22 22 22 21 20 19 21 20 19 17 20 31 32
54 55 54 54 54 54 53 54 54 54 53 53 53 52 51 50 42 27 30 29 26 27 5 15 12 14 12 12 15 13 17 20 21 21 28 25 21 19 21 19 20 21 20 16 15 18 25
54 53 53 53 53 53 53 53 54 53 53 52 52 51 50 44 40 30 30 29 25 14 5 11 11 11 11 12 13 13 14 16 21 21 24 26 26 23 20 21 22 23 20 21 18 13 14
54 53 53 53 53 53 53 53 53 53 52 51 50 49 48 40 32 31 31 27 15 3 13 13 9 10 11 12 13 12 16 15 11 10 10 15 18 27 27 24 25 25 22 20 19 15 11
53 53 53 54 53 53 53 53 52 52 51 50 49 48 44 33 31 31 31 23 15 8 9 13 9 10 9 12 13 12 13 13 17 17 12 7 7 13 21 24 24 25 23 19 23 17 12
53 52 53 53 53 53 53 52 51 51 51 50 48 37 33 30 31 32 28 18 12 14 12 9 9 11 10 13 14 15 15 12 16 16 14 6 8 19 23 22 24 26 25 22 18 19 18
53 52 52 53 53 52 52 52 52 51 51 49 43 31 28 30 31 30 24 22 16 17 16 15 15 15 15 14 15 16 16 18 19 20 19 17 18 13 14 23 24 26 28 23 21 22 23
52 52 51 52 53 53 52 52 52 51 51 49 44 30 31 33 31 28 23 26 25 23 22 21 20 20 19 18 17 17 17 18 19 20 18 14 17 11 10 16 12 11 18 25 24 21 19
51 51 52 52 53 53 53 53 52 51 50 47 36 27 35 35 31 30 28 30 32 25 25 24 24 23 22 21 20 20 19 20 20 21 19 15 13 12 9 7 -0 2 13 13 20 29 24
51 50 52 52 52 53 53 53 52 51 51 45 35 33 36 35 30 30 31 27 28 27 27 27 27 26 25 23 24 24 22 22 21 21 20 21 19 13 15 12 11 7 9 19 20 19 28
51 51 52 52 52 53 53 53 52 51 51 46 36 32 34 33 33 30 31 28 27 28 27 29 28 28 28 27 26 25 22 21 20 22 33 26 20 19 12 16 14 13 5 8 16 19 22
51 51 51 52 52 52 53 53 52 51 51 47 37 34 36 31 30 31 31 30 28 28 30 30 28 29 29 30 28 28 26 24 24 28 28 25 22 22 19 16 15 13 13 13 16 19 19
52 51 51 52 52 52 52 53 53 52 51 42 36 37 34 33 34 31 33 31 30 32 33 30 32 31 32 33 31 31 34 36 29 25 26 25 26 26 25 18 15 11 12 12 10 9 20
52 51 52 52 52 52 52 53 53 52 50 40 40 40 37 34 32 31 32 34 33 33 33 32 33 34 34 33 33 33 31 33 39 35 34 32 28 29 24 21 16 14 15 12 12 11 9
51 51 52 52 52 52 52 53 53 52 51 43 43 42 41 32 32 34 34 33 33 35 34 33 32 33 33 33 33 32 29 29 30 31 30 33 37 37 29 23 18 15 12 8 9 10 11
51 51 52 52 52 52 52 53 53 51 51 46 45 45 40 38 36 34 36 34 35 35 35 34 32 34 34 35 36 33 27 28 28 27 28 29 37 36 31 25 21 15 13 11 29 27 32
51 51 52 52 52 52 52 52 52 51 52 49 47 47 43 42 34 37 37 37 35 35 33 33 37 38 37 38 36 31 31 33 28 29 29 27 33 36 31 26 23 20 17 34 33 29 28
51 51 52 52 52 52 52 52 52 52 52 50 47 51 45 42 37 38 37 39 40 39 38 36 36 38 39 38 35 35 34 37 32 32 32 33 37 33 33 28 28 25 30 34 28 27 37
51 51 52 52 52 52 52 52 52 52 52 51 47 52 47 41 39 39 39 40 41 42 39 38 38 39 39 37 36 36 35 37 33 36 36 33 34 33 33 30 28 38 35 33 36 41 39
50 51 51 52 51 52 52 52 52 52 53 51 48 51 50 47 41 42 42 41 42 42 44 41 41 41 41 38 38 37 35 37 35 32 38 34 37 36 36 34 41 41 41 41 41 42 42

GFSGBSN_sfc_dewp_054.txt.gz
Dewpoint
55 55 55 55 55 55 54 54 55 55 55 55 55 55 55 55 55 55 55 55 55 55 55 56 58 57 52 43 35 39 65 63 55 44 44 53 47 46 43 42 41 41 44 46 51 55 55
55 55 55 55 55 54 54 54 54 54 54 54 55 55 55 55 55 55 55 55 54 55 56 57 58 56 47 40 25 26 35 51 43 35 42 53 46 43 41 38 34 39 41 43 49 52 54
55 55 55 55 54 54 54 54 53 54 54 54 55 55 55 55 55 54 54 54 54 57 57 57 57 51 48 36 24 25 34 42 42 35 38 49 45 40 39 35 33 32 35 36 41 52 52
55 54 54 54 54 54 54 53 53 53 54 55 55 55 55 55 55 55 54 54 54 58 56 56 57 51 45 21 23 21 30 39 40 37 34 45 43 38 37 35 28 26 29 32 36 51 52
55 54 54 54 54 55 55 54 54 54 54 54 54 55 55 55 55 54 53 53 54 59 58 57 54 49 37 35 20 19 23 35 37 37 42 44 40 37 33 34 27 24 22 30 33 44 49
55 54 54 54 54 54 55 54 54 54 54 54 54 54 54 54 54 53 52 52 54 56 55 49 44 36 26 14 16 21 23 36 37 40 41 41 37 33 32 28 25 21 17 22 28 32 44
55 54 54 53 53 54 54 54 54 54 54 54 54 54 54 54 53 52 48 37 41 43 39 30 25 23 15 16 17 24 30 29 36 39 35 38 34 32 30 28 27 22 17 13 21 26 42
55 54 54 53 54 54 54 54 54 54 54 54 54 53 53 53 52 51 46 31 25 26 24 22 13 13 12 14 13 24 33 33 35 36 32 29 31 32 24 27 26 26 23 16 15 21 35
55 54 54 54 55 54 54 53 54 54 54 54 54 53 53 52 51 44 32 26 27 26 22 15 13 7 10 12 11 14 21 31 30 29 32 26 23 25 24 22 23 21 20 18 17 22 29
55 54 55 54 54 54 53 53 54 54 54 53 53 52 52 51 44 32 25 27 27 25 20 15 10 10 10 10 10 13 14 23 24 26 25 29 28 22 19 21 21 20 19 18 17 19 25
55 54 54 54 54 53 53 54 54 54 53 53 52 52 50 50 41 33 29 25 25 25 13 14 11 13 10 9 14 13 13 16 18 21 25 23 24 25 22 20 20 20 21 20 19 17 21
55 54 53 53 53 53 53 53 53 53 52 52 51 50 50 41 43 34 25 27 24 16 8 12 12 9 8 9 10 12 12 14 18 16 18 19 23 19 19 19 20 19 19 21 21 14 13
54 53 53 53 53 53 53 53 53 52 52 51 50 50 48 39 35 29 25 26 17 10 14 13 8 8 8 11 11 10 11 13 8 11 12 17 19 24 26 19 19 19 18 19 18 16 12
53 53 53 53 54 53 53 52 52 52 52 51 49 48 46 34 29 26 26 24 18 11 9 10 7 7 7 7 10 10 10 11 13 10 11 9 2 11 24 26 22 21 20 19 20 16 16
53 53 52 53 53 51 52 53 52 52 51 50 49 43 39 32 27 27 25 21 15 15 12 9 7 6 4 5 10 12 14 10 9 14 13 9 9 11 9 21 23 23 23 21 18 18 17
53 52 52 53 51 52 53 53 52 52 51 50 46 41 28 30 26 26 24 24 18 19 18 16 12 12 14 12 13 14 13 13 12 19 20 18 17 14 15 19 19 20 23 22 21 23 23
51 51 52 53 52 53 53 53 53 52 51 49 46 35 33 33 32 28 24 27 26 25 23 22 21 20 20 19 17 16 15 17 17 18 20 16 14 11 14 15 15 17 17 23 25 25 22
52 52 52 53 53 53 53 53 53 51 50 47 41 31 35 35 32 30 30 29 31 26 26 24 24 23 23 22 22 22 21 19 20 19 19 20 12 13 12 11 13 13 13 8 10 28 27
52 52 53 53 53 53 53 53 52 51 51 46 40 33 35 35 30 30 30 26 26 26 26 26 26 26 27 25 26 24 23 22 22 21 24 23 18 15 14 11 9 8 4 4 5 9 22
52 52 53 53 53 54 54 53 52 51 51 47 42 33 33 31 30 29 29 27 26 26 27 27 26 26 26 26 28 28 28 25 25 20 36 27 21 22 15 15 18 16 12 8 4 12 16
52 52 52 53 53 54 54 53 53 52 51 48 36 32 35 31 31 30 32 29 29 29 29 29 28 29 29 27 27 25 24 30 32 32 24 24 22 22 20 19 18 17 14 13 9 10 16
52 52 52 53 53 53 54 54 53 52 51 42 37 36 32 32 31 30 33 30 28 28 30 28 28 28 28 29 28 27 28 29 31 32 30 24 23 24 23 22 20 19 15 13 13 8 7
52 52 52 52 53 53 54 54 54 52 50 40 40 40 36 34 31 30 31 32 30 33 34 31 31 32 30 30 30 28 28 28 30 30 34 30 28 27 24 22 21 20 19 15 14 15 14
52 52 52 52 53 53 53 54 54 53 51 43 43 42 39 31 31 32 31 32 32 33 33 32 35 32 32 33 32 31 28 27 26 26 28 29 36 37 30 27 25 26 25 21 16 15 15
51 51 52 52 53 52 53 53 53 53 52 46 45 43 39 36 33 33 33 33 34 34 35 33 34 36 36 34 33 31 26 28 27 25 24 25 32 35 31 28 25 22 22 19 24 19 15
51 51 52 52 52 53 52 53 53 53 52 49 46 47 42 41 34 36 35 35 34 34 34 35 36 37 35 33 35 30 30 32 28 28 31 29 29 37 34 28 23 23 19 28 28 23 23
51 51 52 52 52 53 52 52 53 53 52 50 47 51 45 42 37 37 35 36 37 36 38 36 37 36 36 37 35 35 33 37 33 31 31 35 37 35 34 31 26 25 22 30 26 24 34
51 51 52 52 52 52 52 52 52 53 53 50 47 51 47 44 37 37 38 40 39 38 39 36 39 38 36 37 36 35 34 36 34 36 36 33 36 34 35 32 28 38 35 32 36 39 39
50 50 51 52 51 52 52 52 52 52 53 51 48 49 50 45 41 43 40 38 40 39 39 38 40 41 40 39 39 38 36 37 36 32 37 34 36 33 35 36 40 39 40 42 42 41 40

GFSGBSN_sfc_dewp_057.txt.gz
Dewpoint
55 55 55 55 55 55 54 54 54 54 54 54 54 54 55 55 55 55 55 55 55 55 56 56 57 57 52 45 38 47 67 66 58 48 36 41 50 47 46 46 45 45 45 45 51 57 63
55 55 55 55 55 55 54 54 53 54 54 54 54 55 55 55 55 55 55 55 55 55 57 57 59 57 48 43 28 44 56 56 47 43 36 42 51 49 45 44 42 41 41 40 43 57 61
55 55 55 55 55 54 54 54 53 53 53 54 54 55 55 55 55 55 55 55 54 54 58 57 58 52 48 46 29 25 28 52 47 40 32 41 50 51 43 40 39 34 32 32 37 50 56
56 55 55 54 54 55 55 54 54 54 54 54 54 55 55 55 55 55 55 54 53 54 58 56 57 51 48 42 23 22 23 34 47 40 31 39 47 48 40 38 36 30 27 27 33 45 51
56 55 54 54 54 55 55 55 54 54 54 55 55 55 55 55 55 54 53 53 54 54 58 57 55 51 43 37 21 21 23 30 41 41 34 31 37 42 39 33 34 33 24 24 27 33 51
56 56 55 54 54 55 55 55 54 54 54 55 55 54 54 54 54 53 52 52 53 51 55 52 48 43 40 24 17 21 22 23 36 34 33 33 41 37 35 31 29 31 23 21 21 30 49
57 55 54 54 54 55 55 54 54 54 54 55 54 54 54 53 53 52 50 39 42 41 38 38 37 34 22 16 16 19 25 26 36 38 37 40 39 35 32 32 30 28 27 23 19 22 43
57 55 54 54 55 55 54 54 54 54 54 54 54 54 53 52 52 51 49 36 26 25 24 26 31 26 13 13 13 23 32 24 34 35 37 35 35 37 34 32 30 26 26 25 25 20 26
57 56 55 55 55 55 54 54 54 54 54 54 53 53 52 51 51 48 35 32 27 26 24 21 16 13 8 11 11 20 28 32 32 32 36 31 30 34 32 31 24 25 25 25 23 21 34
56 55 55 55 55 54 54 54 54 54 54 53 53 52 52 51 45 36 34 30 25 26 22 19 12 10 11 12 9 14 14 18 25 29 29 29 31 27 28 27 25 21 24 22 19 19 19
56 55 54 54 54 54 54 54 54 53 53 53 52 52 51 50 43 35 33 24 25 26 18 14 11 14 10 9 15 13 14 14 15 18 22 24 25 27 27 23 21 20 23 21 21 19 18
55 54 54 54 54 54 54 53 53 53 53 53 52 51 50 45 47 40 36 27 28 21 16 12 12 11 10 9 9 14 15 16 15 15 15 16 19 23 26 25 23 21 20 19 21 20 18
54 54 53 54 54 53 52 52 53 53 52 52 51 50 49 43 37 35 26 27 23 16 15 11 9 8 8 9 9 12 11 12 11 9 12 17 18 20 21 21 19 20 25 18 19 18 18
54 54 54 53 53 53 52 53 53 53 52 51 50 49 48 43 37 31 29 27 23 16 12 10 7 7 10 11 11 12 14 10 14 10 8 10 8 7 17 24 26 20 18 20 17 19 18
54 53 53 53 53 53 53 53 53 53 52 51 49 45 43 41 41 29 30 25 21 17 17 14 10 12 10 6 10 13 16 13 12 19 15 16 14 18 16 19 26 25 23 19 17 18 19
53 53 53 53 53 53 53 53 53 52 51 50 47 45 41 32 28 30 29 27 24 23 21 20 18 17 18 16 13 14 14 14 17 20 21 19 15 16 13 16 24 23 25 21 20 18 19
53 53 53 53 53 54 54 54 53 52 51 50 47 43 37 35 35 35 29 30 27 25 25 23 23 22 22 22 23 22 21 21 21 20 21 20 17 15 14 14 16 20 21 25 22 25 22
53 54 53 52 53 54 54 54 53 51 50 47 45 39 37 38 37 37 31 28 32 26 27 26 27 26 27 26 24 23 23 24 23 23 22 23 19 16 14 14 14 14 16 17 17 19 26
54 53 53 53 54 54 54 53 53 52 52 47 44 40 36 36 31 31 30 26 26 25 27 26 25 26 27 27 27 28 27 27 27 24 29 24 22 18 14 11 15 16 13 9 9 7 7
54 53 53 54 54 54 54 54 53 52 52 48 45 37 37 35 32 31 31 29 28 28 28 27 28 30 29 27 27 28 27 27 31 29 36 30 21 21 19 20 21 19 18 17 13 5 7
52 52 53 54 54 54 54 54 53 52 51 49 45 33 37 32 32 32 30 29 26 27 28 29 30 27 27 26 26 26 27 29 30 35 32 27 22 23 21 20 19 19 18 17 16 15 13
53 53 53 53 54 54 54 54 54 52 50 47 40 40 39 34 35 31 33 31 28 30 32 28 30 30 30 28 29 28 27 27 28 29 30 30 27 23 22 21 21 20 21 21 20 16 14
52 52 52 53 54 54 54 54 54 52 50 44 45 45 42 36 32 30 32 32 30 33 32 31 33 35 32 31 32 30 30 28 27 27 31 33 33 31 25 25 25 23 20 21 21 21 15
53 52 52 53 53 54 54 54 54 53 52 50 47 46 41 32 32 33 32 31 32 34 35 31 35 34 35 36 34 33 32 30 28 27 25 28 34 36 28 28 23 27 27 26 24 23 24
52 52 52 52 53 53 54 54 54 54 52 50 49 46 44 37 34 33 33 34 34 36 36 33 34 37 37 34 34 32 31 33 34 33 32 30 29 30 26 27 25 25 24 23 25 26 28
52 52 52 52 52 53 54 54 54 54 53 51 50 52 47 43 36 36 36 36 34 35 35 37 39 38 36 34 36 31 30 32 30 30 31 33 36 36 33 25 21 22 24 23 26 22 26
52 51 51 52 52 52 53 53 54 54 54 51 51 54 50 46 40 40 37 38 39 37 38 38 39 38 37 36 33 31 31 36 29 30 31 32 33 31 33 32 33 35 36 35 29 29 39
51 51 51 52 52 52 53 53 54 54 54 51 52 54 50 46 42 39 37 41 40 40 39 39 39 39 36 34 34 33 32 34 33 34 33 31 31 32 33 31 27 36 36 35 37 38 39
51 50 50 52 52 51 52 53 54 54 54 52 50 54 54 48 44 45 44 42 44 42 41 39 41 39 39 37 37 37 34 35 34 29 36 30 36 32 33 33 36 38 38 39 39 38 38

GFSGBSN_sfc_dewp_060.txt.gz
Dewpoint
55 55 55 55 55 55 55 54 54 54 53 53 54 55 55 55 55 55 55 55 55 55 55 57 57 58 52 46 36 49 67 65 61 47 34 35 45 48 44 48 50 47 48 51 51 62 60
56 55 55 55 55 55 54 54 53 53 53 53 54 55 55 55 55 55 55 55 55 54 55 58 58 58 48 42 45 53 57 59 51 44 39 34 45 51 48 46 46 46 44 42 61 61 61
56 56 55 55 55 55 54 54 53 53 53 54 54 55 55 55 55 55 54 54 54 54 54 59 57 54 48 40 41 54 56 54 49 45 36 35 39 45 51 45 44 44 39 32 49 62 61
57 56 55 55 55 55 55 54 53 53 54 54 54 54 55 54 54 54 54 54 53 54 54 58 58 53 46 50 49 36 53 52 48 44 36 34 38 43 49 48 39 35 31 25 37 60 60
58 57 56 55 55 55 55 54 53 54 54 55 55 55 54 54 54 54 53 53 53 54 55 58 53 51 44 48 23 21 22 25 48 41 37 31 33 38 42 37 32 33 31 29 25 41 59
58 57 56 55 54 55 55 55 54 54 54 55 54 54 54 54 53 53 52 52 52 53 55 54 51 44 40 32 20 19 21 33 42 41 38 34 31 32 37 34 30 32 31 25 23 23 53
58 57 56 55 54 55 55 54 53 53 54 54 54 54 53 53 53 52 50 42 33 36 42 38 39 35 26 27 17 16 25 23 35 34 32 35 37 37 38 34 32 31 29 28 28 28 31
58 57 55 55 54 54 53 53 53 54 54 54 54 53 53 53 52 51 49 33 31 24 22 30 34 35 34 25 14 16 23 24 35 34 36 37 37 38 37 34 32 31 29 27 27 28 30
57 56 56 55 55 54 54 54 54 54 54 53 53 53 53 52 51 48 39 31 33 28 23 23 22 20 24 10 12 15 29 28 33 33 35 35 35 37 37 35 32 31 29 28 26 27 53
56 54 55 54 54 54 54 54 54 53 53 53 53 53 52 51 42 39 33 33 29 26 19 19 18 14 10 10 9 15 17 20 25 31 32 35 36 32 33 33 31 28 26 25 25 22 25
55 55 54 54 54 54 53 53 53 53 53 53 53 53 51 50 43 34 29 34 33 24 16 18 11 13 10 7 12 13 16 13 18 17 20 26 27 31 30 28 30 28 27 23 25 22 19
55 54 53 53 53 54 53 53 53 53 53 53 53 52 50 46 45 42 40 37 25 18 17 12 12 10 9 10 10 14 16 15 17 16 17 15 18 20 25 27 29 26 22 20 21 20 17
54 53 53 53 54 54 53 53 53 53 53 52 51 50 49 46 31 37 34 27 21 15 17 12 11 9 8 8 9 12 13 14 9 6 7 12 14 16 20 21 24 21 19 17 17 15 16
54 54 54 53 53 53 53 53 53 53 52 51 50 49 49 45 42 40 29 24 20 17 18 16 8 7 7 9 11 12 10 9 13 12 8 7 7 9 15 22 24 21 18 18 15 16 18
54 54 54 53 53 53 54 54 53 53 52 51 49 45 43 41 42 35 26 22 22 21 21 20 15 11 19 19 11 13 12 16 19 19 12 15 14 18 16 14 23 24 22 19 17 26 18
54 54 54 53 52 53 54 54 53 53 52 50 45 44 42 42 39 29 25 31 23 25 24 23 21 22 21 22 21 21 17 22 20 21 20 19 12 16 16 15 20 29 24 20 21 17 18
53 54 53 52 52 53 54 54 53 52 52 50 46 41 37 35 34 30 28 31 26 26 26 23 24 24 25 24 23 22 22 23 23 22 22 21 16 15 13 13 15 13 16 20 21 24 21
53 54 53 52 54 54 54 54 53 52 51 47 45 34 35 37 33 34 26 25 31 27 28 26 26 26 26 26 25 25 26 27 28 26 26 23 19 17 15 18 17 14 18 16 17 16 22
54 54 53 54 54 54 54 54 53 52 51 45 43 43 36 33 28 29 29 28 27 28 28 27 28 28 28 26 24 27 28 31 30 29 28 24 21 18 13 16 22 20 20 19 15 10 7
54 53 53 54 54 55 54 53 53 52 51 46 43 31 34 33 32 29 28 26 27 29 29 28 27 27 26 25 26 26 26 28 29 33 41 29 21 20 18 20 21 19 20 21 16 11 11
52 53 53 54 54 55 54 54 53 52 51 46 40 32 33 30 31 30 30 29 30 29 31 32 31 30 27 24 26 27 28 27 28 36 31 26 20 22 21 21 21 21 20 21 21 20 15
52 52 53 54 54 54 55 54 53 52 51 41 37 36 37 31 31 30 32 30 30 31 32 31 32 32 31 29 30 29 28 27 26 27 29 32 28 29 26 25 25 24 25 24 21 21 21
52 52 52 53 54 54 55 54 54 52 50 44 44 43 35 34 32 31 31 31 32 33 32 34 35 33 32 33 34 33 31 30 28 28 25 30 30 28 24 27 26 22 23 24 23 24 23
52 52 52 53 53 54 55 55 54 53 51 48 45 44 37 31 32 32 33 34 34 33 33 33 35 34 34 35 35 34 33 32 31 30 26 28 31 30 27 28 21 22 27 26 24 25 27
52 52 52 53 53 54 55 55 55 54 52 48 48 46 42 33 34 34 34 34 34 34 34 36 35 36 36 34 31 30 31 29 32 32 32 32 30 27 27 23 25 25 29 31 30 26 38
52 52 51 52 53 53 55 55 55 54 53 49 50 50 46 39 34 37 35 35 33 33 35 36 38 36 36 35 32 26 26 30 28 31 32 33 34 31 31 25 22 31 33 35 35 23 37
52 52 51 52 53 53 54 54 55 55 53 49 49 49 48 43 38 37 35 35 37 36 35 36 37 36 37 31 31 29 30 34 22 27 29 29 30 28 31 29 32 32 35 38 26 27 37
52 51 51 52 52 52 53 54 55 55 54 50 48 51 46 43 44 40 38 39 39 37 35 36 35 36 35 29 31 31 30 32 30 32 30 30 28 29 29 28 26 35 34 32 35 37 37
52 52 50 52 52 52 52 54 55 54 54 52 47 50 50 46 43 44 45 42 38 38 38 38 35 36 37 34 34 30 32 33 32 26 37 28 31 28 32 28 35 37 37 39 39 37 37

GFSGBSN_sfc_dewp_063.txt.gz
Dewpoint
57 56 56 55 55 55 54 54 53 53 53 54 54 55 55 55 55 55 55 55 55 55 55 55 57 57 51 45 34 51 62 67 61 40 32 32 43 45 45 48 50 51 51 50 51 56 58
57 57 56 55 55 55 54 54 53 53 52 54 54 55 55 55 55 55 55 55 54 54 54 55 58 57 46 32 41 60 55 60 54 41 35 39 42 47 48 45 47 48 48 47 53 59 58
59 58 56 56 55 55 54 54 53 52 53 54 54 54 54 54 54 54 54 54 54 54 54 55 58 53 48 31 46 57 54 55 49 41 37 33 41 46 50 49 47 46 45 42 59 59 59
59 58 57 56 55 55 54 54 53 53 53 54 54 54 54 54 54 54 54 54 53 54 54 56 59 52 45 47 49 53 55 51 48 43 35 35 38 41 47 48 41 34 32 28 56 59 60
60 58 57 55 55 54 54 54 53 53 54 54 54 54 53 53 54 54 53 53 53 54 55 58 51 49 43 50 43 40 53 43 46 44 41 32 36 38 39 40 34 33 32 32 40 60 59
59 58 56 55 54 54 54 53 53 54 54 54 54 54 54 54 53 53 52 52 52 55 56 54 52 44 38 31 23 21 41 43 46 40 37 34 31 30 36 36 34 32 32 30 27 55 58
58 57 55 55 54 54 53 53 53 53 54 54 54 54 54 53 53 52 50 41 30 32 46 34 31 35 33 32 18 20 21 38 36 38 35 32 30 31 34 37 36 32 30 29 30 30 27
56 55 54 54 54 53 53 53 53 53 54 54 54 54 53 53 53 52 48 29 30 28 24 31 37 38 36 34 22 16 23 25 34 32 34 36 33 37 39 36 33 32 30 30 30 29 29
53 54 54 54 53 53 54 54 54 54 54 54 54 54 53 52 52 47 37 31 33 34 25 23 26 26 24 30 18 12 22 26 34 34 35 34 36 38 38 38 35 32 30 30 29 28 55
55 55 54 54 53 54 54 54 54 54 54 54 54 54 53 51 39 39 32 32 36 28 19 18 21 19 15 11 9 14 27 23 24 32 34 35 36 36 34 35 35 32 32 31 28 24 19
54 54 54 54 54 54 54 54 54 54 54 54 53 53 52 50 43 36 30 38 36 23 14 19 13 13 10 7 11 13 16 14 18 18 29 31 28 35 32 30 32 31 32 28 26 21 20
54 53 53 53 53 53 54 54 54 54 54 53 53 52 50 46 43 42 42 33 24 17 15 13 12 9 8 9 11 14 15 14 15 13 16 14 17 21 27 29 30 31 29 21 21 19 16
54 53 53 53 52 53 53 54 54 54 53 52 52 50 49 46 29 37 35 26 19 15 19 16 11 10 8 9 11 13 13 12 10 8 7 13 13 17 21 21 22 23 20 18 17 16 15
54 53 54 54 52 52 53 54 54 53 53 52 50 49 49 46 42 40 28 23 19 20 20 21 14 9 13 11 12 12 12 16 18 13 7 6 6 12 17 19 20 19 19 17 14 16 17
54 54 53 52 51 51 53 54 53 53 52 51 49 45 43 41 44 33 27 22 22 23 24 22 21 21 22 22 17 14 20 22 21 20 10 14 14 17 17 16 18 22 20 19 18 23 16
54 53 53 52 52 53 54 54 53 53 52 51 46 44 39 42 37 30 32 30 25 27 25 24 21 24 23 23 22 21 22 24 24 23 20 19 14 16 16 16 16 18 23 22 19 15 14
53 53 54 53 54 54 54 54 54 53 52 50 45 35 35 36 34 31 28 27 26 28 27 25 25 25 25 25 25 23 26 26 28 25 24 26 16 14 14 15 14 17 18 18 21 20 18
53 54 53 53 54 54 55 54 53 52 51 47 44 30 37 35 29 30 26 27 31 28 28 28 28 27 26 26 26 26 28 29 31 27 26 25 19 16 16 20 20 20 19 17 17 18 20
54 54 52 53 54 55 55 54 53 52 51 44 42 42 38 33 27 28 28 27 29 29 28 27 26 27 27 25 25 27 29 28 33 32 34 27 20 14 11 14 21 20 21 22 17 12 12
53 53 52 53 54 55 55 54 53 52 51 46 37 30 33 32 32 28 28 29 28 31 31 31 30 28 26 25 27 26 26 28 30 33 42 28 21 19 16 19 21 20 21 21 19 17 16
52 53 52 53 55 55 55 54 53 52 51 43 36 32 35 30 30 30 30 30 30 30 31 32 32 30 27 28 28 28 28 28 28 33 32 25 24 27 23 22 23 22 24 23 20 21 19
52 53 52 53 54 55 55 54 54 52 50 43 37 35 34 32 30 30 32 30 31 31 30 31 32 31 31 30 30 28 29 29 27 28 26 30 27 28 25 28 26 23 24 23 23 21 21
52 53 52 52 54 55 55 55 54 52 49 43 44 42 33 34 32 31 31 32 32 32 33 34 34 32 32 33 34 33 32 30 30 28 26 28 28 26 22 28 24 20 24 25 25 25 23
52 52 52 53 53 54 55 55 54 53 50 46 45 43 35 32 32 32 34 35 34 33 32 33 35 34 35 35 35 34 32 31 31 32 27 28 28 27 24 25 16 22 33 31 26 35 37
52 52 51 53 53 53 55 55 55 53 52 48 47 44 39 33 34 34 34 34 33 34 34 35 35 36 36 35 30 29 28 26 30 32 32 30 29 26 23 20 24 27 33 31 32 33 37
52 52 51 52 53 53 54 55 55 54 52 49 48 47 44 36 32 37 35 35 33 32 34 36 37 36 36 34 30 25 22 28 27 28 30 32 32 28 28 22 21 30 32 33 35 30 35
51 51 51 52 53 53 53 54 55 55 53 48 48 48 46 41 40 35 34 35 36 35 34 35 37 36 35 29 24 21 26 33 20 25 25 25 26 23 29 30 31 33 34 35 28 29 36
51 51 51 51 52 53 53 53 54 54 54 48 48 49 44 41 43 39 38 38 39 36 34 35 34 34 33 27 24 30 29 31 28 31 25 27 25 18 28 25 20 35 34 28 33 37 36
51 51 51 50 51 52 53 53 54 55 54 50 46 48 49 45 41 45 44 43 40 39 37 37 32 34 35 31 30 32 31 33 29 17 36 29 27 24 27 26 33 36 35 38 39 36 35

GFSGBSN_sfc_dewp_066.txt.gz
Dewpoint
59 58 57 56 55 55 54 54 53 53 52 53 54 55 55 55 55 55 55 55 55 55 55 55 55 57 50 42 30 54 60 61 59 37 31 37 47 46 48 49 50 51 52 52 53 53 58
60 59 58 56 55 55 54 54 53 53 52 53 54 54 54 54 54 54 54 54 54 54 54 55 56 57 45 23 36 57 60 59 48 37 32 39 44 47 46 46 49 49 50 49 47 50 56
61 59 58 56 55 55 54 54 53 53 53 54 54 53 54 54 54 54 54 54 53 54 54 55 58 54 46 21 49 57 58 53 46 37 33 34 44 46 49 49 49 47 45 43 43 59 58
61 59 58 56 55 55 54 53 53 53 53 53 53 53 53 54 54 53 54 53 53 54 54 55 58 51 44 45 54 52 51 49 48 40 35 35 40 42 44 47 40 35 33 31 51 59 60
59 58 56 55 55 54 53 53 53 53 54 53 53 53 53 53 53 54 53 53 54 55 55 58 51 48 42 52 46 51 51 47 46 43 39 33 34 37 37 39 37 33 33 32 32 59 60
57 56 54 54 54 53 53 53 52 53 54 54 54 54 54 54 54 52 51 52 54 57 56 55 52 43 37 35 29 45 52 46 44 42 37 34 31 32 35 36 37 33 32 30 30 57 58
54 53 54 54 54 53 53 53 53 53 53 54 54 54 54 54 53 51 49 41 28 29 47 32 29 39 31 34 30 23 43 41 40 38 35 33 30 30 33 36 37 34 31 31 31 36 37
54 54 54 54 53 53 53 53 54 54 54 54 54 54 54 53 53 52 47 29 28 30 27 34 39 40 38 34 28 18 37 34 37 35 35 33 28 32 34 38 37 33 32 31 30 32 28
53 54 54 53 52 53 54 54 54 54 54 54 54 54 53 53 52 46 35 30 33 35 27 23 29 30 26 31 25 14 23 33 34 34 33 32 35 35 39 37 34 34 33 31 30 31 44
55 55 54 52 52 52 53 54 54 54 54 54 54 54 52 51 40 39 32 37 37 32 18 17 21 22 20 18 10 15 25 28 31 32 35 35 36 37 36 35 37 34 33 32 32 26 20
54 54 52 52 53 53 53 54 54 54 54 54 54 52 51 49 43 35 32 39 35 23 13 19 16 15 11 7 10 13 16 18 23 25 33 32 32 35 34 33 34 35 32 31 28 25 20
54 53 52 52 52 52 53 53 54 54 54 54 53 52 50 46 43 41 40 35 24 17 14 14 12 9 8 9 12 14 15 14 16 13 17 24 17 30 34 35 32 31 27 21 21 19 17
54 54 53 52 53 52 52 53 54 54 53 53 52 51 49 46 27 37 36 25 18 16 21 18 13 8 7 8 11 13 12 12 10 8 8 12 16 18 19 20 25 25 22 20 17 17 16
54 54 52 53 52 53 54 54 54 53 53 52 50 49 49 47 44 41 28 25 21 22 22 22 18 22 21 18 19 22 21 19 21 10 7 7 8 13 16 15 14 22 21 19 14 16 16
55 54 52 52 53 54 54 54 54 53 53 51 49 44 41 42 44 35 27 23 24 25 26 23 23 22 23 23 17 21 22 24 21 22 12 12 13 16 16 15 19 20 20 23 18 21 16
54 54 52 52 54 54 55 54 54 53 52 51 45 42 35 38 38 34 28 28 26 27 27 25 24 25 23 24 22 22 23 26 28 25 20 20 13 16 17 16 17 20 22 20 19 15 15
53 53 53 53 54 55 55 54 54 53 52 50 44 31 34 36 34 29 25 27 27 28 28 26 25 25 25 25 25 25 28 28 30 26 24 25 15 14 17 18 18 20 19 18 21 19 17
53 53 53 53 54 55 55 54 53 52 51 46 40 29 35 33 28 28 26 27 32 28 29 26 27 27 25 26 26 28 26 27 31 29 27 23 18 17 18 20 22 21 21 18 20 19 16
54 53 53 53 54 55 55 54 53 52 51 44 39 38 35 31 26 26 29 28 30 30 30 27 28 26 26 26 25 27 27 28 29 36 34 27 19 13 19 15 20 20 21 20 17 14 16
53 53 52 52 55 55 55 54 53 52 51 45 33 30 33 32 31 28 28 29 28 32 32 32 30 29 26 27 28 27 27 28 29 34 41 28 23 17 12 17 21 21 22 22 19 19 18
52 53 52 53 54 55 55 54 53 52 51 41 35 32 34 29 30 31 30 30 30 30 31 32 31 30 28 27 28 29 29 28 27 34 31 25 26 25 24 24 24 23 24 23 21 20 18
52 53 52 52 54 55 55 54 53 52 50 43 39 33 33 32 31 30 32 30 30 31 30 31 30 32 32 29 28 27 30 28 28 28 26 29 28 27 25 29 26 23 24 24 23 23 23
52 52 52 52 54 55 55 55 53 52 48 43 43 41 33 34 31 30 31 32 32 32 33 34 34 32 32 33 33 33 32 30 28 27 26 28 27 23 18 28 24 22 26 25 25 28 31
52 52 52 52 54 54 55 55 54 53 49 46 44 40 35 32 32 32 34 34 33 33 32 33 35 33 34 35 34 32 32 32 32 32 27 28 26 25 22 21 9 22 33 32 30 36 37
51 52 52 52 53 54 55 56 55 53 52 48 45 43 36 33 34 34 34 33 34 35 35 35 36 35 36 34 29 27 26 27 29 31 32 30 28 25 21 17 23 30 32 30 31 30 36
51 52 52 52 53 53 54 55 55 54 52 48 46 46 40 34 32 36 34 34 32 32 33 36 37 37 34 31 28 23 20 27 26 26 28 30 30 27 23 21 20 29 32 33 34 30 35
50 51 51 51 52 53 53 54 54 55 53 48 47 46 45 38 38 35 33 34 35 34 33 33 35 35 33 27 23 19 18 32 19 22 24 24 25 24 26 25 29 33 34 36 27 27 36
51 51 51 51 51 53 53 53 54 54 54 49 48 48 44 40 40 42 38 38 38 35 33 34 33 32 31 25 23 29 28 31 27 25 24 22 18 18 28 25 18 35 32 26 31 36 37
50 51 51 51 50 52 53 53 54 54 54 48 45 47 48 45 40 44 44 43 40 38 37 35 32 33 33 30 29 30 31 32 28 17 30 26 25 22 24 24 31 36 33 36 37 37 36

GFSGBSN_sfc_dewp_069.txt.gz
Dewpoint
61 60 59 58 56 55 55 54 54 53 53 54 54 54 54 54 54 55 55 55 55 55 55 55 55 57 52 37 24 56 60 66 53 43 41 44 47 49 46 53 53 55 54 53 52 52 54
61 60 59 57 56 55 55 54 53 53 54 53 53 53 53 54 54 54 54 54 54 54 54 54 54 56 46 16 42 53 54 60 48 37 39 46 47 50 48 52 51 51 50 48 46 46 51
60 59 58 56 54 54 54 53 53 53 53 53 53 53 53 53 54 54 54 53 53 53 54 54 56 53 40 19 52 53 53 51 48 35 35 41 50 47 49 48 48 48 44 38 53 54 56
59 57 55 53 54 54 54 54 53 53 53 53 53 53 53 53 54 53 52 52 53 55 55 55 57 53 36 43 54 55 49 46 40 36 34 35 44 45 46 47 42 40 35 37 53 57 58
55 54 54 54 54 54 53 53 53 53 53 53 53 54 53 53 53 52 51 52 56 56 56 58 53 50 34 53 52 50 44 39 41 39 37 32 38 43 41 44 42 35 37 34 35 58 58
54 54 54 54 53 53 52 53 53 53 53 53 54 55 54 53 53 51 51 52 54 57 56 55 52 44 39 37 42 47 49 41 39 37 32 30 31 38 39 42 37 37 33 30 36 52 57
54 54 53 53 53 53 52 53 53 53 53 53 55 55 54 53 52 51 49 46 31 37 50 31 28 33 29 32 35 45 44 42 39 34 29 29 32 34 41 43 38 36 33 32 32 42 41
54 53 53 53 52 52 52 53 54 54 54 54 55 54 52 52 51 51 47 30 29 32 28 32 37 37 36 34 23 42 44 35 38 30 32 26 25 33 40 41 37 37 35 34 32 33 34
53 53 53 53 53 54 53 53 54 54 54 54 54 53 52 51 52 47 34 31 34 33 28 23 31 29 26 31 21 29 38 37 37 36 30 23 23 32 38 38 37 36 36 34 31 32 43
53 53 53 53 54 52 53 53 54 54 54 54 53 53 52 50 41 41 33 35 37 34 18 16 21 23 25 28 12 21 30 34 35 36 33 30 31 34 39 39 38 37 35 34 32 31 24
53 53 53 54 54 53 52 53 54 54 54 54 54 52 51 49 43 35 35 37 32 26 13 18 17 19 17 11 13 17 21 24 30 34 35 32 35 34 38 38 38 38 35 34 32 31 25
54 53 53 53 53 53 54 54 54 54 54 53 53 51 50 46 45 41 38 35 27 19 14 17 11 13 13 10 12 14 14 17 18 25 30 28 25 36 38 36 35 35 28 25 25 25 23
54 54 53 53 54 54 54 54 54 54 53 52 51 50 49 43 28 39 38 28 20 19 23 20 17 9 12 12 16 15 21 21 16 20 27 16 16 17 25 28 33 32 28 24 23 22 22
55 55 53 53 53 54 54 55 54 54 53 51 50 49 49 46 45 45 31 28 23 24 24 24 23 21 18 20 21 22 22 20 23 11 12 24 21 15 16 18 21 29 27 23 22 20 20
55 54 53 52 54 54 55 55 54 54 52 51 49 46 41 38 43 38 31 25 25 26 26 25 23 19 23 22 19 22 25 26 25 23 16 16 14 16 17 18 21 23 24 23 20 21 19
54 53 53 52 54 54 55 55 54 54 53 51 47 40 36 36 39 35 29 27 26 28 27 26 24 25 22 25 21 23 25 30 29 26 23 20 16 17 18 19 21 24 23 20 22 22 20
53 53 53 52 54 55 55 55 54 53 52 50 40 35 35 35 34 31 26 27 27 28 28 27 26 25 26 26 27 27 27 30 31 30 25 21 17 19 21 21 21 22 22 23 23 23 19
53 53 53 53 54 55 55 55 54 52 51 47 37 31 36 35 30 30 27 28 33 29 30 27 27 26 26 27 28 28 28 29 30 33 24 25 19 19 19 21 22 22 22 21 22 27 24
53 53 53 53 54 55 55 54 53 52 50 47 37 35 36 33 27 28 30 29 30 29 30 29 27 27 29 28 28 28 28 28 30 36 30 26 20 18 18 19 21 22 22 20 16 20 24
53 53 53 53 54 55 55 54 53 52 50 42 35 30 33 34 32 29 28 30 29 31 31 31 31 29 28 29 30 28 27 27 28 34 40 28 24 21 12 20 22 22 22 21 20 19 20
52 53 52 53 54 55 55 54 53 52 50 43 37 33 34 30 31 32 31 31 29 30 31 32 31 31 28 28 29 29 29 27 27 34 32 30 26 26 25 24 23 23 21 20 19 22 20
52 52 52 52 54 55 55 55 53 52 49 44 38 33 34 33 33 32 33 31 30 32 31 30 31 32 32 31 30 29 30 30 29 29 28 30 29 28 26 26 25 21 23 22 21 19 20
52 52 53 52 53 55 55 55 54 52 48 44 44 40 36 35 33 31 33 32 31 33 34 35 33 34 34 34 34 34 33 32 32 30 29 31 30 26 22 27 23 18 25 24 25 32 27
51 52 52 52 53 54 55 55 54 53 50 47 46 40 37 33 33 33 33 33 33 34 33 35 36 34 36 35 34 33 32 32 33 33 29 30 35 34 24 24 17 27 32 31 31 35 36
51 51 52 52 53 54 54 55 55 53 51 49 50 43 39 37 35 34 33 33 35 37 36 36 35 37 37 34 32 31 30 30 30 31 32 32 32 33 29 23 24 27 29 29 29 32 35
51 51 51 52 52 53 54 54 55 54 52 50 50 48 41 38 34 36 34 34 33 34 35 37 38 37 34 32 35 29 30 30 29 27 30 32 34 35 32 24 21 29 29 32 34 25 35
50 50 51 52 52 52 53 54 54 55 53 51 50 50 46 42 37 37 35 35 36 35 35 37 38 35 33 32 34 34 32 32 31 27 28 31 35 33 31 30 29 33 31 35 29 29 35
50 51 51 52 51 51 52 54 54 54 54 51 50 51 47 44 41 40 38 39 38 37 37 37 36 34 32 34 34 34 34 33 32 32 31 30 33 34 32 30 28 35 32 31 34 36 35
50 50 51 51 51 50 52 53 54 54 54 49 47 49 50 47 42 45 43 42 41 40 38 38 35 37 34 35 35 35 34 33 33 32 34 32 35 35 34 34 34 37 34 36 35 34 35

GFSGBSN_sfc_dewp_072.txt.gz
Dewpoint
61 60 59 57 56 54 55 54 54 54 54 54 53 53 54 54 54 54 55 55 55 55 54 55 55 56 52 34 15 52 60 60 52 50 42 40 41 39 42 45 53 55 54 53 51 48 49
59 59 57 55 54 54 54 54 54 54 53 53 53 53 54 54 54 54 54 54 54 54 54 54 55 55 42 19 44 48 45 50 46 42 36 37 36 38 37 43 46 50 51 49 46 43 46
57 55 54 55 54 54 54 54 53 53 53 54 53 53 53 53 54 54 53 53 52 53 54 55 55 51 37 20 48 43 50 45 40 36 34 36 40 39 39 41 45 47 45 45 46 46 50
54 55 54 54 54 53 53 53 54 53 53 54 54 54 53 53 53 53 53 52 53 56 55 55 57 50 30 39 48 45 47 45 37 36 33 39 43 38 38 44 43 42 42 41 47 48 52
54 54 54 54 54 53 53 54 53 54 54 53 53 53 54 53 53 53 52 52 56 57 56 57 52 47 29 52 46 40 38 40 35 34 36 36 41 37 39 36 34 37 36 38 46 50 52
55 54 54 54 54 54 54 54 53 53 54 53 54 55 54 53 52 53 52 52 55 58 55 52 49 40 38 33 43 41 39 36 33 32 30 31 35 34 34 28 26 31 35 38 37 50 50
54 54 53 53 53 54 54 54 54 54 55 55 55 55 54 54 52 52 49 47 41 44 41 28 24 26 31 34 42 39 40 37 34 32 27 27 28 25 28 31 34 31 36 36 36 47 44
54 53 53 53 54 54 54 53 54 54 54 55 55 55 54 53 52 52 47 32 30 31 25 30 31 28 30 30 30 36 39 37 33 25 25 25 24 26 30 35 38 36 36 35 34 33 37
54 53 53 54 54 54 54 53 54 54 55 55 55 54 53 52 51 48 34 30 32 32 25 23 26 26 25 27 25 36 36 32 32 23 24 21 20 28 36 39 38 35 33 36 34 33 33
54 53 53 54 54 54 54 54 55 55 55 55 54 54 52 51 45 39 32 34 34 33 19 17 18 20 24 25 18 33 35 30 29 31 25 20 24 26 33 36 36 32 35 34 35 32 29
55 54 53 54 54 54 55 55 55 55 54 54 54 52 51 50 40 32 34 36 32 30 13 16 17 21 23 21 17 28 33 28 29 31 32 25 22 26 31 35 37 34 37 35 34 34 31
55 54 54 54 54 54 55 55 55 54 54 54 52 51 50 45 42 33 35 34 28 20 16 15 14 18 18 12 14 23 25 23 28 29 32 29 26 28 33 37 39 38 34 33 32 31 28
55 54 53 54 54 54 55 55 55 54 54 53 51 50 49 41 33 39 40 28 20 18 21 17 13 17 14 12 15 19 21 21 25 28 29 27 30 31 35 37 38 37 31 25 23 23 22
55 55 53 53 54 54 55 55 55 54 53 52 50 50 48 42 40 41 33 25 23 22 22 21 19 13 13 15 18 20 22 22 21 21 25 22 23 28 31 35 34 34 30 21 23 19 19
55 54 53 54 54 54 55 55 54 54 53 52 50 44 36 36 40 38 30 23 26 26 26 24 18 14 17 17 18 22 23 22 23 22 22 23 20 18 19 20 23 32 30 25 20 22 18
55 54 54 54 54 54 55 55 54 54 53 51 46 39 35 34 37 34 28 28 28 28 27 26 21 22 16 18 17 19 22 28 25 25 24 22 22 19 18 19 21 25 27 24 22 23 21
54 54 54 54 54 55 55 55 54 53 52 51 41 34 34 33 35 32 26 27 27 28 28 27 25 24 25 23 22 24 25 27 29 27 26 20 21 20 21 22 23 22 22 24 21 21 19
54 54 54 54 54 55 55 55 54 52 51 48 34 31 34 35 31 30 27 28 32 27 29 27 27 27 27 27 26 26 26 28 31 31 23 23 17 18 20 21 22 23 25 25 21 27 24
54 54 54 54 54 55 55 54 53 52 51 46 34 31 34 33 27 28 29 27 28 27 29 28 27 28 29 29 28 27 27 28 30 31 29 26 21 19 19 19 22 22 23 24 23 24 28
53 53 53 54 54 55 55 54 53 52 51 45 33 27 29 32 33 29 27 27 27 28 28 29 29 29 29 29 30 29 27 27 28 31 38 31 22 24 15 20 21 23 21 22 22 20 25
52 52 53 54 54 55 55 54 53 52 51 44 33 28 33 25 27 27 27 27 25 26 28 29 28 27 28 29 29 29 28 27 28 32 31 30 27 26 24 21 21 20 18 18 22 25 24
52 52 53 53 54 55 55 55 54 52 51 41 32 31 30 30 33 28 30 29 27 29 29 28 29 28 29 31 31 30 29 31 30 29 30 28 29 28 25 24 23 20 21 20 18 20 24
52 52 52 53 54 55 55 55 54 52 49 36 42 37 34 33 28 27 29 28 28 32 33 32 31 32 31 32 32 32 31 31 31 31 29 30 28 28 22 24 20 17 20 19 21 24 24
52 51 52 52 53 54 55 55 55 53 51 46 45 40 35 27 27 29 30 30 31 33 33 33 33 34 35 35 34 30 28 30 30 30 27 29 32 29 22 23 17 28 29 27 25 31 32
51 51 51 52 53 54 54 55 55 54 52 49 50 43 37 31 29 30 30 31 33 35 34 34 35 36 37 34 31 30 28 30 29 29 29 31 30 27 26 20 22 24 28 26 30 31 34
52 50 51 52 52 53 54 54 55 54 52 50 49 51 40 36 29 31 31 33 30 30 33 35 39 36 35 32 35 31 34 32 28 29 31 28 34 33 27 27 20 28 29 31 30 25 35
52 50 50 51 51 52 53 54 54 55 54 51 50 54 46 39 35 36 34 34 33 33 32 34 36 35 34 32 38 39 38 35 35 28 30 32 34 35 28 31 29 31 30 33 25 31 36
52 50 50 51 51 50 52 53 54 54 54 50 49 54 48 39 39 38 37 38 37 36 34 38 34 32 28 32 36 40 40 38 37 35 31 31 36 37 34 32 32 34 33 32 37 36 34
53 50 51 51 51 50 51 52 54 54 54 52 47 52 52 46 43 45 41 41 41 40 37 38 33 32 32 34 37 37 40 35 36 37 33 36 37 42 36 38 37 38 35 37 34 35 35

GFSGBSN_sfc_dewp_075.txt.gz
Dewpoint
58 57 55 54 55 55 54 54 54 54 54 54 54 54 54 54 55 55 55 55 55 55 55 55 55 56 53 35 24 55 59 59 46 51 43 37 38 44 44 46 55 54 51 51 50 48 50
55 55 55 55 55 54 54 54 54 54 54 54 54 54 54 54 54 54 55 54 54 54 54 55 55 56 44 24 37 48 42 36 38 47 40 36 37 40 36 40 49 53 52 49 47 45 46
55 55 55 54 54 54 54 54 54 54 54 54 54 54 54 53 54 54 54 53 53 54 55 55 56 52 36 25 39 40 36 30 37 42 37 35 33 32 35 38 43 48 49 47 44 43 48
55 54 54 54 54 54 54 54 54 54 54 54 54 53 53 54 54 54 54 53 54 57 57 56 56 48 35 29 40 41 42 35 37 38 32 32 35 34 33 38 39 44 45 42 43 44 49
55 54 54 54 54 54 54 54 54 53 54 54 54 54 54 54 54 53 52 53 55 56 57 56 52 48 28 51 39 42 40 32 33 34 33 35 36 35 34 32 35 38 38 38 42 43 47
55 54 54 54 54 55 55 54 54 55 55 55 55 55 53 53 54 53 53 52 55 57 54 51 44 37 37 31 34 36 39 35 30 32 32 32 30 33 30 31 28 29 33 34 39 43 46
55 54 54 54 54 55 55 55 54 55 55 55 55 55 55 54 52 52 50 48 46 45 39 32 26 29 24 30 36 34 33 34 29 29 27 27 24 27 27 27 23 26 30 32 36 42 42
55 54 54 54 55 55 55 55 55 55 55 55 55 55 55 53 52 52 49 37 28 29 27 29 25 24 28 36 33 33 36 30 30 26 24 24 23 26 25 24 23 27 27 32 35 41 41
54 54 54 55 54 55 55 55 55 55 55 55 55 54 53 52 52 47 39 29 30 29 26 23 24 21 26 31 28 30 33 31 28 26 22 22 19 23 22 26 28 32 30 33 34 34 38
55 55 55 54 55 55 55 55 55 55 55 55 53 53 52 52 44 33 30 30 29 29 24 19 20 20 24 24 23 30 32 30 29 22 19 21 19 20 24 29 33 29 28 30 32 33 30
56 55 55 54 55 55 55 55 55 55 55 54 53 53 52 50 44 31 31 29 28 29 17 16 17 20 22 22 21 29 30 29 26 25 24 21 17 20 27 32 33 29 28 29 33 31 29
56 55 55 55 55 55 55 55 55 55 54 53 53 52 51 47 43 30 30 31 29 22 18 13 14 17 20 21 17 27 26 28 27 27 29 24 21 20 22 28 33 34 33 32 31 29 25
56 55 54 54 55 55 55 55 55 54 54 53 52 51 50 45 33 33 32 30 24 19 19 13 14 15 19 18 15 23 26 25 22 25 28 28 27 23 23 27 34 36 33 28 27 24 22
56 55 55 55 54 55 55 55 55 54 54 53 51 50 48 41 37 36 34 28 24 19 20 18 15 16 14 12 14 19 23 19 20 25 25 22 22 22 24 30 33 34 30 22 24 19 19
56 55 55 54 54 55 55 55 55 54 53 52 50 43 39 35 36 37 32 28 27 24 23 20 16 15 13 13 16 19 20 19 20 24 24 23 21 26 27 31 33 32 31 26 20 18 16
55 54 55 55 55 55 55 55 54 54 53 51 45 36 32 33 34 34 29 28 26 25 24 22 18 16 15 15 16 19 24 25 22 24 25 26 23 22 23 24 28 27 30 27 24 24 21
55 54 55 55 55 55 55 55 54 53 52 51 42 34 32 32 33 31 26 26 25 26 26 25 25 20 25 22 17 18 23 25 25 24 25 20 25 23 22 22 22 24 26 28 24 21 20
55 54 55 55 55 55 55 55 54 53 51 46 33 29 32 30 29 27 26 26 31 25 27 26 26 24 25 26 23 26 24 27 28 26 17 20 20 22 21 23 23 24 23 26 23 28 22
55 54 55 55 55 55 55 55 53 52 51 45 31 25 29 30 27 24 26 22 25 25 27 25 25 27 26 24 26 22 24 26 29 27 27 25 18 20 21 21 24 23 24 24 22 22 28
55 53 54 55 55 55 55 55 53 52 52 46 28 24 25 28 29 26 24 23 21 25 26 28 28 28 28 27 26 24 23 25 27 28 39 38 20 26 19 21 21 23 21 23 23 22 24
54 52 53 54 55 55 55 55 53 52 51 47 28 24 30 24 22 24 24 23 21 21 23 26 27 27 28 27 27 26 25 26 26 35 32 28 24 25 22 19 20 21 21 20 22 23 22
54 53 53 53 54 55 55 55 54 52 51 37 32 30 25 27 28 24 28 25 23 26 28 25 25 22 27 31 32 28 27 28 27 28 29 26 27 26 23 22 20 18 18 19 19 22 24
54 52 52 53 54 55 55 55 54 52 50 35 37 35 30 32 25 23 24 24 25 29 29 29 30 29 27 30 31 31 31 32 32 33 29 31 25 27 23 22 21 19 19 19 18 20 25
54 51 51 52 53 54 55 55 55 53 52 45 41 39 31 21 23 24 24 26 28 31 31 30 32 33 32 32 30 26 23 26 27 28 27 32 33 29 22 26 22 23 28 20 19 25 34
54 51 51 52 53 53 54 55 55 54 53 47 46 42 35 29 25 27 26 28 31 34 32 32 31 34 35 33 30 30 27 28 26 26 24 26 31 29 26 24 23 25 27 25 28 30 32
55 51 50 51 52 52 54 55 55 55 53 50 47 51 40 35 27 28 29 31 28 29 32 32 34 35 34 31 33 33 33 32 28 27 27 24 33 31 28 26 21 28 27 29 27 28 33
55 51 49 50 51 51 53 54 55 55 54 50 47 54 45 35 31 34 33 33 30 30 30 33 34 32 33 31 36 39 39 35 36 28 30 30 31 32 29 30 28 32 30 29 25 31 35
55 52 49 50 51 51 52 53 54 54 55 51 48 53 49 37 36 34 34 37 35 34 32 36 31 30 27 31 35 42 40 40 38 38 33 32 36 38 32 32 34 33 31 30 39 39 36
55 53 49 50 51 50 51 52 53 54 55 53 46 51 51 45 42 40 37 39 39 39 36 34 35 30 31 33 34 37 41 34 36 38 33 37 35 42 36 38 41 38 36 41 38 39 35

GFSGBSN_sfc_dewp_078.txt.gz
Dewpoint
55 55 56 55 55 55 54 54 54 54 54 54 54 54 54 54 54 55 55 55 55 55 55 55 55 56 51 41 26 54 64 61 34 44 51 43 35 43 45 46 53 59 57 53 49 57 57
55 55 55 55 55 54 54 54 54 54 54 54 54 54 54 54 54 54 55 54 54 54 55 55 55 56 44 33 34 50 36 31 30 44 49 39 33 41 43 43 51 53 56 49 47 47 50
55 55 55 55 54 54 53 54 53 54 53 53 53 54 53 53 54 54 54 54 54 54 55 56 56 51 42 31 35 42 34 26 31 40 41 37 34 38 38 36 43 47 53 48 45 44 49
55 54 54 54 54 55 55 54 54 55 55 54 54 55 55 54 54 54 54 54 53 55 58 58 56 46 38 30 33 35 32 26 28 37 41 35 34 32 31 33 38 41 45 45 43 41 48
56 55 54 54 54 54 55 55 54 55 55 55 55 55 54 54 54 54 54 53 54 59 57 57 49 44 34 44 33 34 35 28 30 37 37 30 31 32 31 30 35 37 39 40 42 41 48
56 55 54 54 55 55 55 55 55 55 55 55 55 54 54 53 53 53 53 53 54 56 55 48 47 40 36 32 30 36 37 31 30 32 31 30 32 31 31 29 29 33 36 39 44 41 44
55 55 55 54 55 55 56 56 56 55 55 55 56 55 55 53 52 52 50 48 45 47 44 34 32 34 27 33 31 34 36 29 28 30 29 32 28 25 28 28 28 30 30 33 43 45 41
55 55 54 54 55 55 55 56 56 55 55 56 55 55 54 54 53 53 49 44 28 28 26 34 30 26 25 31 30 29 33 29 27 26 27 26 23 23 26 26 25 25 24 27 42 46 51
56 55 55 55 55 55 55 56 56 55 55 55 54 54 54 53 53 48 41 35 27 26 24 27 26 22 27 33 32 28 29 29 25 23 21 21 19 21 24 24 23 21 21 29 40 48 48
57 56 56 55 55 55 55 55 55 55 54 54 54 53 53 52 44 37 33 27 25 25 24 22 20 22 23 30 30 29 31 26 26 23 22 19 19 17 21 22 21 22 25 29 38 36 32
57 57 56 55 55 55 55 55 55 54 54 54 54 53 53 51 41 34 30 25 27 26 21 18 17 20 20 24 24 27 30 28 28 22 21 20 19 18 18 21 24 27 27 28 35 34 30
57 56 55 55 55 55 55 55 55 54 54 54 54 53 52 46 43 34 24 26 28 21 20 14 16 16 20 21 20 27 28 30 28 25 23 17 18 18 18 22 28 31 30 25 29 33 27
57 56 55 55 55 55 55 55 55 55 55 54 53 52 50 43 35 30 28 28 24 20 27 14 10 14 17 19 18 23 28 25 25 24 25 25 22 15 19 21 28 30 31 25 25 27 25
57 56 55 55 55 55 55 55 55 55 54 53 51 51 47 42 38 32 32 30 30 34 29 18 13 12 16 19 17 20 24 22 25 23 23 24 21 25 23 20 24 29 29 26 26 22 21
57 56 55 55 55 55 55 55 55 54 54 52 50 43 40 41 42 34 33 32 35 36 22 18 12 13 14 13 13 17 23 23 22 22 24 28 24 23 23 21 24 29 30 30 23 22 19
58 56 55 55 55 55 55 55 55 54 53 52 43 39 39 28 31 38 35 32 28 22 21 21 18 15 14 12 14 19 19 23 25 23 26 26 27 24 20 21 27 31 31 27 27 26 26
57 55 55 55 55 55 55 55 55 54 52 52 42 37 33 23 27 37 36 25 23 22 21 25 25 24 25 20 23 26 30 28 25 23 25 24 28 26 26 25 27 30 33 29 26 26 25
57 55 54 55 55 55 55 55 54 53 51 47 40 34 28 23 29 25 24 23 30 23 21 21 23 25 25 27 29 27 32 28 25 24 22 23 20 28 22 21 23 26 27 27 26 31 27
57 55 54 55 55 55 55 55 54 52 52 43 37 23 25 28 34 28 24 20 23 23 24 22 23 23 26 25 29 27 28 25 26 23 32 30 20 23 22 20 22 21 23 24 23 25 32
57 55 54 55 55 55 55 55 53 53 52 47 36 24 23 24 22 23 23 20 18 19 23 27 26 25 23 23 25 28 22 22 24 25 41 37 21 28 30 26 22 22 22 23 21 21 24
56 53 53 54 55 55 55 55 54 52 52 48 31 19 26 23 20 22 24 21 19 20 19 23 27 26 30 34 23 24 23 22 23 32 26 24 22 23 25 22 19 20 19 20 22 25 30
56 53 53 54 55 55 55 55 54 53 51 44 31 30 24 25 26 24 27 23 21 23 27 22 22 20 25 39 39 37 34 25 23 24 24 24 26 31 26 22 20 19 19 19 20 20 25
56 53 52 53 54 55 55 55 55 53 51 37 36 33 32 31 24 20 20 21 22 27 25 27 28 28 25 31 31 36 31 32 39 33 28 28 25 31 27 23 22 20 20 19 19 21 40
57 54 52 52 53 54 55 55 55 54 52 50 40 42 36 21 22 21 20 24 27 30 29 29 33 33 32 29 28 25 21 23 26 29 28 31 37 31 28 27 23 23 23 21 21 24 36
57 55 51 51 52 53 54 55 56 55 53 48 44 43 37 28 22 24 23 26 29 33 30 29 29 32 33 32 29 27 23 26 24 22 23 25 29 30 28 31 30 27 27 25 22 26 35
57 55 51 51 52 52 53 54 55 55 54 48 48 48 45 34 28 27 26 29 29 29 31 28 31 33 32 32 32 31 37 33 31 27 25 24 30 33 29 26 23 30 25 26 26 28 35
57 56 52 50 51 52 52 53 55 55 54 50 48 53 48 39 31 31 34 34 28 28 30 32 31 31 31 32 32 39 40 35 36 30 30 27 29 30 29 28 31 33 28 28 27 30 35
56 56 52 50 51 52 51 53 54 55 55 52 49 52 49 44 36 32 32 34 32 33 32 35 30 30 28 29 33 43 39 39 36 36 36 32 35 36 30 32 35 33 31 29 40 39 35
55 56 53 50 50 52 51 52 53 54 55 54 49 51 50 45 42 38 34 35 37 39 37 33 34 34 33 32 34 37 39 32 35 37 33 37 35 44 36 42 44 39 39 42 40 39 37

GFSGBSN_sfc_dewp_081.txt.gz
Dewpoint
56 55 55 55 55 55 54 54 54 54 54 54 54 54 54 54 54 54 54 55 54 54 55 55 56 56 54 46 37 51 66 64 48 38 40 51 50 39 42 48 55 58 55 56 57 57 59
55 55 55 54 54 54 54 53 54 53 54 53 53 53 54 53 54 54 54 54 54 54 54 55 56 56 51 33 47 52 45 42 25 31 41 51 45 36 41 44 54 56 53 54 58 57 57
56 55 54 54 54 54 54 55 54 54 55 55 55 55 54 54 54 54 54 54 54 54 55 56 57 52 42 37 45 45 36 26 21 31 47 49 47 33 38 40 44 57 50 54 55 57 58
57 55 54 54 55 54 55 55 55 55 55 55 55 55 54 54 54 54 54 55 54 54 56 58 57 50 39 34 35 40 33 25 26 32 45 43 38 34 31 34 33 50 52 50 47 49 58
57 55 55 54 54 56 56 56 56 56 56 54 54 54 54 53 53 53 54 54 54 55 58 58 53 49 38 44 32 34 32 27 22 31 35 40 34 32 31 30 29 35 39 44 47 49 55
56 56 55 54 55 56 56 56 56 56 54 54 54 54 54 53 53 53 53 53 53 54 56 49 43 41 39 34 29 31 33 26 25 31 35 34 30 31 31 30 27 34 36 38 43 43 54
57 56 56 55 55 56 56 56 56 56 54 54 54 54 53 54 54 53 51 49 46 47 48 36 36 41 33 36 31 31 36 31 29 32 31 30 29 29 30 31 29 31 35 36 43 49 53
57 56 56 56 56 56 56 56 56 55 55 54 54 53 53 54 54 53 50 45 44 26 26 41 33 33 34 31 27 34 35 28 28 28 29 29 29 30 28 29 29 27 24 30 44 52 55
58 57 57 56 56 56 56 56 56 54 54 54 54 53 53 54 53 49 44 41 39 25 24 23 33 31 25 29 28 30 34 29 25 26 27 27 28 29 23 25 26 25 24 26 43 47 53
58 57 56 56 56 56 56 56 56 55 54 54 54 53 53 53 48 40 37 38 37 27 23 24 28 25 24 32 31 30 30 30 25 24 24 24 24 23 20 20 24 22 24 23 44 43 43
57 57 56 56 56 56 56 55 55 55 55 55 55 55 54 52 47 36 34 24 26 27 22 25 20 22 21 24 31 30 29 28 26 22 23 21 19 18 17 18 22 22 23 29 40 40 40
57 57 56 56 56 56 55 55 55 55 55 55 55 54 53 49 48 41 37 35 29 24 24 25 17 17 17 22 23 27 30 30 27 27 24 22 21 18 20 18 20 23 25 30 37 37 34
57 57 56 55 56 55 55 55 55 55 55 54 53 52 51 47 39 38 35 31 28 31 38 23 17 16 17 21 21 23 27 27 27 24 25 24 20 17 17 18 21 24 29 29 25 32 33
58 57 55 55 55 55 55 55 55 55 54 53 52 51 50 46 39 40 37 38 36 34 33 32 29 14 14 18 20 25 27 25 26 26 24 24 22 24 16 20 22 26 29 29 24 26 29
59 57 55 55 55 55 55 55 55 54 54 52 50 47 45 42 44 43 42 39 35 34 33 27 19 16 15 16 18 19 24 25 23 24 23 27 26 25 23 21 21 25 25 29 27 25 24
58 57 55 55 55 55 55 55 55 54 53 52 47 42 38 40 41 42 37 36 32 32 21 25 27 27 24 20 19 18 27 27 23 24 27 29 26 28 28 25 20 20 32 27 30 29 25
58 57 55 54 55 55 55 55 55 54 52 52 48 41 38 33 36 42 34 34 27 22 20 27 25 27 27 29 29 32 31 26 25 25 25 25 29 29 28 20 18 32 33 37 30 30 26
58 57 55 54 55 55 56 55 54 53 51 49 43 40 41 26 35 40 35 26 29 22 26 24 25 26 31 31 31 34 32 33 25 26 23 31 19 30 29 28 26 25 32 34 30 28 38
58 57 55 54 54 55 55 55 54 52 52 50 44 40 30 32 33 35 29 20 20 22 24 26 25 26 25 29 34 33 33 24 25 28 31 31 26 24 28 27 22 21 23 22 25 26 31
58 57 55 54 54 55 55 55 54 53 52 50 45 34 34 33 27 24 27 24 22 16 20 24 29 29 26 28 29 29 29 22 24 24 47 40 23 24 29 30 27 22 21 22 26 22 38
58 57 55 54 54 55 55 55 54 53 52 51 46 26 33 27 26 25 29 25 20 22 24 25 32 30 35 35 35 27 33 27 25 38 29 26 24 25 28 29 25 21 20 21 22 27 37
58 57 55 54 54 55 55 55 54 53 51 53 40 36 36 29 33 34 32 28 22 23 27 26 28 24 39 38 38 37 37 35 31 33 23 24 28 29 27 27 24 21 22 21 21 38 43
57 57 55 53 54 54 55 55 55 53 51 51 46 46 45 37 30 24 25 23 21 31 28 27 30 33 34 33 38 41 39 36 41 34 34 29 31 32 25 31 26 23 23 21 37 40 40
57 57 55 53 53 54 54 55 55 54 53 50 52 47 46 38 26 25 22 27 29 33 32 28 34 37 35 32 31 27 27 26 26 29 28 30 34 32 30 32 24 26 28 25 25 37 41
57 57 56 53 52 53 54 54 55 55 54 49 52 50 50 43 27 24 24 27 32 35 32 29 30 34 34 34 32 28 25 26 26 25 24 26 31 30 31 31 31 30 28 26 25 36 42
56 57 56 53 52 52 53 53 55 55 54 51 51 56 51 47 32 28 30 36 34 34 33 30 34 35 35 36 36 33 35 38 35 31 31 27 32 32 33 32 26 31 29 30 31 34 42
55 56 57 54 51 51 52 53 54 55 54 52 51 58 54 49 37 38 39 38 35 37 36 35 33 35 33 36 36 39 38 40 35 36 35 29 30 31 32 32 34 36 29 30 28 34 39
54 55 57 55 51 51 52 52 53 54 55 53 51 56 53 49 45 37 35 41 38 41 39 37 36 36 34 33 39 42 40 41 36 36 35 35 35 35 32 31 30 38 34 35 40 37 38
53 55 56 55 51 52 52 52 53 53 54 54 53 56 56 51 47 45 40 43 43 41 42 37 37 40 39 37 40 43 41 36 37 35 36 33 38 38 36 38 41 41 42 42 41 39 39

GFSGBSN_sfc_dewp_084.txt.gz
Dewpoint
56 54 54 54 54 54 54 53 53 53 53 54 54 53 53 54 54 54 54 54 54 54 54 55 56 56 53 45 40 45 69 64 61 43 34 39 50 50 46 47 59 59 57 61 58 58 58
55 55 54 54 54 54 53 54 55 55 55 55 55 55 54 54 54 54 54 54 54 54 55 54 55 56 50 25 37 55 52 46 36 34 34 45 51 49 41 40 56 57 55 63 61 58 60
55 55 54 54 55 54 55 55 55 55 56 55 55 54 54 54 54 54 54 54 54 55 54 55 56 53 47 33 42 51 42 35 27 29 40 38 49 49 36 35 43 52 51 57 57 59 60
56 56 54 54 55 56 56 56 56 56 55 54 54 54 54 54 54 53 53 53 54 55 55 56 56 51 39 40 37 39 38 25 24 28 36 48 48 42 33 33 46 54 52 48 55 57 59
57 56 56 55 56 56 56 56 56 56 55 54 54 55 54 54 53 53 53 54 54 55 56 58 50 48 35 46 37 35 33 26 21 28 32 36 39 36 31 30 29 47 48 48 52 57 58
57 56 56 55 55 56 56 56 56 56 54 54 54 54 53 53 53 54 54 54 53 54 55 52 47 42 40 35 31 33 34 28 22 26 31 33 34 30 30 30 26 28 36 41 48 56 58
57 56 56 56 56 56 56 56 56 55 54 54 54 53 53 53 53 53 50 48 45 46 49 33 35 41 39 37 32 30 32 26 25 30 32 33 27 26 28 30 31 30 30 35 48 56 56
58 57 56 56 56 56 56 56 56 55 54 54 54 54 53 53 54 53 48 44 44 35 25 43 36 40 38 38 30 30 35 28 27 28 32 29 27 29 30 31 30 30 29 28 52 53 53
57 58 57 56 56 56 56 56 56 56 55 54 54 55 54 52 52 48 45 41 43 36 25 23 38 37 35 32 31 28 34 29 27 28 29 28 29 31 31 29 27 26 27 28 46 53 54
57 57 57 56 56 56 56 56 56 56 55 55 55 55 54 53 46 42 39 38 39 34 21 21 23 32 29 29 28 32 34 30 27 25 27 27 28 29 29 29 24 24 26 26 47 45 43
59 57 57 56 56 56 56 55 55 55 55 55 55 55 53 52 44 36 34 35 35 25 20 32 28 28 22 27 31 30 31 30 25 23 24 23 24 24 23 25 22 21 25 26 41 42 49
59 57 57 56 56 56 56 55 55 55 55 55 55 54 52 49 48 44 42 40 28 23 23 34 20 20 19 22 24 29 28 30 30 28 27 23 24 20 20 19 19 21 28 38 39 39 36
59 57 57 56 55 55 55 55 55 55 55 54 53 52 50 47 35 39 38 35 31 32 36 32 28 28 18 20 21 25 29 28 27 25 25 25 25 22 20 17 19 21 28 27 26 32 33
59 58 57 55 55 55 55 55 55 55 54 53 51 51 50 48 45 40 40 36 30 32 32 35 31 26 17 19 21 24 27 26 27 27 25 23 21 23 22 17 17 21 27 29 24 28 30
57 57 57 55 54 55 55 55 55 54 54 52 50 46 46 45 47 43 38 34 29 32 32 31 27 22 23 18 19 26 26 26 25 25 23 23 25 30 29 20 20 21 24 28 26 27 24
58 57 57 56 54 55 55 55 55 54 53 51 46 41 38 39 43 40 34 34 33 34 31 30 26 27 27 27 29 26 26 26 24 25 26 25 25 26 26 25 21 19 27 28 28 27 25
58 57 57 56 54 55 55 55 55 54 53 51 45 37 39 40 40 35 29 32 31 28 30 26 25 28 29 29 31 33 30 26 25 25 26 30 22 21 29 25 20 28 29 33 30 29 26
57 58 57 56 54 55 55 55 54 53 52 49 42 37 41 31 28 38 34 30 29 22 25 24 23 27 30 31 31 32 30 26 26 29 26 33 21 20 30 30 30 31 30 32 30 28 39
56 57 57 56 54 55 55 55 54 52 52 48 39 40 37 32 27 32 29 20 19 16 21 24 25 23 30 31 31 32 31 25 25 26 23 26 22 23 25 26 29 22 21 26 28 32 36
56 57 58 56 54 55 55 54 54 53 52 48 41 36 27 26 24 22 22 20 17 16 19 22 27 29 31 31 32 28 29 23 25 24 48 36 21 23 24 29 29 22 21 21 24 22 37
57 58 57 56 54 54 55 54 54 53 52 49 43 34 23 18 19 19 22 24 23 23 26 27 27 32 31 27 33 35 35 33 25 37 26 24 24 25 25 25 25 24 22 23 23 26 34
57 58 57 56 54 54 55 55 55 54 52 49 36 38 40 32 26 20 27 22 22 23 26 27 32 36 37 33 37 34 35 32 35 34 30 26 30 27 26 31 29 24 24 31 37 43 45
57 57 57 56 54 54 54 54 55 54 50 47 49 46 42 39 25 20 23 24 29 27 29 31 35 32 29 32 37 38 38 36 34 35 29 32 29 28 27 32 26 24 26 26 40 44 46
56 57 57 56 54 54 54 54 55 54 52 48 49 47 43 38 23 23 25 30 30 32 29 29 30 32 31 32 28 28 30 25 23 23 26 25 31 30 27 29 23 27 29 27 38 43 45
56 56 57 57 54 53 54 54 55 55 54 49 46 46 46 43 35 25 24 25 30 30 29 30 31 31 32 32 30 25 27 23 32 24 22 25 28 25 26 27 28 29 27 27 27 39 45
55 54 56 57 54 53 53 54 55 55 54 50 46 53 49 45 30 29 29 31 32 31 29 30 30 34 33 33 33 30 29 35 33 34 27 26 29 28 30 28 23 29 30 30 32 34 44
54 54 54 57 55 51 52 53 54 54 54 52 46 51 49 46 44 36 35 33 33 34 33 31 29 30 32 34 36 31 32 38 31 34 34 32 27 26 30 30 34 36 34 32 29 31 41
53 53 54 56 55 52 52 53 53 54 54 52 47 51 47 45 45 40 34 36 38 39 34 33 32 36 33 31 36 34 32 35 31 35 32 32 29 28 29 26 26 39 37 31 36 38 41
52 53 54 56 55 52 52 52 53 54 54 53 50 52 53 45 44 44 42 37 38 38 37 34 36 37 35 36 38 38 34 35 34 29 34 29 34 34 34 34 40 41 39 41 38 38 39

GFSGBSN_sfc_dewp_087.txt.gz
Dewpoint
55 54 54 54 54 53 53 54 55 55 55 55 54 55 54 54 54 54 54 54 54 54 54 54 54 56 52 39 32 32 70 61 64 50 37 39 48 54 52 53 59 57 59 60 57 59 60
54 55 54 54 54 54 55 55 55 55 55 55 54 54 54 54 54 54 54 54 54 53 54 54 54 56 48 12 16 52 55 58 50 37 33 40 50 53 48 48 57 59 59 60 59 57 61
56 55 55 55 55 55 55 55 55 55 55 54 54 54 53 53 53 53 53 53 53 53 54 53 54 53 46 24 44 50 47 41 32 32 31 36 49 50 46 38 44 57 57 58 60 59 60
57 56 55 54 54 55 55 55 55 55 55 54 54 54 54 53 53 53 53 53 53 54 54 54 55 51 30 35 39 35 41 31 29 28 34 42 41 46 42 40 44 53 55 53 56 59 61
58 57 56 56 55 55 56 56 56 55 54 55 54 54 53 53 53 52 53 54 54 55 54 55 49 45 30 45 37 32 39 27 23 24 33 32 40 38 34 30 28 39 47 48 56 61 60
57 57 56 56 56 56 56 56 55 55 54 54 54 53 53 53 52 53 53 53 53 53 55 54 48 41 39 34 34 34 36 25 22 23 30 32 34 31 30 29 27 33 44 47 51 58 59
57 57 56 56 56 56 56 56 56 55 54 54 54 53 53 53 52 53 50 48 44 43 48 28 32 39 39 38 35 32 33 26 26 30 30 34 30 27 29 30 30 31 30 29 50 57 57
57 57 57 56 56 56 56 56 56 55 54 54 54 54 54 53 52 51 48 39 41 37 33 40 37 39 40 37 34 30 30 25 26 25 31 30 28 28 28 30 31 32 30 37 54 57 56
59 57 57 57 56 56 56 56 56 56 55 54 54 53 53 53 52 47 42 38 41 43 30 25 40 36 34 35 32 30 29 29 25 27 30 29 28 31 30 30 29 27 27 28 50 54 55
59 57 57 57 56 56 56 56 56 56 55 54 54 54 55 53 44 42 39 39 37 35 21 22 24 28 33 30 28 31 33 29 28 25 29 28 30 29 30 30 27 29 26 29 51 48 46
59 58 57 57 55 55 56 56 55 55 55 55 55 55 53 50 44 36 35 41 38 25 22 31 31 28 25 28 29 30 34 30 24 25 26 26 26 26 27 28 26 25 25 26 49 43 46
58 58 57 58 55 55 55 55 55 55 55 55 55 54 52 49 47 45 45 39 28 26 25 33 31 29 20 22 25 29 29 30 29 26 27 25 25 24 24 24 25 24 25 33 39 39 39
57 58 57 58 55 55 55 55 55 55 55 54 53 52 50 47 34 40 39 37 28 26 34 30 28 30 23 19 22 26 27 27 26 24 24 26 26 24 21 20 20 24 26 26 34 35 35
58 57 57 57 55 54 55 55 55 55 54 53 51 50 49 49 45 42 39 30 27 31 32 33 32 29 26 19 21 24 27 26 28 26 25 24 21 23 22 21 18 21 21 26 25 30 32
58 58 57 57 55 54 55 55 55 54 54 52 50 45 45 45 48 43 36 30 26 31 29 30 26 25 26 24 20 26 27 26 26 26 24 23 24 28 28 22 19 22 25 27 26 31 27
58 58 57 57 55 54 55 55 55 54 53 51 43 41 38 43 44 36 32 32 31 33 31 29 24 28 26 28 29 26 26 26 24 26 25 26 25 26 27 26 22 20 26 24 27 26 26
57 57 58 57 56 54 55 55 55 54 53 51 42 37 38 43 38 32 26 30 32 28 33 25 25 29 29 29 32 31 29 25 26 27 28 29 24 20 29 25 21 23 30 32 29 29 29
57 57 57 57 55 54 55 55 54 53 52 48 41 32 40 35 31 37 31 31 28 19 25 26 24 26 29 32 33 30 24 25 26 29 24 29 20 21 28 26 29 23 24 32 28 31 37
56 57 58 57 55 54 55 55 54 53 52 47 37 37 41 31 24 30 30 20 16 18 19 24 26 25 32 30 30 30 29 24 24 24 22 25 22 23 25 28 29 22 21 29 29 35 37
56 57 58 57 55 54 54 54 53 53 52 48 39 24 26 24 25 23 21 21 16 26 27 25 28 30 30 30 35 32 33 30 26 27 46 33 21 23 27 28 28 24 22 23 23 22 33
56 57 58 57 56 54 54 54 54 53 52 46 41 31 28 19 20 22 24 24 25 24 27 30 34 35 29 31 33 33 33 32 31 39 25 24 25 26 28 27 27 24 24 30 23 26 34
56 57 57 57 56 54 54 55 54 53 51 46 38 39 41 34 26 20 25 22 24 23 26 29 33 34 35 32 35 31 34 32 34 32 30 29 28 27 28 33 28 26 27 27 41 45 45
55 56 57 58 57 54 54 55 55 53 49 45 47 46 41 39 22 22 22 23 30 28 30 33 35 31 28 30 37 36 37 35 31 33 26 30 27 27 28 30 34 32 28 28 39 45 45
56 55 56 57 57 54 54 55 55 54 52 47 47 46 41 37 23 26 29 31 29 31 28 29 33 31 31 32 30 29 27 24 29 23 25 24 31 28 26 27 27 32 31 35 43 44 45
56 55 55 56 57 54 53 55 55 54 53 48 44 46 45 40 36 26 25 27 29 30 28 30 31 31 32 33 30 25 30 22 34 29 24 26 27 28 24 26 27 28 28 26 34 41 45
55 54 54 55 57 54 52 53 54 54 53 48 46 51 48 38 34 32 28 32 29 31 29 29 29 33 34 34 34 28 27 33 31 32 35 28 27 27 30 26 19 26 30 31 32 34 45
55 54 53 54 57 54 51 53 53 54 53 50 46 50 48 45 45 39 33 31 33 33 31 31 28 31 32 35 34 30 31 37 30 32 32 30 27 24 30 27 31 35 36 37 29 30 44
54 54 53 54 56 54 51 53 53 53 54 51 46 50 45 43 42 44 39 36 38 36 31 32 31 35 32 33 35 31 31 33 29 33 31 30 27 26 28 25 24 37 36 28 32 39 41
52 53 52 54 56 54 52 53 53 53 54 52 47 48 52 43 40 45 41 39 38 38 36 35 34 36 34 35 37 36 32 34 30 28 33 29 34 33 33 32 36 40 40 40 38 39 40

GFSGBSN_sfc_dewp_093.txt.gz
Dewpoint
55 55 55 54 54 54 54 54 54 54 54 54 54 54 53 53 54 53 53 53 53 53 53 53 53 54 51 33 27 26 66 61 61 45 38 38 43 56 52 55 57 56 58 57 58 59 59
56 56 56 55 56 56 55 55 55 54 54 54 54 54 53 53 53 53 53 53 53 52 52 53 53 54 45 25 34 55 54 56 52 39 35 42 51 57 54 53 56 58 58 58 58 59 59
56 56 56 55 55 55 55 55 55 55 54 54 54 53 53 53 53 52 52 52 52 52 52 53 53 53 42 23 35 56 48 45 43 35 32 39 53 52 52 46 51 58 56 57 58 59 59
57 56 56 57 56 56 55 55 55 54 55 54 54 54 53 53 52 52 51 51 52 53 53 52 54 52 23 28 36 49 38 36 36 31 32 33 49 49 47 46 51 56 55 53 57 58 63
59 57 56 57 56 56 55 55 55 54 54 55 54 53 53 53 52 52 51 52 53 53 53 54 50 44 21 44 35 39 36 31 35 27 26 32 37 43 38 34 51 52 50 52 55 59 60
59 58 56 56 57 56 56 56 56 55 54 54 54 53 53 53 52 52 52 52 56 56 54 53 49 41 36 33 35 36 35 28 26 25 29 33 36 41 34 30 38 49 48 50 52 56 58
59 59 57 56 57 56 56 56 56 56 55 54 54 53 53 52 52 51 48 50 40 39 48 32 30 31 31 37 33 32 34 24 25 27 30 35 40 41 38 32 34 48 47 46 48 56 56
59 59 58 56 57 57 56 56 56 56 56 56 55 53 53 53 52 51 48 34 37 36 34 38 40 36 34 36 28 32 34 23 23 20 31 35 39 39 36 31 30 34 40 38 54 56 56
59 58 58 56 56 57 56 56 56 56 56 56 56 54 53 53 52 49 41 34 39 37 32 27 34 35 32 32 28 31 31 25 22 29 32 31 36 34 34 32 29 30 30 50 48 56 55
59 58 57 57 56 57 55 55 56 56 56 56 56 54 53 52 45 43 37 39 39 38 25 29 30 30 34 33 30 32 31 24 26 25 33 36 31 32 29 30 30 29 29 39 53 49 49
59 59 58 57 56 57 55 55 55 56 56 55 55 53 52 51 43 38 35 41 38 29 21 30 32 32 31 27 29 30 32 30 25 29 31 31 30 30 30 29 30 30 28 34 51 48 49
59 59 58 57 56 57 55 54 55 55 55 55 54 52 51 48 48 43 43 37 30 25 20 28 29 29 24 23 27 31 31 31 29 28 29 29 28 29 29 29 32 31 35 41 46 45 37
59 59 57 57 56 57 55 54 55 55 54 54 53 51 49 46 35 41 41 36 27 24 31 24 26 29 29 21 25 29 29 29 29 26 28 28 26 25 25 24 29 26 22 31 31 34 26
59 58 57 57 56 57 55 54 55 54 54 53 51 50 50 48 47 44 38 31 25 27 28 30 28 25 25 22 23 27 30 29 28 27 25 25 23 26 25 25 23 26 23 26 28 31 31
58 57 57 57 56 56 55 54 54 54 54 52 50 45 44 43 47 45 36 29 25 27 27 27 27 27 27 24 23 27 28 30 29 28 25 24 22 26 24 25 24 24 21 25 30 32 31
58 57 56 57 56 56 55 54 54 54 53 51 47 42 40 44 45 37 33 31 30 30 31 27 27 29 28 28 27 28 27 26 25 27 28 28 24 26 27 22 25 25 25 22 26 30 29
58 56 57 57 56 56 55 54 54 54 52 51 42 39 40 44 40 36 28 29 31 27 31 24 25 29 30 31 31 30 25 23 24 27 28 27 27 26 29 27 23 26 25 29 27 30 26
57 56 57 57 56 56 55 54 54 53 51 48 38 34 41 37 34 36 32 31 29 18 24 27 26 30 32 33 31 25 23 24 24 28 25 27 25 27 25 26 26 25 31 31 21 33 39
57 56 57 57 57 57 56 54 53 52 52 49 39 37 41 36 27 28 31 19 26 24 27 28 28 32 35 34 34 34 30 26 29 24 28 29 27 25 24 25 28 30 28 31 34 38 39
57 57 57 57 57 56 55 54 53 53 52 48 40 28 30 28 27 27 23 21 24 27 31 32 35 31 33 35 39 35 33 32 33 36 41 38 27 29 23 27 28 32 35 27 27 24 35
57 56 56 57 57 57 56 54 54 53 52 47 38 32 31 25 26 25 26 25 24 25 28 35 34 34 30 32 32 33 33 33 35 39 32 32 30 30 30 30 30 32 38 39 27 29 29
56 57 56 56 57 57 56 54 54 53 51 48 41 40 40 38 28 25 29 26 23 24 30 32 32 31 35 36 34 31 31 32 30 34 35 33 34 32 30 31 33 28 34 42 42 42 42
56 56 56 56 56 57 56 54 54 53 50 47 48 47 41 36 25 24 25 27 28 30 29 33 33 31 30 30 32 36 32 28 30 30 32 34 31 35 30 32 33 30 31 34 39 44 43
54 56 56 55 55 57 56 54 55 54 52 48 48 48 39 28 29 29 28 29 28 29 27 27 33 32 32 32 32 28 30 32 31 31 27 35 35 33 29 34 26 32 34 37 37 42 45
54 54 55 54 54 56 56 54 55 54 53 50 47 48 44 32 31 28 30 30 30 31 29 28 30 33 35 35 28 28 26 27 33 34 29 34 35 31 31 29 28 29 30 30 32 34 45
55 54 54 54 53 55 57 54 54 54 53 49 47 52 49 37 29 28 29 31 30 31 31 29 32 35 38 37 36 29 32 32 29 29 35 31 37 32 32 24 23 29 33 36 35 31 46
55 54 53 54 54 54 56 54 53 54 53 52 48 52 50 44 43 36 33 32 34 32 33 34 32 32 36 37 37 39 38 39 35 29 30 30 32 29 31 28 27 34 36 38 32 34 44
55 55 53 52 53 54 56 53 53 53 54 52 50 52 49 43 43 44 37 38 37 35 33 35 34 34 34 38 38 41 42 40 38 37 36 30 34 35 32 30 30 38 36 32 38 42 43
54 55 54 52 53 54 56 52 53 53 53 52 50 50 52 47 42 46 44 43 41 39 37 37 37 38 36 39 41 38 39 37 32 35 37 38 37 43 35 36 39 42 42 42 41 42 44

GFSGBSN_sfc_dewp_096.txt.gz
Dewpoint
56 56 55 55 55 55 55 55 55 55 55 55 54 54 54 53 53 53 53 53 53 53 53 53 54 54 50 37 28 37 63 59 46 46 37 33 34 51 55 56 55 56 57 56 56 58 59
55 56 56 56 56 55 55 55 55 55 55 54 54 54 54 54 53 53 53 53 53 53 52 53 54 55 41 25 32 50 43 46 43 39 35 32 34 52 55 55 55 57 56 56 57 58 59
57 56 55 56 55 55 55 55 55 55 55 55 54 54 53 53 53 53 52 52 52 52 53 53 54 50 37 24 34 50 43 44 41 35 35 34 41 54 52 48 54 57 55 56 57 58 57
59 57 56 56 57 56 56 55 55 55 54 54 54 54 54 53 53 52 52 52 51 53 53 53 54 47 23 26 37 44 38 41 39 33 32 41 54 51 47 47 57 56 55 54 57 59 61
59 59 56 56 57 57 56 56 55 55 55 55 54 54 53 53 53 52 52 52 53 54 54 54 50 41 21 39 32 34 26 27 28 29 30 38 50 48 44 47 52 56 52 52 56 58 60
59 59 57 56 57 57 57 56 56 55 55 55 55 54 53 53 52 52 52 52 55 55 53 50 45 41 32 31 34 34 31 29 26 26 26 38 47 46 39 41 46 50 50 50 53 57 58
59 59 58 56 56 58 57 56 56 56 56 56 56 55 53 53 52 52 49 49 45 45 45 33 28 29 27 34 36 32 29 26 25 22 22 30 40 44 40 37 35 49 50 48 52 57 58
60 59 58 58 56 57 57 56 55 56 56 56 56 54 53 53 52 52 47 35 36 35 31 33 34 33 31 31 31 33 27 24 23 17 25 27 34 42 43 34 36 43 47 46 51 55 55
60 59 58 58 56 56 57 56 55 56 56 56 56 54 53 52 52 49 39 35 37 37 32 28 29 28 29 30 28 30 31 25 21 16 25 21 25 41 40 33 34 38 42 43 49 54 54
60 59 58 58 56 57 57 55 55 55 56 56 56 53 53 52 47 41 36 38 37 38 26 27 27 28 31 30 28 30 28 25 19 16 19 19 27 36 38 38 34 34 33 45 51 49 49
60 59 58 57 57 57 57 55 55 55 55 55 55 53 52 51 45 37 36 38 38 34 19 26 27 31 30 29 30 28 28 26 21 16 24 23 28 34 34 38 37 33 31 38 44 46 49
60 59 58 57 57 57 56 55 55 55 55 55 54 52 51 48 47 39 39 37 34 25 21 24 26 26 26 26 27 28 30 29 26 22 25 26 31 31 31 34 36 32 31 36 42 42 41
59 58 57 57 57 56 56 54 54 54 54 54 52 51 50 44 36 39 38 38 27 20 27 23 24 25 25 24 26 28 29 28 25 24 20 26 29 29 30 32 34 34 32 30 31 32 31
59 57 57 57 57 56 56 55 54 54 54 53 50 50 50 44 43 41 39 32 23 23 24 26 26 25 21 22 25 27 28 25 28 24 18 23 22 27 27 27 30 34 31 30 32 30 29
59 57 56 57 57 56 56 55 54 54 53 51 50 45 42 41 44 43 37 24 23 24 24 24 25 22 22 21 23 27 27 25 26 26 23 21 21 24 24 25 25 30 31 31 29 32 29
59 57 57 57 57 56 56 55 54 54 53 52 46 40 40 43 44 39 30 27 25 26 26 25 24 28 23 20 22 24 26 28 27 28 29 26 22 21 23 23 24 23 27 28 28 31 28
59 57 57 57 57 56 57 55 54 53 52 51 44 32 41 43 41 34 25 26 25 23 26 24 23 27 28 24 23 23 27 26 27 28 31 27 24 23 23 23 20 23 22 22 25 27 25
58 57 57 57 57 57 57 54 53 53 51 50 39 32 41 40 33 31 26 22 29 16 22 25 26 28 30 31 25 25 25 27 25 27 27 29 24 26 20 25 26 21 21 23 19 30 27
58 57 57 57 57 57 56 54 53 52 52 50 38 37 39 35 26 25 28 19 22 18 18 23 25 29 34 33 32 28 27 30 32 26 29 30 26 25 25 24 27 23 23 24 22 21 31
57 57 57 57 57 57 56 54 53 53 52 50 40 31 32 34 31 23 24 22 21 25 23 26 30 30 30 32 34 30 28 28 33 32 43 35 26 29 21 23 24 28 28 25 23 20 23
55 56 57 57 57 57 56 55 54 53 52 49 39 30 32 22 23 25 25 23 21 20 24 25 32 29 29 30 30 29 29 30 32 41 34 33 31 29 28 27 26 27 26 24 25 23 24
55 56 57 57 56 56 57 55 54 53 52 49 41 36 36 32 30 25 28 26 20 20 26 22 28 28 30 33 34 31 30 32 31 33 35 33 33 33 31 30 27 31 34 30 27 28 26
55 55 56 56 55 56 57 55 54 53 51 45 48 47 43 34 26 23 25 25 22 24 28 32 32 30 28 31 32 32 30 30 31 33 34 35 34 33 29 30 30 27 30 31 35 36 35
55 55 54 56 55 55 56 56 55 54 52 49 48 48 40 25 25 25 23 22 23 27 25 20 33 32 33 33 32 27 27 30 30 30 31 35 39 34 28 32 28 33 33 33 35 37 39
55 55 54 54 55 54 55 56 54 54 53 50 50 49 43 28 27 27 25 24 30 32 27 22 30 35 36 32 30 30 27 29 29 30 28 35 35 31 29 29 30 31 33 32 31 34 40
55 55 55 53 54 54 55 57 54 54 53 50 49 53 49 35 26 28 28 30 29 31 29 27 34 36 36 32 30 31 32 30 28 28 31 30 36 29 27 27 26 33 32 34 34 31 40
54 55 55 54 53 54 54 56 53 54 53 51 50 56 50 40 34 34 28 30 32 32 31 32 33 33 36 29 30 35 37 37 33 28 31 29 31 30 26 26 27 34 34 36 32 37 43
54 55 55 55 52 53 54 56 53 53 53 51 51 56 51 43 42 40 35 37 36 33 30 37 33 33 31 32 33 40 39 40 37 36 34 30 31 32 31 29 29 37 35 34 42 42 42
54 54 55 55 52 52 54 56 52 53 53 52 50 53 53 48 43 46 42 42 40 39 36 37 37 34 34 32 36 38 36 36 34 36 39 38 34 41 31 35 43 43 43 43 41 43 43

GFSGBSN_sfc_dewp_102.txt.gz
Dewpoint
57 57 57 57 57 56 56 56 56 56 55 55 55 55 55 54 54 54 54 54 54 54 55 55 55 56 49 42 32 52 68 63 36 31 38 39 34 43 52 56 56 56 57 57 59 56 54
59 57 57 56 57 57 57 57 56 56 56 56 55 55 55 55 55 54 54 54 54 54 54 54 55 56 45 32 30 47 41 44 22 30 36 38 32 35 49 52 57 57 56 57 57 59 55
59 59 57 57 57 58 57 57 57 57 56 56 56 55 55 55 55 55 54 54 54 54 54 55 56 50 38 32 27 34 36 24 19 27 33 34 32 30 38 49 56 54 55 58 59 60 56
59 59 57 57 57 58 57 57 57 57 57 56 56 56 55 55 55 54 54 54 54 54 54 55 56 48 37 25 28 37 36 28 20 26 34 32 29 28 34 51 51 54 55 55 59 60 56
60 60 59 57 57 57 58 57 56 57 57 57 57 57 56 55 55 54 54 53 54 56 56 56 52 45 32 33 20 32 34 32 30 26 31 31 29 31 37 46 51 57 54 54 56 58 58
61 60 59 57 57 58 57 57 56 57 57 57 57 57 56 55 55 54 54 53 55 55 55 49 46 39 33 23 22 33 32 32 29 27 29 30 31 35 42 44 48 50 53 53 55 59 57
61 60 59 59 57 58 58 57 56 56 57 57 57 57 56 55 55 54 50 48 49 47 48 35 32 27 25 28 32 27 24 27 26 23 23 25 23 34 42 43 45 51 56 54 55 57 55
61 60 59 59 57 57 58 57 56 56 56 56 56 56 56 55 54 54 50 40 30 31 32 36 22 19 23 29 28 28 25 20 19 17 20 20 18 26 38 44 54 53 52 54 54 54 58
60 60 59 58 57 57 57 57 56 56 56 56 56 56 55 54 54 50 39 35 33 34 33 26 20 20 19 21 25 26 26 22 19 17 14 18 18 22 30 37 44 48 48 51 51 53 56
60 59 58 58 57 57 57 57 56 55 55 55 56 55 54 53 49 39 35 34 33 35 31 25 23 24 22 23 21 28 26 23 20 17 12 13 17 17 24 31 42 49 52 52 53 50 48
60 59 58 57 57 56 57 57 56 55 55 55 55 54 53 52 45 35 34 33 34 34 29 22 22 27 27 23 22 25 28 23 20 16 14 11 14 17 19 28 41 42 51 51 52 50 51
60 59 58 57 58 57 56 57 56 55 55 55 55 53 51 48 47 38 35 34 34 30 26 19 21 23 23 23 24 25 27 27 24 20 14 12 14 16 17 27 35 41 45 51 52 52 48
59 59 58 57 57 57 56 56 56 55 54 54 53 52 51 46 41 35 34 33 32 29 20 21 19 17 19 21 21 23 23 23 23 22 21 14 12 19 20 22 29 38 37 41 46 46 44
59 59 58 57 57 57 57 56 56 54 53 53 52 52 50 44 36 37 36 34 33 19 17 17 16 17 13 24 21 22 21 19 22 23 18 15 11 21 23 25 25 32 38 32 38 39 45
58 59 58 57 57 57 57 56 56 54 53 53 51 45 41 41 40 36 35 34 34 20 18 16 17 25 21 17 19 24 22 21 21 21 23 19 16 14 21 23 25 28 29 32 32 39 39
57 58 58 57 57 57 57 57 56 53 53 52 48 41 36 35 35 36 34 33 24 19 16 15 17 24 25 27 20 21 23 21 20 21 22 25 26 20 20 23 24 26 28 26 39 34 35
55 57 57 58 57 57 57 57 56 53 52 52 46 37 35 32 33 33 31 31 21 17 14 13 18 19 21 34 26 25 22 28 28 26 29 23 26 26 21 22 20 20 21 24 25 32 33
54 55 57 57 57 57 57 57 55 52 52 50 42 32 36 31 29 30 28 26 25 8 13 13 17 18 20 29 30 33 32 31 29 29 29 29 25 25 23 21 21 18 19 20 23 30 29
56 56 55 57 57 57 57 56 55 52 52 48 41 36 37 31 26 30 30 17 11 13 11 13 13 21 21 32 31 36 33 34 32 27 34 32 28 25 25 23 20 19 18 18 16 21 31
55 56 56 56 57 57 56 56 55 53 53 50 43 36 31 29 29 30 28 20 16 20 16 16 16 22 23 26 35 39 44 34 30 27 53 40 28 28 21 30 30 20 17 17 16 16 18
54 55 56 56 57 57 56 56 55 54 53 50 41 34 32 23 22 23 21 22 16 14 17 17 21 22 23 33 39 34 37 34 29 38 33 29 30 30 25 26 28 27 18 16 20 18 20
53 54 55 56 56 57 56 56 55 54 52 49 41 38 38 26 26 21 25 19 17 14 17 19 20 20 23 25 42 39 36 43 35 35 32 30 32 36 34 29 30 26 26 17 16 17 19
53 52 54 55 56 56 56 56 55 54 52 48 45 44 41 34 24 19 21 23 19 18 19 17 23 25 25 30 30 35 35 29 38 35 34 35 38 40 36 39 32 26 31 30 19 21 22
53 53 54 55 56 55 56 56 56 55 53 47 50 48 45 32 24 21 19 19 16 21 24 15 22 27 30 30 27 25 23 26 28 31 31 36 42 41 42 39 31 39 36 34 37 25 43
53 53 55 55 55 56 55 55 56 56 54 48 46 48 46 43 34 21 22 19 21 28 22 18 16 28 31 25 25 29 26 31 30 28 32 35 42 43 42 39 40 36 40 36 39 41 40
53 55 55 55 55 56 55 54 55 57 54 50 46 51 47 45 33 24 22 23 23 29 28 21 25 27 26 24 26 32 36 41 34 30 28 36 45 44 40 38 34 43 43 42 39 45 49
54 55 55 55 55 55 55 54 55 56 54 50 47 53 47 45 40 29 25 26 25 30 30 30 26 26 27 29 29 36 40 45 38 38 30 37 40 37 40 41 40 44 45 40 32 41 42
54 55 55 55 55 55 55 53 54 56 54 51 46 53 49 48 43 35 28 31 30 30 31 34 29 30 26 30 29 34 33 41 39 37 36 36 34 34 37 39 37 42 40 33 49 43 44
54 54 55 55 55 55 55 53 54 56 53 52 44 51 52 48 46 45 35 32 32 35 34 36 36 40 33 30 32 32 32 31 34 30 34 34 37 39 38 46 49 46 48 47 44 45 44

GFSGBSN_sfc_dewp_105.txt.gz
Dewpoint
59 57 57 57 57 58 57 57 57 57 57 56 56 56 56 56 55 55 55 55 55 55 55 55 56 56 53 45 39 51 68 64 45 25 20 34 39 37 51 57 57 58 58 61 62 60 61
60 58 57 58 57 58 58 57 57 57 57 57 56 56 56 56 56 56 56 56 55 55 55 55 55 57 51 32 42 49 54 53 31 18 31 35 39 35 40 53 56 58 59 62 61 64 64
60 59 57 58 57 57 58 57 57 57 57 57 57 57 57 56 56 56 56 56 55 55 55 55 56 52 42 36 33 45 42 39 32 19 30 34 39 34 32 38 56 59 58 59 62 63 61
60 60 58 57 58 58 57 58 57 57 57 57 57 57 57 56 56 55 55 55 54 55 55 56 56 51 41 35 29 31 34 27 20 20 26 34 34 31 28 43 52 55 56 55 60 62 62
61 60 60 57 57 58 58 58 57 57 57 57 57 57 57 56 56 56 55 55 55 56 57 56 54 48 39 41 21 24 27 32 18 18 23 30 32 28 28 31 43 57 52 54 57 63 62
61 60 60 58 57 58 58 58 57 57 57 57 57 57 57 56 56 55 54 54 54 55 56 51 48 43 42 30 25 20 22 33 30 27 25 27 31 29 30 32 43 50 52 53 54 58 58
61 60 58 58 57 57 58 58 57 56 56 56 57 56 56 56 55 54 51 46 49 49 47 43 39 35 26 28 30 31 31 30 31 28 26 29 27 27 30 35 41 53 54 51 56 57 55
60 59 58 58 56 57 58 57 57 56 56 56 56 56 56 55 54 54 52 40 39 32 31 34 41 33 18 23 27 29 27 24 28 24 23 23 22 22 24 43 49 51 51 52 55 56 53
60 58 56 56 56 56 57 57 57 56 55 55 56 56 55 54 53 51 44 37 35 34 32 33 33 21 17 21 20 28 25 22 19 18 17 18 20 21 19 47 46 51 51 52 51 54 54
60 58 57 56 56 56 57 57 57 56 55 55 55 55 54 53 50 44 40 40 40 35 33 31 22 21 21 21 20 22 26 25 21 17 17 14 16 17 18 44 47 49 52 52 52 50 47
59 59 58 57 57 57 56 56 57 57 55 55 55 55 53 51 47 39 35 34 33 35 28 22 23 26 26 21 24 21 27 25 23 21 18 13 11 11 15 22 49 51 53 51 49 50 51
59 59 59 58 57 57 56 56 57 56 55 54 54 54 53 49 49 45 39 35 35 32 29 20 22 23 23 22 22 26 27 26 25 22 23 17 14 13 16 25 47 52 51 51 52 51 45
58 59 59 58 58 57 56 55 56 56 55 53 52 52 51 47 42 40 36 37 33 32 31 22 18 21 21 22 21 25 25 26 24 22 21 22 13 12 15 35 50 51 50 46 43 42 41
56 57 59 58 57 57 57 56 56 55 54 52 51 51 50 48 44 40 37 36 35 36 28 16 15 17 18 24 25 22 24 21 24 23 21 21 15 13 22 21 41 49 43 41 38 42 44
54 55 57 58 57 57 57 56 56 55 54 52 51 48 48 44 47 45 38 35 36 31 16 14 15 22 28 27 27 26 24 21 20 21 20 22 22 22 21 23 24 31 36 38 42 45 44
54 53 54 57 57 57 57 56 56 55 53 52 49 46 42 41 38 39 38 34 33 21 15 12 15 19 28 28 31 28 29 29 26 25 22 21 24 26 26 20 24 23 32 29 39 39 39
57 56 53 54 57 57 57 56 55 55 52 51 49 42 41 40 36 39 32 33 32 15 14 18 14 18 26 32 31 35 34 30 30 27 28 31 29 25 29 23 22 22 28 28 38 36 36
56 56 57 53 56 57 57 56 55 53 51 50 47 39 38 33 35 35 30 31 34 16 16 16 15 16 20 31 30 37 36 37 34 29 31 33 28 27 27 24 24 22 20 22 24 27 35
54 55 56 56 56 57 57 56 55 53 52 49 46 41 41 37 30 26 35 31 19 13 18 14 14 15 24 34 35 38 35 35 36 31 33 32 32 28 25 26 26 20 20 20 19 18 22
54 54 54 56 56 57 57 56 54 54 53 50 47 41 42 41 36 27 32 31 26 20 19 20 25 21 22 33 37 41 40 38 35 31 53 41 28 29 26 27 28 30 22 19 25 16 19
54 53 53 54 55 56 56 56 54 54 54 51 48 40 40 37 30 26 29 27 21 20 21 21 30 23 28 34 41 41 40 39 40 44 36 31 28 29 30 33 28 28 28 22 17 22 23
54 53 53 53 55 56 56 56 55 54 53 49 45 44 46 43 39 30 29 29 20 20 24 20 24 22 28 34 38 40 41 45 42 41 36 33 32 40 36 41 39 36 30 31 26 17 42
54 53 53 54 55 56 56 55 56 55 52 50 52 52 50 45 40 30 26 32 23 25 23 25 24 28 30 35 38 39 41 41 40 40 36 37 40 39 36 40 39 35 38 36 42 43 36
53 53 53 55 55 56 56 56 56 55 53 49 49 49 49 44 43 41 28 23 23 28 32 21 23 30 36 31 26 26 25 31 33 34 31 37 42 40 39 40 33 42 42 41 44 46 47
52 53 54 55 55 55 56 56 55 56 55 50 48 49 50 46 46 42 37 24 29 31 30 22 27 33 29 26 28 33 36 38 40 39 30 37 41 39 39 37 40 42 45 41 40 44 49
52 53 54 55 55 55 55 56 55 55 55 50 47 49 51 48 44 45 42 29 28 33 33 27 31 30 31 31 31 36 36 40 39 38 40 44 46 42 40 37 36 44 43 46 42 43 48
52 54 55 55 55 55 55 55 55 55 55 51 48 52 53 48 46 46 43 33 32 37 37 34 31 32 31 34 33 40 41 43 39 38 40 39 39 38 40 41 42 46 45 46 40 43 50
54 54 55 55 54 55 55 55 55 54 56 51 47 49 53 51 48 48 44 40 36 37 39 38 36 35 35 35 39 43 42 42 40 43 43 40 41 40 39 37 37 44 42 36 45 46 49
54 54 55 55 55 55 55 55 54 54 56 53 47 52 54 54 48 44 41 40 39 38 40 42 43 44 42 39 41 41 38 41 40 37 41 37 40 43 43 42 45 46 47 49 48 44 45

GFSGBSN_sfc_dewp_108.txt.gz
Dewpoint
59 57 58 58 58 58 58 57 57 58 58 57 57 57 57 56 57 56 56 56 56 55 55 55 56 56 52 42 41 48 66 65 51 30 17 21 35 39 37 55 58 59 59 60 62 62 60
60 59 57 57 58 58 57 58 57 57 57 57 57 57 57 57 56 56 56 57 56 55 55 55 55 57 50 30 36 56 53 51 34 21 19 24 37 40 36 49 56 59 60 61 63 61 62
60 60 58 57 57 58 58 58 57 57 57 57 57 57 57 57 56 56 56 56 55 55 55 56 55 53 46 29 43 54 52 49 39 17 27 31 32 37 35 30 54 59 58 61 61 63 62
61 60 60 57 57 58 58 58 57 57 57 57 57 57 57 57 56 56 56 55 55 55 55 56 56 51 37 39 39 32 44 32 35 21 19 30 34 33 31 29 36 56 58 55 59 61 59
61 60 59 58 56 58 58 58 57 57 57 57 57 57 56 56 56 56 55 55 55 56 57 56 51 48 41 48 30 28 32 29 21 19 19 21 28 31 28 29 37 57 51 53 59 60 62
60 58 57 57 56 57 58 58 57 56 56 56 56 56 56 56 56 55 54 54 54 54 55 53 50 42 39 34 27 22 22 24 21 20 21 21 28 28 28 29 32 47 51 53 53 57 59
59 58 58 57 56 56 58 57 57 56 56 56 56 56 56 56 55 54 51 45 40 41 49 41 38 37 35 29 30 28 23 30 31 27 24 26 27 27 28 28 32 53 53 53 55 57 55
59 57 57 57 57 57 57 57 57 57 56 55 55 55 55 55 54 53 50 39 35 38 32 41 42 41 39 33 24 29 29 28 30 26 26 25 25 27 28 29 37 53 53 53 53 56 54
59 59 58 56 56 56 56 56 57 57 56 55 55 55 55 54 53 49 45 41 38 35 32 32 34 37 37 20 20 20 27 22 23 25 21 21 22 25 24 27 50 51 51 52 51 53 55
58 59 59 57 57 56 55 55 56 57 57 55 55 55 54 53 46 44 39 41 38 36 30 32 28 20 19 19 20 20 27 23 24 17 17 16 17 19 19 28 48 49 52 52 52 50 46
58 59 59 58 57 56 56 55 55 56 56 56 54 54 53 52 45 39 34 39 39 34 26 30 24 27 24 20 22 22 27 26 23 23 20 18 14 13 15 17 49 52 52 50 51 50 50
58 57 59 59 58 57 56 55 55 56 56 56 54 53 52 48 47 47 46 42 35 30 29 23 23 22 24 23 23 26 25 28 26 26 24 23 24 13 12 41 52 51 51 50 50 49 43
55 55 56 58 58 57 57 56 56 56 55 55 53 51 51 48 32 40 40 36 31 30 34 22 20 23 22 21 24 25 26 25 24 21 21 23 22 29 52 50 51 50 47 44 43 43 41
55 55 54 55 57 57 57 57 56 55 55 54 51 50 50 49 47 44 38 34 31 35 34 25 13 18 21 26 27 25 25 24 25 24 22 20 19 17 37 49 49 49 42 40 37 40 44
57 56 54 53 56 56 57 57 55 55 54 53 50 47 48 47 48 44 35 33 33 34 17 10 11 19 24 25 29 26 26 22 22 23 20 20 22 23 23 43 49 47 40 41 42 43 44
57 57 56 53 54 55 57 57 54 55 54 51 47 46 41 43 45 38 34 33 32 33 13 11 13 19 26 26 30 31 33 34 33 30 26 22 19 21 26 25 40 41 40 35 37 38 39
55 55 56 56 53 53 56 57 55 54 53 51 48 37 39 41 39 36 31 30 31 31 16 13 13 13 22 29 32 34 35 36 35 33 32 30 23 24 28 26 21 22 28 29 36 39 39
56 54 54 55 56 56 55 57 55 53 52 48 47 39 37 37 32 33 29 30 36 29 14 13 12 13 21 32 36 36 35 37 37 34 29 34 28 26 26 28 25 22 21 25 23 23 36
56 55 53 53 54 56 56 56 55 53 52 46 44 44 41 33 28 26 28 28 29 29 18 15 16 17 32 34 33 39 38 39 39 37 30 29 27 26 26 29 30 27 26 33 21 22 28
57 55 54 53 54 54 56 55 55 53 53 47 46 37 41 38 34 28 25 25 28 20 18 17 17 21 29 32 41 39 39 39 39 38 55 40 27 30 25 27 30 29 30 29 21 17 17
56 55 54 53 53 53 55 55 55 54 53 48 46 38 40 39 37 38 30 27 26 19 18 20 22 28 26 35 37 38 41 38 38 45 39 31 26 27 29 40 39 37 38 38 33 26 18
56 55 53 53 53 53 54 56 55 54 52 46 41 42 47 44 43 38 34 26 20 18 18 21 22 34 34 35 33 31 40 41 39 34 36 35 31 38 38 38 39 38 40 43 44 45 51
55 54 53 53 55 53 55 55 55 54 51 47 49 49 48 44 43 41 28 23 22 19 23 20 24 25 31 35 37 34 38 37 39 37 33 40 38 37 35 39 38 39 40 43 45 46 48
55 53 53 54 55 53 53 55 55 55 54 48 47 46 47 44 44 44 44 36 24 25 24 18 18 24 31 27 27 31 38 37 39 35 32 40 38 39 35 36 33 39 47 43 44 46 51
54 53 52 54 54 55 55 55 55 55 55 52 48 44 48 45 46 44 43 39 25 26 20 19 29 28 26 25 25 34 37 32 34 40 40 39 38 38 34 35 39 42 44 44 41 42 52
53 52 53 54 55 55 55 55 55 55 54 53 48 48 46 47 42 44 43 36 26 27 29 26 29 27 27 28 31 33 32 37 35 38 39 39 42 39 36 33 32 41 44 47 46 41 52
52 53 54 54 55 54 54 55 56 56 54 54 49 48 45 48 46 46 45 43 37 34 33 28 26 25 27 31 35 36 35 42 34 35 37 37 38 35 38 35 39 44 45 46 40 40 52
53 53 54 54 54 54 54 55 56 55 55 52 48 48 46 49 48 46 45 43 40 37 33 31 32 32 32 33 36 38 38 40 37 39 41 41 37 39 35 32 30 43 45 41 44 50 54
53 53 54 55 55 54 55 55 56 55 55 53 46 48 48 50 48 47 46 42 37 37 38 37 36 38 39 37 38 41 39 40 37 34 41 37 42 43 44 39 42 45 44 48 48 54 55

GFSGBSN_sfc_dewp_111.txt.gz
Dewpoint
59 57 56 56 58 57 57 57 57 57 57 57 57 57 57 57 56 55 55 55 56 56 55 55 56 56 51 35 35 42 69 66 53 26 17 19 32 37 38 44 60 59 60 61 61 61 60
60 59 58 56 56 58 57 57 57 57 57 57 57 57 57 57 57 57 56 56 56 55 55 56 56 57 47 16 25 54 55 50 38 25 22 23 32 39 40 36 57 59 59 61 61 61 60
60 60 59 57 56 57 57 57 57 56 56 56 56 57 56 57 57 56 56 55 55 55 55 56 56 54 44 18 46 52 48 41 37 21 19 21 30 34 37 34 48 60 59 61 61 62 61
60 59 59 58 56 57 58 57 57 57 56 56 56 56 56 56 56 56 55 55 55 55 56 57 56 51 38 34 40 35 50 47 38 20 19 29 34 34 34 32 31 58 58 54 59 61 61
59 58 57 58 58 56 58 58 57 57 56 56 56 56 55 56 56 55 55 54 55 56 56 56 50 46 35 48 41 40 38 42 26 27 24 19 26 27 31 29 33 52 50 53 57 61 60
58 57 57 56 56 56 57 58 58 57 56 56 55 56 56 56 55 55 53 53 55 54 55 55 51 41 35 32 33 23 33 32 26 18 21 19 25 28 28 26 27 43 51 52 53 58 59
59 58 57 56 57 56 56 57 57 58 57 56 55 55 55 55 55 53 50 44 34 36 50 36 34 35 34 36 29 24 20 21 29 25 24 27 24 24 27 28 33 53 53 52 54 58 56
58 59 58 57 57 57 56 55 56 57 57 57 55 55 55 54 54 52 49 31 32 37 32 40 42 41 41 37 35 28 30 28 29 27 26 24 25 27 29 29 36 52 52 52 54 56 55
55 57 59 58 57 57 56 56 55 56 57 57 56 55 54 54 53 48 41 39 38 41 34 32 37 37 36 37 33 22 28 26 24 26 23 22 23 25 26 32 51 52 50 51 50 53 55
58 58 57 58 58 57 56 55 55 55 56 56 56 55 53 52 42 44 34 43 40 37 30 30 32 29 25 19 20 21 26 22 24 19 22 19 19 20 21 23 50 48 52 52 52 50 46
56 56 57 57 58 58 57 56 55 56 56 56 56 55 53 52 42 40 31 42 41 34 23 31 25 25 21 20 23 22 26 25 21 23 21 21 21 21 16 18 49 49 52 52 51 49 49
54 54 54 55 57 57 57 57 56 56 56 56 55 54 52 48 46 43 44 41 35 30 29 29 23 23 25 22 22 25 26 26 26 24 25 23 25 22 22 44 47 52 50 50 50 48 43
56 56 55 53 54 56 56 57 56 55 55 55 54 52 50 48 26 40 41 36 31 29 35 17 16 21 22 22 23 24 24 24 23 20 22 23 25 51 51 50 51 50 45 39 38 40 41
57 57 57 53 54 55 55 56 56 54 54 54 52 50 49 49 46 43 37 34 32 33 34 30 13 24 21 28 26 25 25 24 27 25 22 21 18 46 50 49 47 48 42 37 33 38 42
57 56 56 56 53 53 54 56 56 54 54 53 51 46 46 47 49 42 35 32 32 35 30 11 12 22 24 25 29 27 28 30 26 24 21 20 21 23 46 49 48 47 41 41 42 41 41
57 56 54 55 56 55 55 55 56 54 53 52 47 45 42 47 46 37 33 32 32 34 24 12 11 18 23 27 30 30 32 35 34 34 28 27 21 21 24 46 48 43 43 38 40 38 35
58 56 55 53 53 55 55 55 55 54 53 51 47 40 34 45 39 35 30 30 31 31 31 13 12 12 19 28 33 34 35 35 36 34 31 30 21 21 27 25 36 28 34 32 37 39 39
58 57 55 54 53 53 53 55 55 53 52 47 44 32 38 40 33 33 31 30 33 30 18 14 13 13 25 34 35 35 34 36 38 37 30 32 28 27 24 28 28 24 30 30 28 24 39
58 57 56 55 53 52 53 55 54 53 53 47 39 43 44 36 31 31 28 27 28 27 23 16 18 18 33 34 31 37 36 37 38 36 32 30 26 25 27 31 32 28 32 31 22 24 31
58 57 56 55 53 52 54 54 54 53 53 46 43 35 39 36 34 29 27 27 26 28 26 16 18 21 32 34 39 35 37 38 39 38 54 41 28 28 28 28 32 35 39 38 18 17 19
58 57 55 54 53 53 54 54 54 53 52 47 43 35 42 39 39 42 36 35 34 29 19 21 29 30 29 35 37 33 39 36 37 44 39 34 28 28 29 40 39 41 43 44 40 41 18
57 56 55 53 53 53 53 54 55 53 52 45 34 43 48 45 44 41 38 33 32 30 16 22 30 33 33 33 28 26 36 38 35 36 35 36 35 38 37 39 39 39 41 44 45 47 45
56 55 55 53 53 54 54 54 54 54 50 45 47 47 48 44 44 42 39 35 31 19 24 19 27 32 32 32 35 32 37 37 39 39 34 40 36 36 34 38 35 34 40 43 44 49 50
55 55 53 53 53 54 55 54 54 54 54 49 46 45 46 43 44 44 44 43 27 23 21 22 26 30 30 25 29 35 38 38 37 38 35 38 37 38 34 36 31 36 45 45 43 47 53
54 53 52 52 54 54 55 55 55 55 54 52 49 43 46 44 46 43 43 41 24 27 20 26 28 28 25 25 27 32 33 31 33 38 41 39 39 36 33 33 37 42 43 42 40 41 53
52 52 52 53 54 54 54 55 55 55 54 54 52 49 45 46 42 46 43 43 27 27 28 27 26 27 29 29 36 30 28 35 32 35 39 40 39 37 35 31 32 40 43 47 46 40 53
52 52 53 54 54 53 54 54 55 56 54 54 51 48 43 45 47 47 44 42 42 35 29 28 27 25 29 32 36 33 33 41 32 34 34 36 37 35 37 33 36 41 45 46 37 38 52
52 53 53 54 54 54 54 53 55 56 55 54 50 49 45 45 47 48 44 43 39 36 29 28 31 31 30 32 36 37 36 39 35 36 39 37 36 35 34 31 28 43 44 39 42 51 52
53 53 53 54 54 54 54 54 55 56 55 55 48 47 47 43 43 50 49 48 46 41 36 37 34 35 35 36 37 41 37 39 34 32 41 39 39 39 40 38 41 44 45 46 50 53 54

GFSGBSN_sfc_dewp_114.txt.gz
Dewpoint
59 59 57 56 57 57 57 57 57 57 57 57 57 57 57 57 57 57 57 56 55 55 55 55 56 57 50 27 24 54 64 64 55 26 19 21 35 37 38 41 60 58 59 60 63 61 59
60 59 59 57 56 57 57 57 57 56 56 56 56 57 56 57 57 57 56 56 56 56 55 56 56 57 45 10 21 56 58 45 35 23 21 25 32 37 40 38 54 59 60 61 62 61 61
59 57 58 57 56 57 57 57 57 56 55 55 56 56 56 56 56 56 56 55 55 55 55 56 56 54 40 11 46 49 47 42 34 25 21 21 32 36 38 34 42 60 59 59 61 61 60
57 57 58 56 57 56 57 57 57 57 56 55 55 55 55 55 56 56 55 55 55 55 56 56 56 50 37 33 40 38 48 48 39 20 20 25 33 34 35 32 41 58 57 53 59 62 61
58 58 58 56 57 56 56 57 57 57 58 57 56 55 55 55 55 55 54 53 55 55 56 56 49 45 30 47 40 41 44 39 32 25 25 19 28 27 30 29 31 50 49 54 55 60 60
59 58 58 57 55 56 55 55 55 56 57 57 57 56 55 55 55 54 52 53 56 56 55 56 51 38 32 31 34 27 35 28 25 19 21 19 28 27 28 26 27 45 51 52 53 57 57
57 58 59 58 57 57 56 55 55 55 57 57 57 56 55 55 54 53 49 45 33 35 48 37 35 34 34 36 32 23 31 30 28 25 24 27 23 24 28 27 36 52 52 52 54 57 55
58 58 56 58 58 57 55 55 55 55 56 57 57 56 55 54 53 53 47 32 32 35 33 38 41 40 41 39 34 31 26 28 29 28 25 24 24 25 28 29 35 53 52 52 54 56 54
57 57 57 57 57 58 57 57 56 55 56 56 56 56 55 53 52 47 40 36 39 42 34 33 37 38 35 38 32 30 28 27 26 27 24 23 24 27 27 43 48 51 49 51 50 54 55
55 54 55 56 57 57 58 57 57 56 56 56 56 56 55 52 38 41 34 41 40 39 29 27 32 31 27 24 20 24 27 22 21 21 22 22 20 21 22 23 46 46 51 51 53 50 46
55 55 55 53 54 56 56 57 57 55 54 55 55 55 54 51 42 34 33 40 41 33 20 30 26 25 20 21 23 23 26 24 21 22 21 19 22 21 18 18 45 42 53 52 51 48 49
57 57 56 54 53 53 55 55 56 55 54 55 55 54 52 47 44 42 42 40 35 30 26 31 23 23 24 23 21 25 24 26 26 23 25 23 25 23 24 44 45 52 50 49 48 47 42
58 57 57 56 54 53 54 54 55 55 54 54 53 52 51 48 25 40 40 36 30 27 32 23 13 20 23 23 23 24 23 24 23 24 19 23 25 49 51 49 50 49 43 38 37 39 39
56 55 56 55 56 53 53 53 53 53 53 53 52 51 49 48 47 42 37 34 30 31 34 26 13 24 22 28 27 25 25 24 26 23 23 20 18 48 50 49 48 47 40 37 30 35 39
57 57 56 55 54 55 55 54 54 54 53 52 51 46 45 45 48 42 35 32 31 34 33 11 12 16 23 27 29 30 30 28 28 24 21 20 20 27 49 50 48 47 42 43 40 39 40
58 57 56 55 54 53 53 54 55 54 53 52 46 45 43 47 47 36 32 33 32 35 30 12 10 16 21 26 29 30 33 35 33 33 27 29 23 24 27 48 48 45 46 40 41 34 34
59 58 57 56 55 53 53 53 55 54 53 51 46 37 34 46 39 34 27 29 31 32 31 13 12 12 19 28 33 35 34 35 36 34 30 30 22 22 27 33 43 33 39 37 39 40 37
59 58 57 56 55 54 52 53 54 53 52 48 39 31 40 39 32 32 30 31 33 30 22 14 13 15 25 33 34 33 32 34 37 36 30 33 27 26 26 27 31 32 37 34 32 27 39
58 58 57 56 55 54 52 52 54 52 52 48 36 40 44 37 30 31 31 27 28 27 27 14 15 17 34 33 32 36 35 36 38 36 32 30 26 27 25 30 36 32 38 32 25 29 36
58 58 57 56 55 54 53 54 53 52 52 46 41 29 39 37 35 31 29 29 27 30 27 20 17 31 32 36 38 30 36 36 38 38 53 38 28 28 27 30 35 38 42 44 19 19 22
58 58 57 56 54 54 54 54 54 53 52 46 40 31 41 37 37 40 34 37 36 35 23 23 33 25 31 32 35 34 37 35 35 41 38 32 27 32 30 38 41 42 42 44 39 41 21
58 57 56 55 54 54 55 54 54 53 51 44 31 43 46 45 44 43 39 37 33 32 24 18 28 30 33 31 30 26 32 35 35 35 36 39 31 39 38 38 39 38 41 44 46 49 47
56 56 56 55 54 54 55 54 54 53 50 43 45 45 47 42 43 40 39 35 41 38 21 22 31 33 32 30 32 35 36 36 38 37 34 39 39 34 32 38 36 36 39 42 45 48 49
55 55 54 54 52 54 54 54 54 54 54 50 45 44 45 41 44 42 44 44 42 42 22 25 32 30 31 36 34 37 36 37 38 40 35 36 38 40 35 36 31 38 45 44 43 46 52
54 53 53 52 53 54 54 55 55 54 54 53 50 43 46 45 45 44 43 41 33 26 23 23 23 27 25 25 29 29 31 33 33 39 39 38 39 36 34 34 36 42 45 42 40 41 51
52 52 52 53 54 54 54 54 55 55 54 53 52 50 45 45 42 46 44 44 29 26 25 26 26 28 30 35 33 28 28 33 30 34 38 40 39 36 35 30 31 39 44 46 44 41 50
51 51 52 53 54 54 53 54 54 55 54 53 52 50 44 45 46 47 45 40 41 35 28 28 25 25 31 35 34 32 32 39 30 32 34 35 37 33 35 32 35 40 45 47 39 39 53
50 51 53 53 54 54 54 54 54 55 56 54 50 50 48 42 43 46 46 43 41 37 29 28 30 30 29 32 34 36 35 38 34 35 37 35 35 34 34 31 27 44 45 41 43 53 54
51 52 53 53 54 54 55 54 54 55 56 55 50 47 48 45 41 47 46 46 47 45 39 36 33 31 31 34 37 39 37 38 33 31 39 37 37 37 37 36 40 43 44 47 51 53 53

GFSGBSN_sfc_dewp_117.txt.gz
Dewpoint
59 59 58 56 56 57 57 57 57 56 56 56 56 57 57 57 57 57 57 57 56 56 55 56 57 57 50 22 14 53 64 63 52 25 18 29 43 40 41 39 53 55 59 60 59 56 56
57 58 58 58 56 55 57 57 57 57 56 56 56 56 56 56 56 56 56 56 56 55 56 56 57 57 41 9 32 56 55 41 29 25 21 24 38 39 38 36 48 59 60 61 61 61 59
58 58 57 57 57 55 56 56 56 57 57 57 56 56 56 56 56 56 56 55 54 55 56 56 56 54 36 10 47 53 45 39 32 28 26 23 33 38 38 35 42 59 59 60 61 60 59
58 58 57 57 57 56 55 55 55 56 56 57 57 56 55 55 55 55 55 53 53 55 55 56 56 51 33 33 37 39 45 46 35 25 22 22 26 33 35 33 56 56 55 53 59 60 62
58 59 58 57 57 57 56 55 55 55 56 57 58 57 56 55 55 55 53 53 55 55 56 57 52 46 28 47 38 39 43 38 32 25 23 22 26 30 30 30 40 53 47 53 56 60 60
56 55 56 58 57 57 56 55 55 55 55 57 57 57 57 56 55 54 53 54 57 57 56 55 51 39 33 30 34 33 38 31 24 22 19 20 27 29 29 28 31 45 49 53 53 57 55
57 57 58 56 56 57 57 56 55 55 55 57 57 57 56 56 55 53 49 46 38 38 48 35 34 35 33 36 34 25 35 32 26 26 22 26 28 32 28 29 36 42 48 50 54 57 55
55 55 56 57 57 57 58 57 57 56 55 56 56 55 56 55 54 52 47 34 35 36 33 35 38 39 39 39 32 27 31 28 26 29 26 26 28 26 28 29 41 44 46 51 54 56 54
55 55 54 54 55 56 57 57 56 56 55 55 55 55 55 54 53 45 39 37 39 37 34 33 36 36 35 38 29 26 26 28 28 28 26 25 25 26 27 38 41 45 39 50 49 54 54
57 56 56 54 53 53 55 55 54 55 55 54 55 55 53 52 39 39 34 39 39 39 30 28 30 31 36 32 21 28 28 25 22 25 26 25 22 22 23 22 33 33 47 49 53 51 47
58 57 57 55 54 53 54 54 53 53 54 54 55 54 52 51 41 31 34 38 39 35 19 32 27 27 22 21 23 20 25 24 22 20 23 23 20 22 21 20 29 28 50 51 52 50 49
58 57 55 57 56 55 54 53 53 52 53 54 54 53 52 47 45 38 39 39 37 31 20 26 23 23 22 23 21 24 23 27 26 23 24 23 24 23 23 45 34 52 50 50 50 49 45
58 57 56 55 55 55 55 55 53 54 54 53 53 52 51 48 27 40 39 38 32 26 31 20 15 19 23 25 23 23 23 24 24 23 23 24 23 40 49 46 49 49 45 40 40 43 38
58 57 57 56 55 54 53 53 54 55 54 52 51 51 50 48 46 42 37 36 31 29 31 23 15 24 23 28 28 25 24 22 26 24 24 23 18 44 48 43 42 45 37 25 27 34 40
59 58 57 56 55 55 54 52 52 54 53 52 50 46 46 45 49 43 37 33 32 33 32 15 13 20 23 27 29 32 32 25 29 26 25 22 22 30 49 49 46 46 42 39 40 44 43
59 59 59 57 56 55 54 53 52 53 53 52 48 46 45 47 47 38 35 34 34 35 31 12 13 17 20 25 29 31 33 34 32 33 30 28 27 26 35 49 48 46 45 42 45 34 32
59 59 59 58 57 55 54 53 52 53 52 51 45 38 40 47 40 38 28 31 32 32 33 20 13 14 19 27 32 33 33 34 34 33 31 29 27 27 28 38 37 42 41 42 43 43 32
59 58 58 58 57 55 55 53 53 53 52 50 35 33 43 43 35 35 30 32 33 30 26 15 15 14 23 32 33 31 31 34 37 35 30 31 28 27 26 28 30 40 39 38 34 35 39
58 57 58 58 57 55 54 53 53 52 52 50 37 38 45 40 30 32 33 28 29 26 27 15 15 17 34 33 29 34 33 35 38 35 34 32 29 25 25 30 35 35 41 36 29 34 36
57 58 58 58 57 55 55 54 53 52 52 50 40 33 41 40 37 33 32 30 30 29 29 26 21 33 35 34 37 32 34 34 37 35 52 39 29 30 22 30 36 40 41 44 36 27 29
58 58 58 57 56 55 55 55 53 53 52 49 40 32 41 37 37 35 34 37 33 33 29 25 29 27 30 31 33 33 35 33 34 40 39 34 31 31 31 37 39 39 40 44 39 43 27
57 57 56 56 55 54 55 55 54 53 51 46 35 45 46 46 45 43 41 40 36 36 34 19 28 26 34 32 31 29 33 37 35 36 37 39 34 37 36 37 35 38 38 43 47 48 48
56 55 55 55 54 53 54 55 54 53 51 45 43 46 47 42 43 42 40 37 35 41 35 24 28 32 32 32 35 31 34 36 38 37 37 41 40 37 31 34 35 36 38 38 44 48 49
55 54 54 53 52 53 54 55 54 54 53 51 48 44 43 37 44 43 43 43 42 42 39 22 35 35 36 38 38 36 36 37 39 41 38 39 42 43 35 36 31 36 44 42 41 44 49
53 52 51 51 53 54 54 54 55 55 54 53 50 47 44 42 45 42 42 43 41 31 37 29 31 33 37 30 29 29 32 34 35 40 40 40 41 38 37 37 35 40 42 42 39 37 47
52 50 51 52 53 54 54 54 55 55 54 54 51 51 46 44 35 45 44 44 35 29 27 27 29 31 34 35 32 32 33 34 32 37 41 41 43 36 37 33 29 38 42 44 44 39 46
51 50 51 52 53 53 54 54 54 54 54 54 51 52 46 41 41 48 45 42 42 37 30 30 29 30 34 36 34 36 38 41 36 34 37 37 39 36 39 37 35 40 43 46 39 40 51
52 50 51 53 53 53 54 55 54 54 55 54 50 51 47 42 41 43 47 44 42 39 32 33 33 32 35 36 35 41 39 42 37 38 39 39 41 43 38 38 32 43 43 43 45 51 54
53 52 52 53 52 53 54 55 55 55 55 55 50 48 51 48 45 45 44 44 46 45 43 40 38 38 36 37 40 41 40 39 38 35 41 42 40 44 42 39 44 46 46 48 51 53 55

GFSGBSN_sfc_dewp_123.txt.gz
Dewpoint
58 58 58 58 56 56 56 56 56 56 57 57 57 58 58 57 57 57 57 57 57 57 57 57 57 58 52 39 29 53 68 60 40 33 22 35 43 46 46 46 48 54 55 56 57 55 53
58 58 58 58 57 56 56 56 56 56 56 57 57 57 58 58 57 57 56 56 56 55 56 57 57 58 49 28 41 46 38 35 25 22 17 35 43 47 45 41 46 54 53 56 56 54 56
58 58 58 58 58 57 57 56 57 57 57 56 57 57 57 58 57 57 56 56 55 54 55 57 58 53 37 37 41 37 30 23 20 19 17 28 42 46 43 38 50 52 52 57 58 58 58
58 58 58 58 58 58 58 57 57 57 56 56 56 57 57 57 57 57 56 55 55 56 55 57 58 52 31 37 40 37 35 32 27 23 22 19 38 43 41 38 47 47 48 50 56 57 58
56 57 57 57 57 57 58 58 58 57 57 57 56 56 56 56 56 55 55 54 56 56 57 57 55 48 26 37 28 32 35 32 27 21 19 16 32 37 40 33 36 42 40 45 53 57 57
56 56 56 55 55 56 57 57 57 56 56 56 55 56 55 55 55 54 54 54 57 56 56 52 47 40 26 29 29 30 30 31 20 17 13 16 30 35 34 32 28 31 34 37 45 56 57
57 57 57 56 56 54 55 55 55 56 54 55 56 55 55 55 54 54 50 49 48 47 44 34 30 30 27 29 29 28 30 27 23 14 11 13 16 23 24 31 29 33 36 35 47 55 54
58 58 57 57 57 56 56 55 54 55 54 55 55 55 55 55 54 53 49 38 35 34 30 27 26 26 25 26 24 25 27 23 22 12 12 14 13 17 22 29 30 30 31 35 47 53 53
59 58 58 57 57 57 57 56 56 55 55 55 55 55 55 54 53 49 36 36 35 35 33 26 28 27 26 26 21 23 24 26 23 21 17 15 14 21 27 27 25 28 29 32 36 51 51
59 58 57 57 57 57 56 56 55 55 55 55 55 54 54 53 47 35 33 37 33 36 31 25 25 27 27 29 22 21 26 25 23 21 19 15 20 24 25 23 23 23 27 30 33 43 39
59 58 58 57 57 57 56 55 55 53 53 54 55 54 53 52 48 33 35 31 34 37 26 24 24 28 27 25 23 23 23 23 23 17 22 19 21 20 20 21 21 22 26 28 32 37 39
60 60 59 58 58 57 56 55 55 55 54 53 54 53 53 50 48 37 32 30 36 28 21 23 21 22 21 21 21 23 21 24 24 21 20 21 21 19 18 18 19 20 25 30 35 37 34
60 60 59 59 59 57 56 56 55 54 53 53 52 52 52 49 41 30 29 32 27 22 25 21 18 19 20 21 21 22 23 22 22 21 21 18 19 17 18 19 25 21 25 26 28 28 27
60 59 59 59 58 58 57 56 55 54 53 52 51 50 51 46 43 39 33 31 28 25 22 17 15 17 19 21 22 21 23 22 21 20 20 18 17 17 19 19 25 24 23 23 26 22 36
60 59 59 59 58 58 57 56 55 53 53 52 51 47 44 42 42 36 30 26 26 26 20 15 15 18 19 20 23 23 23 22 24 23 25 21 18 21 25 24 24 28 26 24 23 22 20
59 59 58 58 58 58 57 56 54 54 53 52 50 43 39 38 37 32 26 25 25 27 20 15 17 19 21 20 20 19 24 24 24 27 27 26 24 22 22 26 31 29 44 31 24 26 26
58 58 58 58 57 58 57 56 54 53 52 52 49 37 40 35 31 27 22 22 25 30 24 18 15 16 16 16 19 21 20 27 27 29 29 26 25 25 27 28 28 30 28 36 34 35 31
57 57 58 57 57 58 57 55 54 53 51 50 44 30 39 34 20 21 21 23 32 29 23 18 16 14 13 15 19 17 22 27 29 26 25 27 23 23 23 26 25 30 36 34 26 33 37
57 57 58 58 58 57 57 55 54 52 52 50 42 37 39 30 16 16 22 20 26 29 24 20 15 15 16 19 21 19 19 29 28 25 25 27 24 18 20 18 26 25 23 24 33 35 37
57 58 58 58 57 57 56 55 54 53 53 51 43 31 35 32 27 24 25 25 27 28 25 20 17 17 20 22 24 23 19 23 24 21 51 35 18 18 11 18 25 30 30 39 40 28 31
57 57 57 57 56 56 55 55 54 53 53 51 43 33 39 30 24 25 29 25 25 27 27 24 23 17 20 24 25 25 21 21 26 40 29 26 26 24 18 14 15 18 35 41 41 40 28
57 57 56 56 55 54 53 55 54 53 52 50 42 41 43 39 41 26 28 27 21 25 29 26 27 23 21 25 27 24 25 28 26 31 31 29 30 29 25 21 19 17 25 41 39 34 37
56 55 54 53 53 53 53 55 54 53 52 48 46 42 43 39 36 35 30 27 26 24 27 30 28 27 24 23 25 24 23 23 25 27 28 32 30 30 28 24 27 26 23 29 32 29 41
54 53 53 52 52 52 54 55 55 54 53 50 50 48 40 34 34 34 33 28 25 28 29 31 33 30 28 26 27 25 21 25 26 24 23 29 36 32 25 27 27 30 38 40 38 30 39
53 53 52 51 52 53 53 54 55 54 54 51 51 49 43 38 35 35 38 41 34 33 34 33 32 32 32 29 26 28 26 29 28 25 23 26 31 29 29 29 33 28 36 37 37 32 33
53 52 51 51 52 52 53 54 55 54 54 52 50 52 49 41 35 38 38 39 39 38 37 36 35 34 32 28 25 30 27 27 26 27 29 25 33 30 30 32 34 37 44 46 49 33 38
54 53 52 51 52 53 53 54 55 55 54 52 52 53 49 44 40 39 36 39 42 42 40 34 34 33 32 27 23 26 28 30 28 27 35 32 32 30 29 30 35 36 43 41 37 43 50
55 54 53 52 52 53 53 53 54 55 54 53 52 53 49 45 43 43 41 40 42 43 39 35 34 32 30 29 26 29 32 30 30 32 33 33 33 33 35 37 36 40 40 37 49 49 53
52 54 54 53 53 53 52 53 54 55 55 55 53 53 52 49 44 47 47 46 44 44 43 42 35 37 27 27 29 30 30 28 34 29 38 34 37 44 37 41 47 46 44 47 48 50 51

GFSGBSN_sfc_dewp_129.txt.gz
Dewpoint
59 58 58 56 56 56 56 57 56 56 57 57 57 57 57 57 57 57 58 59 58 57 57 57 57 58 55 49 41 55 68 62 43 37 39 36 28 31 38 54 57 56 53 58 57 53 50
58 58 57 58 58 58 58 57 56 56 56 56 56 56 56 56 57 57 57 56 56 56 57 57 57 58 54 40 45 53 46 37 29 32 31 31 23 32 40 47 54 56 54 56 57 53 51
57 57 56 56 56 56 57 57 56 56 56 56 55 55 56 56 56 56 56 56 56 56 57 57 57 54 46 42 43 47 32 28 25 25 24 21 17 28 39 42 54 53 54 57 57 57 57
58 58 57 56 56 55 55 56 56 56 56 56 56 57 57 56 56 56 55 55 56 56 58 58 57 52 47 43 39 32 30 28 26 21 17 20 20 28 36 41 44 52 52 53 57 57 60
59 58 57 56 56 56 56 56 56 56 56 56 56 56 56 56 56 55 55 55 56 57 57 57 54 51 44 45 36 35 33 28 24 21 21 19 17 20 28 35 36 36 43 53 55 58 58
58 57 56 56 57 56 57 57 55 55 55 56 56 55 55 55 55 55 54 55 55 55 58 53 50 46 46 27 28 29 33 32 29 19 19 17 13 16 25 31 30 31 41 47 51 55 56
57 59 59 58 58 57 57 55 55 55 55 55 54 55 55 55 55 54 52 44 49 47 47 42 42 40 31 29 27 25 26 27 28 22 15 13 10 16 21 25 33 35 43 50 54 56 55
60 60 59 59 58 58 58 57 56 56 56 55 55 55 55 54 54 53 52 39 40 33 30 37 39 36 27 26 24 23 27 24 25 23 15 13 7 13 20 23 28 28 33 48 52 53 48
60 60 60 60 59 59 58 57 57 57 56 56 55 55 54 54 53 52 44 39 37 34 32 32 35 27 22 21 21 22 25 25 22 21 15 12 12 10 9 12 18 28 29 34 48 49 48
60 60 60 60 59 59 59 58 57 57 56 56 55 55 54 52 49 46 43 39 36 32 32 32 24 24 24 23 22 22 21 23 23 22 18 12 12 13 11 18 24 28 27 26 48 46 35
60 60 60 60 59 59 59 58 57 57 56 55 55 54 53 52 48 46 43 41 30 32 29 29 24 27 25 24 21 22 21 21 21 23 21 19 16 20 24 23 25 23 24 26 32 31 30
60 60 60 60 59 58 58 58 57 57 56 55 54 53 52 49 49 50 48 47 31 30 27 24 25 25 24 25 22 21 21 23 23 22 22 19 21 21 21 22 20 21 20 23 25 29 30
60 60 60 59 58 57 57 57 57 56 55 54 53 52 51 49 43 39 39 37 28 27 29 23 23 20 21 22 20 20 19 19 21 20 21 20 20 21 21 17 19 18 16 19 24 24 29
60 59 59 58 57 57 57 57 57 55 55 53 52 50 51 49 48 46 45 32 27 25 23 25 21 18 19 20 20 20 21 19 22 21 21 20 16 18 18 18 21 19 17 18 20 28 30
60 59 58 58 57 57 57 57 56 55 54 52 51 49 47 48 49 47 44 30 27 27 26 24 16 18 18 18 23 22 22 22 21 20 31 25 23 18 17 16 16 15 22 23 18 19 21
60 59 58 57 57 57 57 57 56 54 53 52 50 48 46 43 48 46 41 30 23 22 21 22 21 17 18 19 20 22 24 23 24 26 26 26 24 18 17 21 22 18 25 30 33 25 26
60 59 58 57 57 57 58 57 55 54 53 51 50 46 42 41 44 43 36 28 21 19 18 19 22 20 17 20 21 20 21 24 26 28 27 35 30 27 23 23 24 24 26 31 30 31 32
59 58 57 57 57 58 57 57 55 53 52 50 46 41 40 38 38 39 34 32 30 19 18 16 23 22 20 21 24 24 28 28 26 28 27 31 22 25 25 24 25 26 27 30 30 29 34
58 58 57 58 58 57 57 56 54 53 52 50 46 44 44 38 31 29 29 26 26 22 19 17 24 24 20 21 24 22 28 30 29 27 30 27 28 24 20 17 21 25 27 39 32 32 36
58 57 58 58 57 57 56 55 54 53 53 50 47 42 41 42 37 33 30 25 21 21 19 19 21 25 23 23 24 28 28 27 25 28 50 35 23 25 20 19 17 18 17 21 32 29 31
57 57 57 57 57 55 55 55 54 53 53 51 48 43 41 39 39 38 38 37 30 23 27 25 30 25 23 23 25 25 29 24 23 45 27 20 21 23 19 17 20 20 18 19 17 33 30
57 57 56 55 55 53 54 55 55 54 52 50 47 46 45 42 40 38 37 38 34 23 26 28 31 29 25 29 27 28 25 30 30 30 28 23 24 29 29 25 22 19 18 18 19 28 33
56 55 55 54 53 53 54 55 55 54 52 51 50 50 47 43 40 37 36 36 36 38 41 38 29 30 27 25 25 25 28 30 31 32 32 33 31 35 29 30 26 24 33 32 32 34 36
55 54 54 54 53 53 54 55 55 55 53 50 50 50 47 43 41 38 37 36 38 38 40 41 40 36 36 32 31 26 21 24 26 28 26 30 28 32 32 32 27 28 35 34 34 34 35
55 54 54 53 53 53 53 54 55 55 55 50 50 50 48 45 43 41 37 41 40 40 44 45 38 39 38 36 31 31 31 29 31 28 26 26 35 30 28 29 28 30 37 36 35 35 41
54 55 54 54 53 52 52 53 54 55 55 52 50 53 50 44 40 41 41 41 39 40 42 46 47 44 38 39 34 35 31 33 30 33 32 27 34 32 28 32 28 33 41 44 42 37 48
52 52 53 55 54 53 52 53 53 54 55 53 50 53 52 47 45 45 42 44 44 41 42 46 46 44 37 40 36 34 32 40 34 35 34 31 33 29 30 30 31 41 43 46 37 41 48
48 49 51 53 54 54 53 53 53 54 55 53 50 51 53 49 46 45 45 44 49 45 48 48 46 44 41 38 37 37 34 38 37 41 34 32 35 36 37 35 36 48 45 41 47 52 51
47 48 48 51 53 54 53 53 53 54 55 55 50 55 55 52 46 47 46 46 45 48 46 51 48 46 46 42 40 39 35 39 41 37 41 32 37 40 39 42 50 50 45 46 52 55 55

GFSGBSN_sfc_dewp_135.txt.gz
Dewpoint
57 57 57 57 56 56 56 56 56 56 56 56 56 56 56 56 56 56 57 56 56 56 57 57 58 58 54 41 39 58 69 65 50 37 36 35 35 33 31 53 56 56 58 58 60 57 54
58 57 57 57 57 56 56 56 56 56 56 56 55 55 55 55 55 56 57 57 57 56 57 57 58 57 50 35 43 61 51 46 33 32 35 37 35 30 26 45 53 56 59 58 57 57 54
58 57 57 56 57 57 57 56 56 56 56 55 56 56 55 56 56 56 56 56 56 56 57 58 58 55 46 32 45 53 38 30 30 30 28 32 32 22 21 36 57 57 56 57 57 57 53
59 59 59 59 59 59 58 58 57 57 57 57 57 57 57 56 56 56 56 55 55 56 57 59 58 52 31 40 45 46 41 30 27 29 27 26 23 19 30 37 56 56 55 50 55 55 59
60 60 60 60 60 59 59 59 59 58 58 58 57 57 57 56 56 55 55 55 56 57 58 58 51 50 42 52 41 42 37 30 28 27 27 25 17 18 25 31 38 51 49 51 51 56 58
61 61 61 60 60 59 59 59 58 57 58 58 57 57 56 56 55 55 54 54 56 57 57 54 52 41 41 38 30 37 36 30 30 24 23 18 13 13 17 28 34 38 48 52 49 55 54
61 61 61 60 60 59 59 58 57 56 57 58 57 57 56 55 55 53 52 44 39 38 51 32 32 33 34 37 30 31 32 31 28 20 17 15 7 5 11 23 30 36 34 41 52 55 56
61 61 61 60 60 59 59 58 56 56 57 57 57 56 55 55 54 53 50 30 37 40 35 37 41 39 38 38 34 26 27 26 25 24 17 14 10 10 11 15 20 21 23 41 55 56 56
61 60 60 59 59 59 58 58 57 55 56 57 57 56 55 54 53 49 44 41 42 44 33 31 35 36 35 37 35 30 25 25 23 23 21 17 14 14 10 8 9 11 17 46 50 56 56
60 60 59 59 59 58 58 57 57 55 57 57 56 56 54 53 45 47 44 44 45 40 29 30 31 32 32 26 27 27 25 24 25 20 21 19 20 16 12 8 8 7 19 38 54 53 47
60 60 59 59 59 58 57 57 57 57 55 56 56 55 53 52 46 45 40 46 44 33 23 32 31 32 26 21 23 23 26 23 22 21 21 21 22 18 13 12 15 15 25 49 53 50 37
60 60 60 59 59 57 57 57 56 55 55 55 55 53 52 49 47 47 48 46 32 26 23 29 31 23 21 23 23 22 22 22 23 21 23 21 23 20 19 21 23 21 20 23 28 30 25
60 60 60 59 58 57 57 57 55 55 55 54 53 52 51 50 44 46 45 31 24 24 26 28 25 23 21 22 24 20 19 19 19 18 19 21 20 20 21 19 19 18 18 17 18 19 20
59 59 59 59 57 57 57 57 56 55 54 53 51 50 50 50 50 48 40 24 24 22 24 23 22 24 21 23 23 19 18 17 19 20 20 18 18 19 21 18 17 18 16 17 15 18 21
58 58 59 58 57 57 57 57 56 54 53 52 50 48 48 49 50 45 35 21 19 24 21 17 17 22 22 21 23 20 18 17 17 20 18 19 22 23 19 18 17 19 17 17 16 26 21
58 57 59 57 57 57 57 56 55 54 53 52 48 46 47 49 48 43 35 29 28 26 23 18 18 18 16 18 20 19 19 20 19 21 22 23 21 24 20 17 18 15 22 25 27 23 23
57 58 58 57 57 57 57 56 54 53 52 51 47 43 43 49 44 39 34 35 33 32 29 25 24 20 16 17 17 19 19 21 21 25 23 25 23 22 19 18 16 21 21 27 28 30 28
56 57 58 57 57 57 56 55 54 52 51 48 45 33 44 44 36 37 33 34 34 27 30 30 26 22 17 19 18 19 20 25 28 26 23 27 22 22 20 24 20 23 22 26 21 20 32
56 57 58 57 57 56 55 54 53 52 52 48 42 44 47 42 36 30 35 35 32 30 29 28 22 23 22 19 19 23 28 28 28 25 24 25 23 20 19 19 16 15 22 32 29 32 33
57 58 58 57 57 56 53 54 53 53 52 46 44 42 43 43 39 39 38 36 36 37 36 37 26 27 34 21 20 23 28 26 26 28 51 36 24 20 17 19 16 17 21 22 28 27 29
57 57 57 56 56 54 53 54 54 53 52 47 45 43 44 41 42 41 39 37 36 36 38 39 37 38 39 37 19 26 28 24 26 46 23 19 17 22 21 20 17 21 24 28 19 21 23
57 57 56 55 55 53 55 55 54 53 52 48 45 44 45 44 43 41 39 36 36 38 38 37 38 38 41 40 26 21 24 25 21 25 18 17 15 20 18 21 28 26 31 31 31 32 33
54 56 55 55 54 54 54 52 54 53 50 45 47 47 46 43 42 40 39 42 41 41 39 40 39 39 42 41 43 43 43 24 22 23 23 18 23 23 24 30 25 24 27 31 33 34 33
52 54 56 55 54 52 52 53 54 54 52 47 46 46 43 41 43 42 43 43 41 41 39 39 39 39 44 44 44 34 30 26 23 26 28 25 29 28 26 28 23 27 33 34 33 41 44
51 52 53 54 55 53 53 53 52 54 54 50 47 46 45 41 44 43 42 42 42 41 40 39 39 43 44 44 33 25 25 24 26 28 29 28 27 25 21 21 23 29 36 34 31 34 46
50 50 51 51 52 54 55 53 53 54 53 50 47 49 49 45 40 44 42 42 41 40 41 41 43 45 44 41 32 25 24 25 24 26 28 29 25 25 27 20 21 26 36 39 38 34 46
49 49 49 49 50 51 53 54 52 54 53 53 50 51 50 47 44 43 42 42 43 43 42 42 44 43 45 39 32 30 29 31 28 26 26 27 28 24 29 24 26 32 41 43 35 34 44
48 48 47 47 47 48 51 53 54 54 54 53 49 51 49 48 45 46 45 43 44 46 42 43 44 42 43 39 38 34 30 33 33 33 28 28 28 27 30 29 27 43 44 39 41 47 49
49 49 49 50 48 49 49 52 54 54 54 54 51 50 53 49 46 49 48 48 47 46 46 46 46 44 45 41 42 39 36 37 34 32 34 30 31 32 33 34 41 46 44 45 50 48 50

GFSGBSN_sfc_dewp_138.txt.gz
Dewpoint
57 57 57 57 57 57 57 56 56 56 56 56 56 56 56 56 56 57 57 57 57 57 56 57 57 58 53 36 34 53 69 68 44 32 28 36 34 32 29 53 59 58 58 59 60 57 55
57 57 57 58 59 58 58 57 56 57 58 58 58 57 57 57 57 57 57 57 56 56 56 57 58 58 49 29 46 60 57 46 35 32 33 36 34 31 29 34 54 56 58 58 59 56 55
60 60 60 60 60 59 59 59 58 58 58 57 57 57 56 57 57 57 57 57 56 56 56 57 57 56 44 30 48 50 42 35 31 28 31 34 35 22 22 38 58 57 55 56 57 56 54
60 60 61 60 60 60 59 59 57 57 57 57 57 57 57 57 57 57 56 55 55 56 57 58 58 51 26 30 48 42 37 30 28 30 27 27 26 21 23 44 57 56 54 50 56 56 57
61 61 61 61 60 59 59 57 56 56 56 56 57 57 56 57 57 56 55 55 56 57 58 59 51 48 41 52 43 45 37 29 27 25 27 24 18 18 28 35 48 51 48 51 53 57 58
61 61 61 61 60 59 59 58 58 56 56 56 56 56 56 56 55 55 54 54 59 58 56 55 52 42 38 36 34 39 40 31 30 24 23 19 13 12 21 32 43 43 48 52 50 54 55
61 61 61 60 59 59 59 58 58 56 55 57 56 57 56 56 55 53 51 47 39 38 50 34 33 34 33 34 35 34 34 32 28 22 20 15 8 8 11 27 34 38 43 47 46 54 53
61 61 60 59 59 59 58 58 57 57 56 57 56 56 56 55 54 53 47 33 39 42 38 39 39 38 36 37 33 30 29 27 26 24 16 14 11 10 10 19 21 23 23 24 48 54 53
61 60 59 58 59 59 58 58 57 57 56 55 55 56 55 54 53 48 45 39 45 43 35 32 35 37 35 36 33 33 26 25 23 23 21 16 14 14 12 10 12 14 16 26 35 56 56
60 60 59 59 59 59 57 57 57 56 55 55 56 55 54 52 46 46 41 45 45 42 27 26 31 33 35 35 31 35 25 24 24 22 21 21 22 19 15 10 8 8 13 16 50 51 45
60 60 60 59 59 58 57 57 57 56 55 55 55 54 53 52 48 44 39 46 44 34 16 26 32 32 29 26 23 23 26 24 22 21 20 19 21 20 15 14 10 11 22 37 54 44 42
59 59 59 60 59 58 57 56 55 55 55 55 54 53 52 48 47 48 47 46 31 22 17 28 28 27 23 23 22 21 23 23 24 21 23 20 23 20 18 18 13 21 29 28 36 41 38
58 57 57 59 59 57 56 56 55 54 55 53 52 52 51 50 43 47 46 30 24 21 22 26 28 22 23 21 23 21 21 20 19 18 22 21 21 20 21 19 19 19 21 27 34 38 39
57 56 56 58 57 57 56 56 56 55 53 53 51 50 50 49 50 49 39 24 21 22 22 22 18 23 21 22 23 20 19 19 20 21 20 19 16 19 20 19 17 17 23 18 16 17 21
57 55 55 58 57 57 56 56 55 54 53 52 50 47 47 48 50 46 31 23 19 21 22 18 17 23 23 21 23 19 18 18 18 20 18 19 19 24 21 19 18 18 16 18 19 21 20
55 56 57 57 57 57 56 55 54 54 53 52 47 46 45 49 49 41 32 28 24 27 28 23 17 18 16 18 17 19 18 19 18 20 21 20 23 23 20 17 21 18 23 20 22 15 19
53 55 57 57 57 57 56 55 54 53 52 51 46 39 43 49 44 35 31 33 35 34 29 26 25 22 17 15 17 19 19 21 20 20 22 25 25 21 20 18 16 19 23 27 28 29 27
55 55 57 57 57 57 55 53 54 52 52 49 44 31 43 45 35 36 34 37 35 31 33 31 29 26 21 18 18 19 19 21 24 23 19 26 22 22 21 24 22 21 21 25 19 20 31
56 57 57 57 57 56 54 53 53 52 52 48 41 42 47 43 37 34 37 37 34 32 31 30 26 24 23 22 20 20 22 27 27 24 23 24 22 20 19 15 17 15 22 29 28 31 32
56 57 57 57 56 55 53 54 53 52 52 46 44 41 44 44 40 38 38 37 36 37 37 38 36 38 39 35 22 23 28 26 27 32 50 36 23 21 20 18 17 16 23 26 28 28 29
54 57 56 55 55 54 54 54 53 53 52 47 44 42 43 41 41 41 39 38 37 36 38 38 39 38 38 39 34 21 26 24 29 45 23 19 19 24 22 20 17 20 24 24 22 22 20
53 54 56 55 55 54 53 52 54 53 52 48 44 43 44 42 42 40 39 37 37 39 38 36 37 38 38 40 36 39 40 31 21 24 18 17 19 17 19 21 24 26 30 29 26 28 35
51 53 54 55 55 53 53 52 52 53 50 44 45 45 45 41 39 38 39 41 42 42 41 39 39 39 38 37 42 43 43 42 41 29 19 19 20 18 21 29 26 25 26 32 34 35 34
49 51 52 54 55 55 53 53 53 53 52 46 44 44 42 38 41 42 43 43 42 42 40 40 41 39 39 44 42 39 41 43 42 26 26 24 26 26 27 27 21 25 32 34 34 38 41
48 49 50 52 52 53 54 54 53 54 53 50 47 45 45 39 41 41 41 42 41 41 41 41 41 41 42 43 42 34 25 23 25 28 29 28 28 24 23 22 24 31 36 34 33 33 45
48 49 50 50 51 51 52 53 53 53 53 51 49 48 45 43 39 43 42 42 39 40 41 41 43 44 44 43 37 36 30 26 24 26 29 26 28 27 25 19 19 25 33 38 37 32 42
48 48 48 48 48 48 49 51 53 54 53 52 49 51 49 46 43 43 41 41 42 42 41 43 44 42 44 40 33 35 38 33 28 26 25 27 28 25 29 23 25 29 39 41 31 30 39
48 48 48 47 48 47 48 48 51 54 54 53 49 50 49 47 44 44 44 43 44 44 40 42 44 42 43 39 40 37 34 36 32 31 27 26 26 26 29 27 23 41 44 37 39 44 47
49 50 50 49 49 48 49 49 50 52 54 54 48 50 53 49 45 47 46 47 46 46 45 44 44 45 44 40 42 43 41 37 34 33 35 28 30 30 30 30 37 45 43 46 46 47 50